<?xml version='1.0' encoding='UTF-8'?><gpx version="1.1" creator="JPX - https://github.com/jenetics/jpx" xmlns="http://www.topografix.com/GPX/1/1"><trk><trkseg><trkpt lat="40.4599696" lon="15.1750882"><ele>278.0</ele><time>2026-05-05T09:35:23.004Z</time></trkpt><trkpt lat="40.4600389" lon="15.1750901"><ele>278.0</ele><time>2026-05-05T09:35:24.003Z</time></trkpt><trkpt lat="40.4601258" lon="15.1750933"><ele>278.0</ele><time>2026-05-05T09:35:25.004Z</time></trkpt><trkpt lat="40.4602084" lon="15.1750846"><ele>278.0</ele><time>2026-05-05T09:35:26.004Z</time></trkpt><trkpt lat="40.4602914" lon="15.1750644"><ele>278.0</ele><time>2026-05-05T09:35:27.004Z</time></trkpt><trkpt lat="40.4603793" lon="15.175027"><ele>278.0</ele><time>2026-05-05T09:35:28.004Z</time></trkpt><trkpt lat="40.4604699" lon="15.1749684"><ele>280.4</ele><time>2026-05-05T09:35:29.004Z</time></trkpt><trkpt lat="40.4605586" lon="15.1748947"><ele>282.8</ele><time>2026-05-05T09:35:30.002Z</time></trkpt><trkpt lat="40.4606511" lon="15.1748229"><ele>285.2</ele><time>2026-05-05T09:35:31.002Z</time></trkpt><trkpt lat="40.4607457" lon="15.174737"><ele>287.6</ele><time>2026-05-05T09:35:32.004Z</time></trkpt><trkpt lat="40.4608374" lon="15.174645"><ele>290.0</ele><time>2026-05-05T09:35:33.004Z</time></trkpt><trkpt lat="40.4609234" lon="15.1745335"><ele>290.8</ele><time>2026-05-05T09:35:34.004Z</time></trkpt><trkpt lat="40.4610022" lon="15.1744244"><ele>291.6</ele><time>2026-05-05T09:35:35.003Z</time></trkpt><trkpt lat="40.4610822" lon="15.174317"><ele>292.4</ele><time>2026-05-05T09:35:36.004Z</time></trkpt><trkpt lat="40.4611606" lon="15.1742338"><ele>293.2</ele><time>2026-05-05T09:35:37.003Z</time></trkpt><trkpt lat="40.4612445" lon="15.1741721"><ele>294.0</ele><time>2026-05-05T09:35:38.003Z</time></trkpt><trkpt lat="40.461336" lon="15.174125"><ele>296.59999999999997</ele><time>2026-05-05T09:35:39.004Z</time></trkpt><trkpt lat="40.4614292" lon="15.1740892"><ele>299.2</ele><time>2026-05-05T09:35:40.003Z</time></trkpt><trkpt lat="40.4615175" lon="15.17406"><ele>301.79999999999995</ele><time>2026-05-05T09:35:41.004Z</time></trkpt><trkpt lat="40.4615773" lon="15.174032"><ele>304.4</ele><time>2026-05-05T09:35:42.004Z</time></trkpt><trkpt lat="40.4616387" lon="15.1739349"><ele>307.0</ele><time>2026-05-05T09:35:45.004Z</time></trkpt><trkpt lat="40.4616387" lon="15.1737376"><ele>307.0</ele><time>2026-05-05T09:35:47.002Z</time></trkpt><trkpt lat="40.4616449" lon="15.1736042"><ele>307.0</ele><time>2026-05-05T09:35:48.004Z</time></trkpt><trkpt lat="40.4616578" lon="15.1734526"><ele>307.0</ele><time>2026-05-05T09:35:49.003Z</time></trkpt><trkpt lat="40.4616793" lon="15.1732821"><ele>307.0</ele><time>2026-05-05T09:35:50.004Z</time></trkpt><trkpt lat="40.4617084" lon="15.1730957"><ele>305.25</ele><time>2026-05-05T09:35:51.003Z</time></trkpt><trkpt lat="40.4617395" lon="15.1729195"><ele>303.5</ele><time>2026-05-05T09:35:52.004Z</time></trkpt><trkpt lat="40.4617691" lon="15.1727562"><ele>301.75</ele><time>2026-05-05T09:35:53.004Z</time></trkpt><trkpt lat="40.4617871" lon="15.1726017"><ele>300.0</ele><time>2026-05-05T09:35:54.002Z</time></trkpt><trkpt lat="40.4618022" lon="15.1724533"><ele>299.4</ele><time>2026-05-05T09:35:55.004Z</time></trkpt><trkpt lat="40.4618265" lon="15.1723142"><ele>298.8</ele><time>2026-05-05T09:35:56.004Z</time></trkpt><trkpt lat="40.4618534" lon="15.172182"><ele>298.2</ele><time>2026-05-05T09:35:57.004Z</time></trkpt><trkpt lat="40.461874" lon="15.1720666"><ele>297.6</ele><time>2026-05-05T09:35:58.004Z</time></trkpt><trkpt lat="40.4618894" lon="15.1719737"><ele>297.0</ele><time>2026-05-05T09:35:59.003Z</time></trkpt><trkpt lat="40.4619292" lon="15.1718604"><ele>297.0</ele><time>2026-05-05T09:36:01.002Z</time></trkpt><trkpt lat="40.4620168" lon="15.1718084"><ele>297.0</ele><time>2026-05-05T09:36:03.003Z</time></trkpt><trkpt lat="40.4621064" lon="15.1718024"><ele>297.0</ele><time>2026-05-05T09:36:05.004Z</time></trkpt><trkpt lat="40.4621964" lon="15.1717871"><ele>297.0</ele><time>2026-05-05T09:36:07.002Z</time></trkpt><trkpt lat="40.4622967" lon="15.1717606"><ele>297.0</ele><time>2026-05-05T09:36:09.003Z</time></trkpt><trkpt lat="40.4623843" lon="15.1717511"><ele>300.1666666666667</ele><time>2026-05-05T09:36:11.004Z</time></trkpt><trkpt lat="40.4624728" lon="15.1717379"><ele>303.3333333333333</ele><time>2026-05-05T09:36:13.002Z</time></trkpt><trkpt lat="40.4625401" lon="15.1717276"><ele>306.5</ele><time>2026-05-05T09:36:15.004Z</time></trkpt><trkpt lat="40.462609" lon="15.17174"><ele>309.66666666666663</ele><time>2026-05-05T09:36:17.003Z</time></trkpt><trkpt lat="40.4626366" lon="15.1718511"><ele>312.8333333333333</ele><time>2026-05-05T09:36:20.004Z</time></trkpt><trkpt lat="40.4626227" lon="15.1719559"><ele>316.0</ele><time>2026-05-05T09:36:22.004Z</time></trkpt><trkpt lat="40.4626201" lon="15.1720495"><ele>316.0</ele><time>2026-05-05T09:36:24.004Z</time></trkpt><trkpt lat="40.4626306" lon="15.1721675"><ele>316.0</ele><time>2026-05-05T09:36:26.004Z</time></trkpt><trkpt lat="40.4626494" lon="15.1723025"><ele>316.0</ele><time>2026-05-05T09:36:28.002Z</time></trkpt><trkpt lat="40.4626802" lon="15.1724519"><ele>316.0</ele><time>2026-05-05T09:36:30.003Z</time></trkpt><trkpt lat="40.4626709" lon="15.172611"><ele>316.0</ele><time>2026-05-05T09:36:32.004Z</time></trkpt><trkpt lat="40.4626605" lon="15.1727515"><ele>316.3333333333333</ele><time>2026-05-05T09:36:34.003Z</time></trkpt><trkpt lat="40.46267" lon="15.1728554"><ele>316.66666666666663</ele><time>2026-05-05T09:36:36.004Z</time></trkpt><trkpt lat="40.4627335" lon="15.1729041"><ele>317.0</ele><time>2026-05-05T09:36:38.004Z</time></trkpt><trkpt lat="40.4628366" lon="15.1729229"><ele>317.3333333333333</ele><time>2026-05-05T09:36:40.003Z</time></trkpt><trkpt lat="40.4629409" lon="15.1729243"><ele>317.6666666666667</ele><time>2026-05-05T09:36:42.003Z</time></trkpt><trkpt lat="40.4629993" lon="15.1729582"><ele>318.0</ele><time>2026-05-05T09:36:44.003Z</time></trkpt><trkpt lat="40.4630418" lon="15.1730537"><ele>321.6</ele><time>2026-05-05T09:36:46.004Z</time></trkpt><trkpt lat="40.463124" lon="15.1731099"><ele>325.20000000000005</ele><time>2026-05-05T09:36:48.003Z</time></trkpt><trkpt lat="40.463235" lon="15.1730838"><ele>328.8</ele><time>2026-05-05T09:36:50.004Z</time></trkpt><trkpt lat="40.4632989" lon="15.1730308"><ele>332.40000000000003</ele><time>2026-05-05T09:36:51.004Z</time></trkpt><trkpt lat="40.4633633" lon="15.1729598"><ele>336.0</ele><time>2026-05-05T09:36:52.002Z</time></trkpt><trkpt lat="40.4634248" lon="15.1728767"><ele>336.0</ele><time>2026-05-05T09:36:53.004Z</time></trkpt><trkpt lat="40.4634901" lon="15.1727869"><ele>336.0</ele><time>2026-05-05T09:36:54.004Z</time></trkpt><trkpt lat="40.4635609" lon="15.1726958"><ele>336.0</ele><time>2026-05-05T09:36:55.002Z</time></trkpt><trkpt lat="40.4636356" lon="15.1726056"><ele>336.0</ele><time>2026-05-05T09:36:56.004Z</time></trkpt><trkpt lat="40.4637121" lon="15.1725206"><ele>336.0</ele><time>2026-05-05T09:36:57.003Z</time></trkpt><trkpt lat="40.4637916" lon="15.1724447"><ele>338.1666666666667</ele><time>2026-05-05T09:36:58.004Z</time></trkpt><trkpt lat="40.4638768" lon="15.1723836"><ele>340.3333333333333</ele><time>2026-05-05T09:36:59.004Z</time></trkpt><trkpt lat="40.4639643" lon="15.1723366"><ele>342.5</ele><time>2026-05-05T09:37:00.004Z</time></trkpt><trkpt lat="40.464033" lon="15.172295"><ele>344.66666666666663</ele><time>2026-05-05T09:37:01.002Z</time></trkpt><trkpt lat="40.4640852" lon="15.1722429"><ele>346.8333333333333</ele><time>2026-05-05T09:37:02.004Z</time></trkpt><trkpt lat="40.4641771" lon="15.1722315"><ele>349.0</ele><time>2026-05-05T09:37:04.004Z</time></trkpt><trkpt lat="40.4642308" lon="15.1723704"><ele>349.3333333333333</ele><time>2026-05-05T09:37:06.003Z</time></trkpt><trkpt lat="40.4642509" lon="15.1724585"><ele>349.66666666666663</ele><time>2026-05-05T09:37:07.004Z</time></trkpt><trkpt lat="40.4642788" lon="15.1725475"><ele>350.0</ele><time>2026-05-05T09:37:08.004Z</time></trkpt><trkpt lat="40.4643091" lon="15.1726284"><ele>350.3333333333333</ele><time>2026-05-05T09:37:09.004Z</time></trkpt><trkpt lat="40.4643435" lon="15.1727067"><ele>350.6666666666667</ele><time>2026-05-05T09:37:10.002Z</time></trkpt><trkpt lat="40.4643831" lon="15.1727779"><ele>351.0</ele><time>2026-05-05T09:37:11.002Z</time></trkpt><trkpt lat="40.4644573" lon="15.1728966"><ele>351.0</ele><time>2026-05-05T09:37:13.004Z</time></trkpt><trkpt lat="40.4644774" lon="15.1730621"><ele>351.0</ele><time>2026-05-05T09:37:15.003Z</time></trkpt><trkpt lat="40.4644655" lon="15.1731671"><ele>351.0</ele><time>2026-05-05T09:37:16.004Z</time></trkpt><trkpt lat="40.4644536" lon="15.1732831"><ele>351.0</ele><time>2026-05-05T09:37:17.003Z</time></trkpt><trkpt lat="40.4644357" lon="15.1734026"><ele>351.0</ele><time>2026-05-05T09:37:18.003Z</time></trkpt><trkpt lat="40.4643985" lon="15.1735231"><ele>350.0</ele><time>2026-05-05T09:37:19.004Z</time></trkpt><trkpt lat="40.4643427" lon="15.1736452"><ele>349.0</ele><time>2026-05-05T09:37:20.003Z</time></trkpt><trkpt lat="40.4642808" lon="15.1737626"><ele>348.0</ele><time>2026-05-05T09:37:21.003Z</time></trkpt><trkpt lat="40.464216" lon="15.1738805"><ele>347.0</ele><time>2026-05-05T09:37:22.004Z</time></trkpt><trkpt lat="40.4641495" lon="15.1739986"><ele>346.0</ele><time>2026-05-05T09:37:23.003Z</time></trkpt><trkpt lat="40.4640859" lon="15.1741191"><ele>344.6</ele><time>2026-05-05T09:37:24.003Z</time></trkpt><trkpt lat="40.4640254" lon="15.1742419"><ele>343.20000000000005</ele><time>2026-05-05T09:37:25.003Z</time></trkpt><trkpt lat="40.4639711" lon="15.1743655"><ele>341.79999999999995</ele><time>2026-05-05T09:37:26.004Z</time></trkpt><trkpt lat="40.4639228" lon="15.1744909"><ele>340.4</ele><time>2026-05-05T09:37:27.004Z</time></trkpt><trkpt lat="40.4638895" lon="15.1746192"><ele>339.0</ele><time>2026-05-05T09:37:28.003Z</time></trkpt><trkpt lat="40.4638642" lon="15.1747386"><ele>339.0</ele><time>2026-05-05T09:37:29.003Z</time></trkpt><trkpt lat="40.4638446" lon="15.1748416"><ele>339.0</ele><time>2026-05-05T09:37:30.004Z</time></trkpt><trkpt lat="40.4638425" lon="15.17493"><ele>339.0</ele><time>2026-05-05T09:37:31.004Z</time></trkpt><trkpt lat="40.4639043" lon="15.1750602"><ele>339.0</ele><time>2026-05-05T09:37:33.004Z</time></trkpt><trkpt lat="40.4639629" lon="15.1751186"><ele>339.0</ele><time>2026-05-05T09:37:34.004Z</time></trkpt><trkpt lat="40.4640293" lon="15.1751763"><ele>339.0</ele><time>2026-05-05T09:37:35.004Z</time></trkpt><trkpt lat="40.4640898" lon="15.1752368"><ele>337.5</ele><time>2026-05-05T09:37:36.003Z</time></trkpt><trkpt lat="40.4641473" lon="15.1753"><ele>336.0</ele><time>2026-05-05T09:37:37.003Z</time></trkpt><trkpt lat="40.4641994" lon="15.175359"><ele>334.5</ele><time>2026-05-05T09:37:38.004Z</time></trkpt><trkpt lat="40.464253" lon="15.1754101"><ele>333.0</ele><time>2026-05-05T09:37:39.004Z</time></trkpt><trkpt lat="40.4643057" lon="15.1754625"><ele>331.5</ele><time>2026-05-05T09:37:40.004Z</time></trkpt><trkpt lat="40.4644045" lon="15.175564"><ele>330.0</ele><time>2026-05-05T09:37:42.004Z</time></trkpt><trkpt lat="40.4644697" lon="15.1755877"><ele>330.0</ele><time>2026-05-05T09:37:43.002Z</time></trkpt><trkpt lat="40.4645441" lon="15.1755866"><ele>330.0</ele><time>2026-05-05T09:37:44.004Z</time></trkpt><trkpt lat="40.4646235" lon="15.1755584"><ele>330.0</ele><time>2026-05-05T09:37:45.003Z</time></trkpt><trkpt lat="40.4647011" lon="15.1755154"><ele>330.0</ele><time>2026-05-05T09:37:46.004Z</time></trkpt><trkpt lat="40.464789" lon="15.1754737"><ele>330.0</ele><time>2026-05-05T09:37:47.004Z</time></trkpt><trkpt lat="40.4648846" lon="15.1754575"><ele>330.0</ele><time>2026-05-05T09:37:48.003Z</time></trkpt><trkpt lat="40.4649838" lon="15.1754615"><ele>330.0</ele><time>2026-05-05T09:37:49.004Z</time></trkpt><trkpt lat="40.4650697" lon="15.1754947"><ele>330.0</ele><time>2026-05-05T09:37:50.003Z</time></trkpt><trkpt lat="40.4651546" lon="15.1755587"><ele>330.0</ele><time>2026-05-05T09:37:51.003Z</time></trkpt><trkpt lat="40.4652366" lon="15.1756371"><ele>330.0</ele><time>2026-05-05T09:37:52.004Z</time></trkpt><trkpt lat="40.4652963" lon="15.1757383"><ele>330.0</ele><time>2026-05-05T09:37:53.004Z</time></trkpt><trkpt lat="40.4653332" lon="15.1758748"><ele>330.0</ele><time>2026-05-05T09:37:54.003Z</time></trkpt><trkpt lat="40.4653629" lon="15.1760352"><ele>330.0</ele><time>2026-05-05T09:37:55.004Z</time></trkpt><trkpt lat="40.4653988" lon="15.1762234"><ele>330.0</ele><time>2026-05-05T09:37:56.004Z</time></trkpt><trkpt lat="40.4654317" lon="15.1763928"><ele>330.0</ele><time>2026-05-05T09:37:57.004Z</time></trkpt><trkpt lat="40.4654613" lon="15.1765502"><ele>331.6</ele><time>2026-05-05T09:37:58.004Z</time></trkpt><trkpt lat="40.4654889" lon="15.1766937"><ele>333.2</ele><time>2026-05-05T09:37:59.003Z</time></trkpt><trkpt lat="40.4655193" lon="15.1768346"><ele>334.79999999999995</ele><time>2026-05-05T09:38:00.003Z</time></trkpt><trkpt lat="40.4655535" lon="15.1769719"><ele>336.4</ele><time>2026-05-05T09:38:01.003Z</time></trkpt><trkpt lat="40.4655791" lon="15.1770938"><ele>338.0</ele><time>2026-05-05T09:38:02.004Z</time></trkpt><trkpt lat="40.4656237" lon="15.1771883"><ele>338.0</ele><time>2026-05-05T09:38:03.003Z</time></trkpt><trkpt lat="40.4656835" lon="15.1772624"><ele>338.0</ele><time>2026-05-05T09:38:04.004Z</time></trkpt><trkpt lat="40.4657567" lon="15.1773253"><ele>338.0</ele><time>2026-05-05T09:38:05.003Z</time></trkpt><trkpt lat="40.4658264" lon="15.1773758"><ele>338.0</ele><time>2026-05-05T09:38:06.002Z</time></trkpt><trkpt lat="40.4658987" lon="15.1774177"><ele>338.0</ele><time>2026-05-05T09:38:07.004Z</time></trkpt><trkpt lat="40.4659755" lon="15.1774504"><ele>338.0</ele><time>2026-05-05T09:38:08.002Z</time></trkpt><trkpt lat="40.4660489" lon="15.1774917"><ele>335.83333333333337</ele><time>2026-05-05T09:38:09.003Z</time></trkpt><trkpt lat="40.4661211" lon="15.1775365"><ele>333.6666666666667</ele><time>2026-05-05T09:38:10.003Z</time></trkpt><trkpt lat="40.4661928" lon="15.1775933"><ele>331.5</ele><time>2026-05-05T09:38:11.004Z</time></trkpt><trkpt lat="40.4662629" lon="15.1776627"><ele>329.3333333333333</ele><time>2026-05-05T09:38:12.004Z</time></trkpt><trkpt lat="40.4663319" lon="15.1777273"><ele>327.16666666666663</ele><time>2026-05-05T09:38:13.003Z</time></trkpt><trkpt lat="40.4663974" lon="15.1778065"><ele>325.0</ele><time>2026-05-05T09:38:14.004Z</time></trkpt><trkpt lat="40.4664597" lon="15.1778907"><ele>324.16666666666663</ele><time>2026-05-05T09:38:15.003Z</time></trkpt><trkpt lat="40.4665138" lon="15.1779837"><ele>323.3333333333333</ele><time>2026-05-05T09:38:16.004Z</time></trkpt><trkpt lat="40.4665526" lon="15.1780618"><ele>322.5</ele><time>2026-05-05T09:38:17.004Z</time></trkpt><trkpt lat="40.4665991" lon="15.1781268"><ele>321.6666666666667</ele><time>2026-05-05T09:38:18.004Z</time></trkpt><trkpt lat="40.4666571" lon="15.1781848"><ele>320.83333333333337</ele><time>2026-05-05T09:38:19.003Z</time></trkpt><trkpt lat="40.4667117" lon="15.1782355"><ele>320.0</ele><time>2026-05-05T09:38:20.003Z</time></trkpt><trkpt lat="40.4668008" lon="15.1782483"><ele>320.0</ele><time>2026-05-05T09:38:22.004Z</time></trkpt><trkpt lat="40.4669013" lon="15.1781635"><ele>320.0</ele><time>2026-05-05T09:38:24.004Z</time></trkpt><trkpt lat="40.466954" lon="15.1781179"><ele>320.0</ele><time>2026-05-05T09:38:25.003Z</time></trkpt><trkpt lat="40.4670557" lon="15.1780795"><ele>320.0</ele><time>2026-05-05T09:38:27.004Z</time></trkpt><trkpt lat="40.4671536" lon="15.1781431"><ele>320.0</ele><time>2026-05-05T09:38:29.004Z</time></trkpt><trkpt lat="40.4672331" lon="15.1782586"><ele>315.8</ele><time>2026-05-05T09:38:31.003Z</time></trkpt><trkpt lat="40.4672691" lon="15.1783831"><ele>311.6</ele><time>2026-05-05T09:38:33.004Z</time></trkpt><trkpt lat="40.4672163" lon="15.1785105"><ele>307.4</ele><time>2026-05-05T09:38:35.003Z</time></trkpt><trkpt lat="40.467206" lon="15.1786028"><ele>303.2</ele><time>2026-05-05T09:38:36.003Z</time></trkpt><trkpt lat="40.4671999" lon="15.1787202"><ele>299.0</ele><time>2026-05-05T09:38:37.003Z</time></trkpt><trkpt lat="40.4671918" lon="15.1788342"><ele>299.0</ele><time>2026-05-05T09:38:38.004Z</time></trkpt><trkpt lat="40.4671749" lon="15.1789477"><ele>299.0</ele><time>2026-05-05T09:38:39.003Z</time></trkpt><trkpt lat="40.46715" lon="15.1790577"><ele>299.0</ele><time>2026-05-05T09:38:40.003Z</time></trkpt><trkpt lat="40.4671166" lon="15.1791669"><ele>299.0</ele><time>2026-05-05T09:38:41.003Z</time></trkpt><trkpt lat="40.4670732" lon="15.1792687"><ele>299.0</ele><time>2026-05-05T09:38:42.003Z</time></trkpt><trkpt lat="40.4670241" lon="15.1793617"><ele>299.0</ele><time>2026-05-05T09:38:43.004Z</time></trkpt><trkpt lat="40.4669658" lon="15.1794579"><ele>298.1666666666667</ele><time>2026-05-05T09:38:44.003Z</time></trkpt><trkpt lat="40.4669141" lon="15.1795505"><ele>297.33333333333337</ele><time>2026-05-05T09:38:45.003Z</time></trkpt><trkpt lat="40.4668643" lon="15.1796436"><ele>296.5</ele><time>2026-05-05T09:38:46.003Z</time></trkpt><trkpt lat="40.4668171" lon="15.1797335"><ele>295.6666666666667</ele><time>2026-05-05T09:38:47.003Z</time></trkpt><trkpt lat="40.4667905" lon="15.1798347"><ele>294.8333333333333</ele><time>2026-05-05T09:38:48.002Z</time></trkpt><trkpt lat="40.4667782" lon="15.1799555"><ele>294.0</ele><time>2026-05-05T09:38:49.003Z</time></trkpt><trkpt lat="40.4667705" lon="15.1800769"><ele>291.1666666666667</ele><time>2026-05-05T09:38:50.003Z</time></trkpt><trkpt lat="40.4667616" lon="15.1801922"><ele>288.3333333333333</ele><time>2026-05-05T09:38:51.003Z</time></trkpt><trkpt lat="40.4667549" lon="15.180302"><ele>285.5</ele><time>2026-05-05T09:38:52.003Z</time></trkpt><trkpt lat="40.466745" lon="15.1804079"><ele>282.66666666666663</ele><time>2026-05-05T09:38:53.002Z</time></trkpt><trkpt lat="40.4667518" lon="15.1805149"><ele>279.8333333333333</ele><time>2026-05-05T09:38:54.003Z</time></trkpt><trkpt lat="40.4667717" lon="15.1806149"><ele>277.0</ele><time>2026-05-05T09:38:55.002Z</time></trkpt><trkpt lat="40.466802" lon="15.1807202"><ele>275.5</ele><time>2026-05-05T09:38:56.003Z</time></trkpt><trkpt lat="40.4668311" lon="15.1808236"><ele>274.0</ele><time>2026-05-05T09:38:57.003Z</time></trkpt><trkpt lat="40.4668554" lon="15.1809239"><ele>272.5</ele><time>2026-05-05T09:38:58.003Z</time></trkpt><trkpt lat="40.466882" lon="15.1810197"><ele>271.0</ele><time>2026-05-05T09:38:59.002Z</time></trkpt><trkpt lat="40.4669083" lon="15.1811127"><ele>269.5</ele><time>2026-05-05T09:39:00.002Z</time></trkpt><trkpt lat="40.4669392" lon="15.1812031"><ele>268.0</ele><time>2026-05-05T09:39:01.003Z</time></trkpt><trkpt lat="40.4669568" lon="15.1812954"><ele>268.0</ele><time>2026-05-05T09:39:02.003Z</time></trkpt><trkpt lat="40.4669667" lon="15.1813789"><ele>268.0</ele><time>2026-05-05T09:39:03.002Z</time></trkpt><trkpt lat="40.4669925" lon="15.1814611"><ele>268.0</ele><time>2026-05-05T09:39:04.003Z</time></trkpt><trkpt lat="40.4670287" lon="15.1815448"><ele>268.0</ele><time>2026-05-05T09:39:05.003Z</time></trkpt><trkpt lat="40.4670593" lon="15.1816456"><ele>268.0</ele><time>2026-05-05T09:39:06.003Z</time></trkpt><trkpt lat="40.4670795" lon="15.1817645"><ele>268.0</ele><time>2026-05-05T09:39:07.002Z</time></trkpt><trkpt lat="40.4670964" lon="15.1818918"><ele>268.0</ele><time>2026-05-05T09:39:08.002Z</time></trkpt><trkpt lat="40.4671166" lon="15.1820231"><ele>268.0</ele><time>2026-05-05T09:39:09.003Z</time></trkpt><trkpt lat="40.4671328" lon="15.1821433"><ele>268.0</ele><time>2026-05-05T09:39:10.002Z</time></trkpt><trkpt lat="40.4671478" lon="15.1822565"><ele>268.0</ele><time>2026-05-05T09:39:11.001Z</time></trkpt><trkpt lat="40.4671645" lon="15.1823696"><ele>268.0</ele><time>2026-05-05T09:39:12.002Z</time></trkpt><trkpt lat="40.4671804" lon="15.1824776"><ele>267.16666666666663</ele><time>2026-05-05T09:39:13.003Z</time></trkpt><trkpt lat="40.4671957" lon="15.1825818"><ele>266.3333333333333</ele><time>2026-05-05T09:39:14.002Z</time></trkpt><trkpt lat="40.4672138" lon="15.1826807"><ele>265.5</ele><time>2026-05-05T09:39:15.003Z</time></trkpt><trkpt lat="40.4672294" lon="15.182787"><ele>264.6666666666667</ele><time>2026-05-05T09:39:16.002Z</time></trkpt><trkpt lat="40.4672454" lon="15.1828986"><ele>263.83333333333337</ele><time>2026-05-05T09:39:17.003Z</time></trkpt><trkpt lat="40.4672597" lon="15.1830053"><ele>263.0</ele><time>2026-05-05T09:39:18.003Z</time></trkpt><trkpt lat="40.4672763" lon="15.1831096"><ele>263.0</ele><time>2026-05-05T09:39:19.003Z</time></trkpt><trkpt lat="40.4672903" lon="15.1832055"><ele>263.0</ele><time>2026-05-05T09:39:20.003Z</time></trkpt><trkpt lat="40.4673023" lon="15.1832899"><ele>263.0</ele><time>2026-05-05T09:39:21.002Z</time></trkpt><trkpt lat="40.467377" lon="15.1833567"><ele>263.0</ele><time>2026-05-05T09:39:23.003Z</time></trkpt><trkpt lat="40.4674875" lon="15.1832935"><ele>263.0</ele><time>2026-05-05T09:39:25.002Z</time></trkpt><trkpt lat="40.4675596" lon="15.1832301"><ele>263.0</ele><time>2026-05-05T09:39:26.002Z</time></trkpt><trkpt lat="40.4676431" lon="15.1831571"><ele>263.0</ele><time>2026-05-05T09:39:27.003Z</time></trkpt><trkpt lat="40.4677436" lon="15.1830932"><ele>263.0</ele><time>2026-05-05T09:39:28.003Z</time></trkpt><trkpt lat="40.4678508" lon="15.183075"><ele>263.0</ele><time>2026-05-05T09:39:29.003Z</time></trkpt><trkpt lat="40.4679605" lon="15.183078"><ele>263.0</ele><time>2026-05-05T09:39:30.002Z</time></trkpt><trkpt lat="40.4680702" lon="15.1831073"><ele>263.0</ele><time>2026-05-05T09:39:31.003Z</time></trkpt><trkpt lat="40.4681729" lon="15.1831707"><ele>265.33333333333337</ele><time>2026-05-05T09:39:32.003Z</time></trkpt><trkpt lat="40.4682613" lon="15.183252"><ele>267.6666666666667</ele><time>2026-05-05T09:39:33.003Z</time></trkpt><trkpt lat="40.4683306" lon="15.1833175"><ele>270.0</ele><time>2026-05-05T09:39:34.002Z</time></trkpt><trkpt lat="40.4684" lon="15.1833455"><ele>272.3333333333333</ele><time>2026-05-05T09:39:35.002Z</time></trkpt><trkpt lat="40.4684825" lon="15.1833576"><ele>274.66666666666663</ele><time>2026-05-05T09:39:36.003Z</time></trkpt><trkpt lat="40.4685591" lon="15.1833473"><ele>277.0</ele><time>2026-05-05T09:39:37.003Z</time></trkpt><trkpt lat="40.4686477" lon="15.1833414"><ele>277.0</ele><time>2026-05-05T09:39:38.003Z</time></trkpt><trkpt lat="40.4687336" lon="15.1833346"><ele>277.0</ele><time>2026-05-05T09:39:39.003Z</time></trkpt><trkpt lat="40.4688199" lon="15.1833216"><ele>277.0</ele><time>2026-05-05T09:39:40.003Z</time></trkpt><trkpt lat="40.4689009" lon="15.1833087"><ele>277.0</ele><time>2026-05-05T09:39:41.003Z</time></trkpt><trkpt lat="40.4689709" lon="15.1833136"><ele>277.0</ele><time>2026-05-05T09:39:42.003Z</time></trkpt><trkpt lat="40.4690568" lon="15.1833724"><ele>277.0</ele><time>2026-05-05T09:39:44.001Z</time></trkpt><trkpt lat="40.4690388" lon="15.1834764"><ele>281.2</ele><time>2026-05-05T09:39:46.002Z</time></trkpt><trkpt lat="40.4690017" lon="15.1835984"><ele>285.4</ele><time>2026-05-05T09:39:48.001Z</time></trkpt><trkpt lat="40.4690298" lon="15.1837169"><ele>289.6</ele><time>2026-05-05T09:39:50.003Z</time></trkpt><trkpt lat="40.4691184" lon="15.1837593"><ele>293.8</ele><time>2026-05-05T09:39:52.003Z</time></trkpt><trkpt lat="40.4692413" lon="15.1838008"><ele>298.0</ele><time>2026-05-05T09:39:54.003Z</time></trkpt><trkpt lat="40.4693048" lon="15.1838285"><ele>298.0</ele><time>2026-05-05T09:39:55.003Z</time></trkpt><trkpt lat="40.4693739" lon="15.1838547"><ele>298.0</ele><time>2026-05-05T09:39:56.002Z</time></trkpt><trkpt lat="40.4694413" lon="15.1838788"><ele>298.0</ele><time>2026-05-05T09:39:57.002Z</time></trkpt><trkpt lat="40.4695097" lon="15.1839053"><ele>298.0</ele><time>2026-05-05T09:39:58.002Z</time></trkpt><trkpt lat="40.4695802" lon="15.1839303"><ele>298.0</ele><time>2026-05-05T09:39:59.003Z</time></trkpt><trkpt lat="40.4696497" lon="15.1839552"><ele>298.0</ele><time>2026-05-05T09:40:00.003Z</time></trkpt><trkpt lat="40.4697154" lon="15.183977"><ele>298.0</ele><time>2026-05-05T09:40:01.002Z</time></trkpt><trkpt lat="40.4698234" lon="15.1840278"><ele>302.6</ele><time>2026-05-05T09:40:03.003Z</time></trkpt><trkpt lat="40.4699257" lon="15.1840337"><ele>307.20000000000005</ele><time>2026-05-05T09:40:05.002Z</time></trkpt><trkpt lat="40.4700564" lon="15.1839955"><ele>311.8</ele><time>2026-05-05T09:40:07.002Z</time></trkpt><trkpt lat="40.4701361" lon="15.1839536"><ele>316.40000000000003</ele><time>2026-05-05T09:40:08.003Z</time></trkpt><trkpt lat="40.4702205" lon="15.1838979"><ele>321.0</ele><time>2026-05-05T09:40:09.003Z</time></trkpt><trkpt lat="40.4703178" lon="15.1838554"><ele>321.0</ele><time>2026-05-05T09:40:10.003Z</time></trkpt><trkpt lat="40.4704055" lon="15.1838272"><ele>321.0</ele><time>2026-05-05T09:40:11.003Z</time></trkpt><trkpt lat="40.4704877" lon="15.1837856"><ele>321.0</ele><time>2026-05-05T09:40:12.001Z</time></trkpt><trkpt lat="40.4705586" lon="15.1837447"><ele>321.0</ele><time>2026-05-05T09:40:13.003Z</time></trkpt><trkpt lat="40.4706074" lon="15.1836775"><ele>321.0</ele><time>2026-05-05T09:40:14.002Z</time></trkpt><trkpt lat="40.470638" lon="15.1835516"><ele>321.0</ele><time>2026-05-05T09:40:15.003Z</time></trkpt><trkpt lat="40.4707023" lon="15.18352"><ele>324.0</ele><time>2026-05-05T09:40:16.003Z</time></trkpt><trkpt lat="40.4707805" lon="15.1834883"><ele>327.0</ele><time>2026-05-05T09:40:17.003Z</time></trkpt><trkpt lat="40.4708755" lon="15.1834765"><ele>330.0</ele><time>2026-05-05T09:40:19.002Z</time></trkpt><trkpt lat="40.4708967" lon="15.183574"><ele>333.0</ele><time>2026-05-05T09:40:21.003Z</time></trkpt><trkpt lat="40.4708954" lon="15.183676"><ele>336.0</ele><time>2026-05-05T09:40:22.003Z</time></trkpt><trkpt lat="40.4709023" lon="15.1838039"><ele>339.0</ele><time>2026-05-05T09:40:23.003Z</time></trkpt><trkpt lat="40.470897" lon="15.1839368"><ele>339.4</ele><time>2026-05-05T09:40:24.002Z</time></trkpt><trkpt lat="40.4708754" lon="15.1840527"><ele>339.79999999999995</ele><time>2026-05-05T09:40:25.001Z</time></trkpt><trkpt lat="40.4708507" lon="15.1841867"><ele>340.20000000000005</ele><time>2026-05-05T09:40:26.002Z</time></trkpt><trkpt lat="40.4708409" lon="15.1843171"><ele>340.6</ele><time>2026-05-05T09:40:27.003Z</time></trkpt><trkpt lat="40.4708509" lon="15.1844403"><ele>341.0</ele><time>2026-05-05T09:40:28.002Z</time></trkpt><trkpt lat="40.4708497" lon="15.1845589"><ele>341.0</ele><time>2026-05-05T09:40:29.002Z</time></trkpt><trkpt lat="40.4708328" lon="15.1846754"><ele>341.0</ele><time>2026-05-05T09:40:30.002Z</time></trkpt><trkpt lat="40.4708141" lon="15.18479"><ele>341.0</ele><time>2026-05-05T09:40:31.002Z</time></trkpt><trkpt lat="40.4708012" lon="15.1849115"><ele>341.0</ele><time>2026-05-05T09:40:32.002Z</time></trkpt><trkpt lat="40.4707989" lon="15.1850396"><ele>341.0</ele><time>2026-05-05T09:40:33.003Z</time></trkpt><trkpt lat="40.4708032" lon="15.1851715"><ele>340.20000000000005</ele><time>2026-05-05T09:40:34.002Z</time></trkpt><trkpt lat="40.4708038" lon="15.1853084"><ele>339.40000000000003</ele><time>2026-05-05T09:40:35.003Z</time></trkpt><trkpt lat="40.4708067" lon="15.1854425"><ele>338.6</ele><time>2026-05-05T09:40:36.003Z</time></trkpt><trkpt lat="40.4708138" lon="15.1855716"><ele>337.8</ele><time>2026-05-05T09:40:37.003Z</time></trkpt><trkpt lat="40.4708292" lon="15.1856983"><ele>337.0</ele><time>2026-05-05T09:40:38.003Z</time></trkpt><trkpt lat="40.4708737" lon="15.1858201"><ele>335.20000000000005</ele><time>2026-05-05T09:40:39.002Z</time></trkpt><trkpt lat="40.4709158" lon="15.1859378"><ele>333.4</ele><time>2026-05-05T09:40:40.003Z</time></trkpt><trkpt lat="40.4709532" lon="15.1860648"><ele>331.6</ele><time>2026-05-05T09:40:41.003Z</time></trkpt><trkpt lat="40.4709953" lon="15.1861928"><ele>329.79999999999995</ele><time>2026-05-05T09:40:42.003Z</time></trkpt><trkpt lat="40.4710568" lon="15.1863099"><ele>328.0</ele><time>2026-05-05T09:40:43.003Z</time></trkpt><trkpt lat="40.4711155" lon="15.1864217"><ele>326.59999999999997</ele><time>2026-05-05T09:40:44.003Z</time></trkpt><trkpt lat="40.4711725" lon="15.1865466"><ele>325.2</ele><time>2026-05-05T09:40:45.003Z</time></trkpt><trkpt lat="40.4712352" lon="15.1866631"><ele>323.8</ele><time>2026-05-05T09:40:46.001Z</time></trkpt><trkpt lat="40.4713157" lon="15.1867688"><ele>322.4</ele><time>2026-05-05T09:40:47.003Z</time></trkpt><trkpt lat="40.4713775" lon="15.1868706"><ele>321.0</ele><time>2026-05-05T09:40:48.003Z</time></trkpt><trkpt lat="40.4714292" lon="15.1869806"><ele>318.8</ele><time>2026-05-05T09:40:49.003Z</time></trkpt><trkpt lat="40.4714668" lon="15.1870802"><ele>316.6</ele><time>2026-05-05T09:40:50.003Z</time></trkpt><trkpt lat="40.4715071" lon="15.1871829"><ele>314.4</ele><time>2026-05-05T09:40:51.003Z</time></trkpt><trkpt lat="40.471538" lon="15.187301"><ele>312.2</ele><time>2026-05-05T09:40:52.002Z</time></trkpt><trkpt lat="40.4715788" lon="15.1874197"><ele>310.0</ele><time>2026-05-05T09:40:53.003Z</time></trkpt><trkpt lat="40.4716308" lon="15.1875209"><ele>310.0</ele><time>2026-05-05T09:40:54.002Z</time></trkpt><trkpt lat="40.4716584" lon="15.1876473"><ele>310.0</ele><time>2026-05-05T09:40:55.003Z</time></trkpt><trkpt lat="40.471673" lon="15.1877744"><ele>310.0</ele><time>2026-05-05T09:40:56.003Z</time></trkpt><trkpt lat="40.4716878" lon="15.1878885"><ele>310.0</ele><time>2026-05-05T09:40:57.003Z</time></trkpt><trkpt lat="40.4716745" lon="15.1879945"><ele>310.0</ele><time>2026-05-05T09:40:58.002Z</time></trkpt><trkpt lat="40.4716424" lon="15.1880984"><ele>308.0</ele><time>2026-05-05T09:40:59.002Z</time></trkpt><trkpt lat="40.4715936" lon="15.1881973"><ele>306.0</ele><time>2026-05-05T09:41:00.002Z</time></trkpt><trkpt lat="40.4715366" lon="15.188299"><ele>304.0</ele><time>2026-05-05T09:41:01.002Z</time></trkpt><trkpt lat="40.4714856" lon="15.1884049"><ele>302.0</ele><time>2026-05-05T09:41:02.003Z</time></trkpt><trkpt lat="40.4714437" lon="15.1885218"><ele>300.0</ele><time>2026-05-05T09:41:03.003Z</time></trkpt><trkpt lat="40.4714139" lon="15.1886493"><ele>300.0</ele><time>2026-05-05T09:41:04.002Z</time></trkpt><trkpt lat="40.4713962" lon="15.1887714"><ele>300.0</ele><time>2026-05-05T09:41:05.002Z</time></trkpt><trkpt lat="40.4713758" lon="15.1889031"><ele>300.0</ele><time>2026-05-05T09:41:06.003Z</time></trkpt><trkpt lat="40.4713564" lon="15.189044"><ele>300.0</ele><time>2026-05-05T09:41:07.003Z</time></trkpt><trkpt lat="40.471331" lon="15.1891858"><ele>300.0</ele><time>2026-05-05T09:41:08.003Z</time></trkpt><trkpt lat="40.4712936" lon="15.1893209"><ele>297.25</ele><time>2026-05-05T09:41:09.002Z</time></trkpt><trkpt lat="40.4712305" lon="15.1894769"><ele>294.5</ele><time>2026-05-05T09:41:10.002Z</time></trkpt><trkpt lat="40.4711642" lon="15.1896261"><ele>291.75</ele><time>2026-05-05T09:41:11.003Z</time></trkpt><trkpt lat="40.4710927" lon="15.1897558"><ele>289.0</ele><time>2026-05-05T09:41:12.003Z</time></trkpt><trkpt lat="40.4710158" lon="15.1898691"><ele>287.8333333333333</ele><time>2026-05-05T09:41:13.003Z</time></trkpt><trkpt lat="40.4709421" lon="15.1899593"><ele>286.66666666666663</ele><time>2026-05-05T09:41:14.002Z</time></trkpt><trkpt lat="40.4708629" lon="15.1900205"><ele>285.5</ele><time>2026-05-05T09:41:15.003Z</time></trkpt><trkpt lat="40.4707888" lon="15.1900577"><ele>284.3333333333333</ele><time>2026-05-05T09:41:16.002Z</time></trkpt><trkpt lat="40.470711" lon="15.1900744"><ele>283.1666666666667</ele><time>2026-05-05T09:41:17.003Z</time></trkpt><trkpt lat="40.4706268" lon="15.1900712"><ele>282.0</ele><time>2026-05-05T09:41:18.003Z</time></trkpt><trkpt lat="40.4705509" lon="15.1900801"><ele>282.0</ele><time>2026-05-05T09:41:19.003Z</time></trkpt><trkpt lat="40.4704964" lon="15.1901233"><ele>282.0</ele><time>2026-05-05T09:41:20.002Z</time></trkpt><trkpt lat="40.4704524" lon="15.1902041"><ele>282.0</ele><time>2026-05-05T09:41:21.002Z</time></trkpt><trkpt lat="40.4704168" lon="15.1903149"><ele>282.0</ele><time>2026-05-05T09:41:22.002Z</time></trkpt><trkpt lat="40.4703737" lon="15.1904417"><ele>282.0</ele><time>2026-05-05T09:41:23.003Z</time></trkpt><trkpt lat="40.4703283" lon="15.1905829"><ele>279.75</ele><time>2026-05-05T09:41:24.003Z</time></trkpt><trkpt lat="40.4702848" lon="15.1907421"><ele>277.5</ele><time>2026-05-05T09:41:25.003Z</time></trkpt><trkpt lat="40.4702391" lon="15.1909104"><ele>275.25</ele><time>2026-05-05T09:41:26.003Z</time></trkpt><trkpt lat="40.4701933" lon="15.191086"><ele>273.0</ele><time>2026-05-05T09:41:27.003Z</time></trkpt><trkpt lat="40.4701315" lon="15.1912526"><ele>273.0</ele><time>2026-05-05T09:41:28.002Z</time></trkpt><trkpt lat="40.4700512" lon="15.1914052"><ele>273.0</ele><time>2026-05-05T09:41:29.002Z</time></trkpt><trkpt lat="40.469966" lon="15.1915559"><ele>273.0</ele><time>2026-05-05T09:41:30.002Z</time></trkpt><trkpt lat="40.4698935" lon="15.191702"><ele>273.0</ele><time>2026-05-05T09:41:31.003Z</time></trkpt><trkpt lat="40.4698275" lon="15.1918459"><ele>272.75</ele><time>2026-05-05T09:41:32.003Z</time></trkpt><trkpt lat="40.4697593" lon="15.1919863"><ele>272.5</ele><time>2026-05-05T09:41:33.003Z</time></trkpt><trkpt lat="40.469683" lon="15.192118"><ele>272.25</ele><time>2026-05-05T09:41:34.003Z</time></trkpt><trkpt lat="40.4696066" lon="15.1922338"><ele>272.0</ele><time>2026-05-05T09:41:35.002Z</time></trkpt><trkpt lat="40.4695364" lon="15.1923342"><ele>273.0</ele><time>2026-05-05T09:41:36.002Z</time></trkpt><trkpt lat="40.4694538" lon="15.192405"><ele>274.0</ele><time>2026-05-05T09:41:37.002Z</time></trkpt><trkpt lat="40.4693653" lon="15.192443"><ele>275.0</ele><time>2026-05-05T09:41:38.002Z</time></trkpt><trkpt lat="40.4692737" lon="15.1924712"><ele>276.0</ele><time>2026-05-05T09:41:39.002Z</time></trkpt><trkpt lat="40.4691882" lon="15.1924985"><ele>277.0</ele><time>2026-05-05T09:41:40.002Z</time></trkpt><trkpt lat="40.4691033" lon="15.1925284"><ele>277.0</ele><time>2026-05-05T09:41:41.002Z</time></trkpt><trkpt lat="40.4690204" lon="15.1925447"><ele>277.0</ele><time>2026-05-05T09:41:42.003Z</time></trkpt><trkpt lat="40.4689461" lon="15.1925813"><ele>277.0</ele><time>2026-05-05T09:41:43.002Z</time></trkpt><trkpt lat="40.4688969" lon="15.192658"><ele>277.0</ele><time>2026-05-05T09:41:44.002Z</time></trkpt><trkpt lat="40.4688758" lon="15.1927668"><ele>277.0</ele><time>2026-05-05T09:41:45.002Z</time></trkpt><trkpt lat="40.4688709" lon="15.1928905"><ele>277.0</ele><time>2026-05-05T09:41:46.002Z</time></trkpt><trkpt lat="40.4688801" lon="15.1930238"><ele>277.0</ele><time>2026-05-05T09:41:47.002Z</time></trkpt><trkpt lat="40.4689008" lon="15.1931586"><ele>277.0</ele><time>2026-05-05T09:41:48.003Z</time></trkpt><trkpt lat="40.4689342" lon="15.1932912"><ele>277.0</ele><time>2026-05-05T09:41:49.003Z</time></trkpt><trkpt lat="40.468995" lon="15.1934093"><ele>277.0</ele><time>2026-05-05T09:41:50.003Z</time></trkpt><trkpt lat="40.469072" lon="15.1935121"><ele>277.0</ele><time>2026-05-05T09:41:51.002Z</time></trkpt><trkpt lat="40.4691502" lon="15.1936109"><ele>274.4</ele><time>2026-05-05T09:41:52.002Z</time></trkpt><trkpt lat="40.4692293" lon="15.1937057"><ele>271.79999999999995</ele><time>2026-05-05T09:41:53.002Z</time></trkpt><trkpt lat="40.4693078" lon="15.1937986"><ele>269.2</ele><time>2026-05-05T09:41:54.002Z</time></trkpt><trkpt lat="40.4693831" lon="15.1938925"><ele>266.59999999999997</ele><time>2026-05-05T09:41:55.003Z</time></trkpt><trkpt lat="40.4694577" lon="15.1939857"><ele>264.0</ele><time>2026-05-05T09:41:56.002Z</time></trkpt><trkpt lat="40.469533" lon="15.1940806"><ele>261.0</ele><time>2026-05-05T09:41:57.003Z</time></trkpt><trkpt lat="40.4696092" lon="15.1941755"><ele>258.0</ele><time>2026-05-05T09:41:58.002Z</time></trkpt><trkpt lat="40.4696794" lon="15.1942532"><ele>255.0</ele><time>2026-05-05T09:41:59.002Z</time></trkpt><trkpt lat="40.4697312" lon="15.1943185"><ele>252.0</ele><time>2026-05-05T09:42:00.002Z</time></trkpt><trkpt lat="40.4697645" lon="15.1944141"><ele>249.0</ele><time>2026-05-05T09:42:02.003Z</time></trkpt><trkpt lat="40.4696945" lon="15.1944753"><ele>246.0</ele><time>2026-05-05T09:42:04.003Z</time></trkpt><trkpt lat="40.4696217" lon="15.194499"><ele>246.5</ele><time>2026-05-05T09:42:05.002Z</time></trkpt><trkpt lat="40.4695438" lon="15.1945102"><ele>247.0</ele><time>2026-05-05T09:42:06.003Z</time></trkpt><trkpt lat="40.4694728" lon="15.1944927"><ele>247.5</ele><time>2026-05-05T09:42:07.003Z</time></trkpt><trkpt lat="40.4694001" lon="15.1944505"><ele>248.0</ele><time>2026-05-05T09:42:08.002Z</time></trkpt><trkpt lat="40.4693239" lon="15.1944003"><ele>248.5</ele><time>2026-05-05T09:42:09.001Z</time></trkpt><trkpt lat="40.4692481" lon="15.1943667"><ele>249.0</ele><time>2026-05-05T09:42:10.003Z</time></trkpt><trkpt lat="40.4691748" lon="15.194362"><ele>249.0</ele><time>2026-05-05T09:42:11.003Z</time></trkpt><trkpt lat="40.4690897" lon="15.194383"><ele>248.99999999999997</ele><time>2026-05-05T09:42:12.002Z</time></trkpt><trkpt lat="40.4689964" lon="15.194408"><ele>248.99999999999997</ele><time>2026-05-05T09:42:13.003Z</time></trkpt><trkpt lat="40.468904" lon="15.194436"><ele>249.0</ele><time>2026-05-05T09:42:14.001Z</time></trkpt><trkpt lat="40.4688086" lon="15.1944655"><ele>249.0</ele><time>2026-05-05T09:42:15.003Z</time></trkpt><trkpt lat="40.4687191" lon="15.1944942"><ele>247.0</ele><time>2026-05-05T09:42:16.002Z</time></trkpt><trkpt lat="40.4686296" lon="15.1945233"><ele>245.0</ele><time>2026-05-05T09:42:17.003Z</time></trkpt><trkpt lat="40.4685398" lon="15.1945515"><ele>243.0</ele><time>2026-05-05T09:42:18.002Z</time></trkpt><trkpt lat="40.4684542" lon="15.1945777"><ele>241.0</ele><time>2026-05-05T09:42:19.003Z</time></trkpt><trkpt lat="40.4683719" lon="15.1945991"><ele>239.0</ele><time>2026-05-05T09:42:20.002Z</time></trkpt><trkpt lat="40.4682962" lon="15.1945978"><ele>237.0</ele><time>2026-05-05T09:42:21.002Z</time></trkpt><trkpt lat="40.4682274" lon="15.1945593"><ele>236.99999999999997</ele><time>2026-05-05T09:42:22.003Z</time></trkpt><trkpt lat="40.4681533" lon="15.1945214"><ele>237.0</ele><time>2026-05-05T09:42:23.001Z</time></trkpt><trkpt lat="40.4681239" lon="15.1944248"><ele>236.99999999999997</ele><time>2026-05-05T09:42:24.002Z</time></trkpt><trkpt lat="40.4681" lon="15.1943331"><ele>236.99999999999997</ele><time>2026-05-05T09:42:25.002Z</time></trkpt><trkpt lat="40.468066" lon="15.1942461"><ele>237.0</ele><time>2026-05-05T09:42:26.003Z</time></trkpt><trkpt lat="40.4680115" lon="15.1942023"><ele>236.99999999999997</ele><time>2026-05-05T09:42:27.002Z</time></trkpt><trkpt lat="40.46794" lon="15.194188"><ele>236.99999999999997</ele><time>2026-05-05T09:42:29.002Z</time></trkpt><trkpt lat="40.4678993" lon="15.1942732"><ele>234.0</ele><time>2026-05-05T09:42:31.002Z</time></trkpt><trkpt lat="40.4679194" lon="15.1943758"><ele>231.0</ele><time>2026-05-05T09:42:32.003Z</time></trkpt><trkpt lat="40.4679198" lon="15.1944864"><ele>228.0</ele><time>2026-05-05T09:42:33.002Z</time></trkpt><trkpt lat="40.4679173" lon="15.1945912"><ele>225.0</ele><time>2026-05-05T09:42:34.003Z</time></trkpt><trkpt lat="40.467915" lon="15.1946963"><ele>222.0</ele><time>2026-05-05T09:42:35.002Z</time></trkpt><trkpt lat="40.4678576" lon="15.194809"><ele>219.0</ele><time>2026-05-05T09:42:37.003Z</time></trkpt><trkpt lat="40.4677685" lon="15.1948217"><ele>219.0</ele><time>2026-05-05T09:42:39.002Z</time></trkpt><trkpt lat="40.4677049" lon="15.1948203"><ele>219.0</ele><time>2026-05-05T09:42:40.002Z</time></trkpt><trkpt lat="40.4676098" lon="15.1947188"><ele>219.0</ele><time>2026-05-05T09:42:41.002Z</time></trkpt><trkpt lat="40.4675525" lon="15.1946791"><ele>219.0</ele><time>2026-05-05T09:42:42.001Z</time></trkpt><trkpt lat="40.46748" lon="15.1946704"><ele>219.0</ele><time>2026-05-05T09:42:43.002Z</time></trkpt><trkpt lat="40.4674015" lon="15.1946624"><ele>219.0</ele><time>2026-05-05T09:42:44.003Z</time></trkpt><trkpt lat="40.4673075" lon="15.1947054"><ele>219.0</ele><time>2026-05-05T09:42:45.002Z</time></trkpt><trkpt lat="40.4672152" lon="15.1947355"><ele>219.0</ele><time>2026-05-05T09:42:46.002Z</time></trkpt><trkpt lat="40.4671242" lon="15.1947808"><ele>219.0</ele><time>2026-05-05T09:42:47.003Z</time></trkpt><trkpt lat="40.4670382" lon="15.1948134"><ele>219.0</ele><time>2026-05-05T09:42:48.003Z</time></trkpt><trkpt lat="40.46696" lon="15.1948455"><ele>219.0</ele><time>2026-05-05T09:42:49.003Z</time></trkpt><trkpt lat="40.4668787" lon="15.1948742"><ele>219.0</ele><time>2026-05-05T09:42:50.003Z</time></trkpt><trkpt lat="40.4668002" lon="15.1949057"><ele>215.5</ele><time>2026-05-05T09:42:51.002Z</time></trkpt><trkpt lat="40.4667172" lon="15.1949443"><ele>212.0</ele><time>2026-05-05T09:42:52.002Z</time></trkpt><trkpt lat="40.4666345" lon="15.1949953"><ele>208.5</ele><time>2026-05-05T09:42:53.002Z</time></trkpt><trkpt lat="40.4665593" lon="15.1950453"><ele>205.0</ele><time>2026-05-05T09:42:54.003Z</time></trkpt><trkpt lat="40.4665101" lon="15.1951045"><ele>201.5</ele><time>2026-05-05T09:42:55.003Z</time></trkpt><trkpt lat="40.4664572" lon="15.1951703"><ele>198.0</ele><time>2026-05-05T09:42:56.003Z</time></trkpt><trkpt lat="40.4664057" lon="15.1952454"><ele>198.0</ele><time>2026-05-05T09:42:57.003Z</time></trkpt><trkpt lat="40.4663469" lon="15.1953212"><ele>198.0</ele><time>2026-05-05T09:42:58.002Z</time></trkpt><trkpt lat="40.4662876" lon="15.1954002"><ele>198.0</ele><time>2026-05-05T09:42:59.002Z</time></trkpt><trkpt lat="40.4662267" lon="15.1954742"><ele>198.0</ele><time>2026-05-05T09:43:00.003Z</time></trkpt><trkpt lat="40.4661123" lon="15.1955118"><ele>198.0</ele><time>2026-05-05T09:43:02.003Z</time></trkpt><trkpt lat="40.4659797" lon="15.1955188"><ele>195.8</ele><time>2026-05-05T09:43:04.002Z</time></trkpt><trkpt lat="40.465886" lon="15.1955639"><ele>193.60000000000002</ele><time>2026-05-05T09:43:05.003Z</time></trkpt><trkpt lat="40.4657723" lon="15.1956288"><ele>191.39999999999998</ele><time>2026-05-05T09:43:06.003Z</time></trkpt><trkpt lat="40.4656712" lon="15.1956838"><ele>189.2</ele><time>2026-05-05T09:43:07.003Z</time></trkpt><trkpt lat="40.4655712" lon="15.1957353"><ele>187.0</ele><time>2026-05-05T09:43:08.002Z</time></trkpt><trkpt lat="40.4654753" lon="15.195787"><ele>184.16666666666669</ele><time>2026-05-05T09:43:09.002Z</time></trkpt><trkpt lat="40.4653908" lon="15.1958341"><ele>181.33333333333334</ele><time>2026-05-05T09:43:10.002Z</time></trkpt><trkpt lat="40.4653076" lon="15.1958824"><ele>178.5</ele><time>2026-05-05T09:43:11.002Z</time></trkpt><trkpt lat="40.4652291" lon="15.1959223"><ele>175.66666666666666</ele><time>2026-05-05T09:43:12.003Z</time></trkpt><trkpt lat="40.4651476" lon="15.1959671"><ele>172.83333333333331</ele><time>2026-05-05T09:43:13.002Z</time></trkpt><trkpt lat="40.4650682" lon="15.1960159"><ele>170.0</ele><time>2026-05-05T09:43:14.001Z</time></trkpt><trkpt lat="40.4649914" lon="15.1960612"><ele>170.0</ele><time>2026-05-05T09:43:15.003Z</time></trkpt><trkpt lat="40.4649155" lon="15.1961027"><ele>170.0</ele><time>2026-05-05T09:43:16.002Z</time></trkpt><trkpt lat="40.4648418" lon="15.1961354"><ele>170.0</ele><time>2026-05-05T09:43:17.002Z</time></trkpt><trkpt lat="40.464768" lon="15.1961623"><ele>170.0</ele><time>2026-05-05T09:43:18.002Z</time></trkpt><trkpt lat="40.464694" lon="15.1961951"><ele>170.0</ele><time>2026-05-05T09:43:19.003Z</time></trkpt><trkpt lat="40.4646155" lon="15.1962255"><ele>170.0</ele><time>2026-05-05T09:43:20.003Z</time></trkpt><trkpt lat="40.4645279" lon="15.196231"><ele>167.0</ele><time>2026-05-05T09:43:21.003Z</time></trkpt><trkpt lat="40.4644377" lon="15.1962515"><ele>164.0</ele><time>2026-05-05T09:43:22.002Z</time></trkpt><trkpt lat="40.4643488" lon="15.196283"><ele>161.0</ele><time>2026-05-05T09:43:23.002Z</time></trkpt><trkpt lat="40.464261" lon="15.1963161"><ele>158.0</ele><time>2026-05-05T09:43:24.002Z</time></trkpt><trkpt lat="40.4641786" lon="15.1963471"><ele>155.0</ele><time>2026-05-05T09:43:25.003Z</time></trkpt><trkpt lat="40.4640935" lon="15.1963799"><ele>152.0</ele><time>2026-05-05T09:43:26.002Z</time></trkpt><trkpt lat="40.4640084" lon="15.1964165"><ele>152.0</ele><time>2026-05-05T09:43:27.002Z</time></trkpt><trkpt lat="40.4639118" lon="15.1964354"><ele>152.0</ele><time>2026-05-05T09:43:28.003Z</time></trkpt><trkpt lat="40.4638158" lon="15.1964645"><ele>152.0</ele><time>2026-05-05T09:43:29.003Z</time></trkpt><trkpt lat="40.4637203" lon="15.1964906"><ele>152.0</ele><time>2026-05-05T09:43:30.003Z</time></trkpt><trkpt lat="40.4636252" lon="15.1965224"><ele>152.0</ele><time>2026-05-05T09:43:31.003Z</time></trkpt><trkpt lat="40.4635327" lon="15.1965478"><ele>148.5</ele><time>2026-05-05T09:43:32.001Z</time></trkpt><trkpt lat="40.4634453" lon="15.1965725"><ele>145.0</ele><time>2026-05-05T09:43:33.003Z</time></trkpt><trkpt lat="40.463354" lon="15.1965913"><ele>141.5</ele><time>2026-05-05T09:43:34.003Z</time></trkpt><trkpt lat="40.463269" lon="15.1966133"><ele>138.0</ele><time>2026-05-05T09:43:35.001Z</time></trkpt><trkpt lat="40.4631824" lon="15.1966308"><ele>134.5</ele><time>2026-05-05T09:43:36.002Z</time></trkpt><trkpt lat="40.4630951" lon="15.1966534"><ele>131.0</ele><time>2026-05-05T09:43:37.001Z</time></trkpt><trkpt lat="40.4630131" lon="15.1966771"><ele>128.66666666666666</ele><time>2026-05-05T09:43:38.001Z</time></trkpt><trkpt lat="40.4629264" lon="15.1966935"><ele>126.33333333333333</ele><time>2026-05-05T09:43:39.002Z</time></trkpt><trkpt lat="40.4628433" lon="15.1967125"><ele>124.0</ele><time>2026-05-05T09:43:40.003Z</time></trkpt><trkpt lat="40.4627658" lon="15.1967235"><ele>121.66666666666666</ele><time>2026-05-05T09:43:41.003Z</time></trkpt><trkpt lat="40.4626929" lon="15.1967353"><ele>119.33333333333333</ele><time>2026-05-05T09:43:42.001Z</time></trkpt><trkpt lat="40.4625917" lon="15.1967489"><ele>117.0</ele><time>2026-05-05T09:43:44.002Z</time></trkpt><trkpt lat="40.4625558" lon="15.1968261"><ele>117.0</ele><time>2026-05-05T09:43:46.003Z</time></trkpt><trkpt lat="40.4625159" lon="15.1969381"><ele>117.0</ele><time>2026-05-05T09:43:49.003Z</time></trkpt><trkpt lat="40.4624532" lon="15.1969726"><ele>117.0</ele><time>2026-05-05T09:43:51.003Z</time></trkpt><trkpt lat="40.4623922" lon="15.1968591"><ele>117.0</ele><time>2026-05-05T09:43:53.002Z</time></trkpt><trkpt lat="40.4623574" lon="15.1967728"><ele>117.0</ele><time>2026-05-05T09:43:54.003Z</time></trkpt><trkpt lat="40.462317" lon="15.196672"><ele>117.0</ele><time>2026-05-05T09:43:55.002Z</time></trkpt><trkpt lat="40.4622809" lon="15.1965677"><ele>116.83333333333333</ele><time>2026-05-05T09:43:56.001Z</time></trkpt><trkpt lat="40.4622524" lon="15.1964734"><ele>116.66666666666666</ele><time>2026-05-05T09:43:57.003Z</time></trkpt><trkpt lat="40.4622521" lon="15.1963864"><ele>116.5</ele><time>2026-05-05T09:43:58.003Z</time></trkpt><trkpt lat="40.4623122" lon="15.1962575"><ele>116.33333333333333</ele><time>2026-05-05T09:44:00.003Z</time></trkpt><trkpt lat="40.4623463" lon="15.196176"><ele>116.16666666666666</ele><time>2026-05-05T09:44:01.002Z</time></trkpt><trkpt lat="40.4623769" lon="15.1960732"><ele>116.0</ele><time>2026-05-05T09:44:02.003Z</time></trkpt><trkpt lat="40.4624036" lon="15.1959651"><ele>115.99999999999999</ele><time>2026-05-05T09:44:03.002Z</time></trkpt><trkpt lat="40.462414" lon="15.1958673"><ele>116.0</ele><time>2026-05-05T09:44:04.002Z</time></trkpt><trkpt lat="40.4624117" lon="15.1957546"><ele>116.0</ele><time>2026-05-05T09:44:05.002Z</time></trkpt><trkpt lat="40.4624009" lon="15.1956403"><ele>116.0</ele><time>2026-05-05T09:44:06.003Z</time></trkpt><trkpt lat="40.4623915" lon="15.1955258"><ele>115.99999999999999</ele><time>2026-05-05T09:44:07.002Z</time></trkpt><trkpt lat="40.4624014" lon="15.1954437"><ele>116.0</ele><time>2026-05-05T09:44:08.003Z</time></trkpt><trkpt lat="40.4623706" lon="15.1953664"><ele>116.49999999999999</ele><time>2026-05-05T09:44:10.004Z</time></trkpt><trkpt lat="40.4622679" lon="15.1953425"><ele>117.0</ele><time>2026-05-05T09:44:12.003Z</time></trkpt><trkpt lat="40.462203" lon="15.195362"><ele>117.5</ele><time>2026-05-05T09:44:13.004Z</time></trkpt><trkpt lat="40.4621417" lon="15.1953854"><ele>118.0</ele><time>2026-05-05T09:44:14.004Z</time></trkpt><trkpt lat="40.4620422" lon="15.1954166"><ele>118.49999999999999</ele><time>2026-05-05T09:44:16.003Z</time></trkpt><trkpt lat="40.4620004" lon="15.1954793"><ele>119.0</ele><time>2026-05-05T09:44:17.002Z</time></trkpt><trkpt lat="40.461962" lon="15.1955577"><ele>120.49999999999999</ele><time>2026-05-05T09:44:18.004Z</time></trkpt><trkpt lat="40.4619226" lon="15.195638"><ele>122.0</ele><time>2026-05-05T09:44:19.004Z</time></trkpt><trkpt lat="40.4618769" lon="15.195721"><ele>123.5</ele><time>2026-05-05T09:44:20.004Z</time></trkpt><trkpt lat="40.4618331" lon="15.1958106"><ele>125.0</ele><time>2026-05-05T09:44:21.004Z</time></trkpt><trkpt lat="40.4617898" lon="15.1959057"><ele>126.49999999999999</ele><time>2026-05-05T09:44:22.004Z</time></trkpt><trkpt lat="40.461748" lon="15.1959939"><ele>128.0</ele><time>2026-05-05T09:44:23.004Z</time></trkpt><trkpt lat="40.4617033" lon="15.1960878"><ele>128.0</ele><time>2026-05-05T09:44:24.002Z</time></trkpt><trkpt lat="40.4616501" lon="15.1961906"><ele>128.0</ele><time>2026-05-05T09:44:25.003Z</time></trkpt><trkpt lat="40.4615987" lon="15.1962918"><ele>128.0</ele><time>2026-05-05T09:44:26.003Z</time></trkpt><trkpt lat="40.4615472" lon="15.1963982"><ele>128.0</ele><time>2026-05-05T09:44:27.003Z</time></trkpt><trkpt lat="40.4615051" lon="15.1965055"><ele>128.0</ele><time>2026-05-05T09:44:28.003Z</time></trkpt><trkpt lat="40.4614648" lon="15.1966108"><ele>127.99999999999999</ele><time>2026-05-05T09:44:29.004Z</time></trkpt><trkpt lat="40.4614275" lon="15.1966991"><ele>128.0</ele><time>2026-05-05T09:44:30.003Z</time></trkpt><trkpt lat="40.4613985" lon="15.1967866"><ele>128.0</ele><time>2026-05-05T09:44:31.004Z</time></trkpt><trkpt lat="40.4613694" lon="15.1968655"><ele>128.0</ele><time>2026-05-05T09:44:32.003Z</time></trkpt><trkpt lat="40.461331" lon="15.1969668"><ele>127.99999999999999</ele><time>2026-05-05T09:45:13.004Z</time></trkpt><trkpt lat="40.4612475" lon="15.1970859"><ele>128.0</ele><time>2026-05-05T09:45:15.003Z</time></trkpt><trkpt lat="40.461184" lon="15.1970888"><ele>132.0</ele><time>2026-05-05T09:45:17.003Z</time></trkpt><trkpt lat="40.4611247" lon="15.196997"><ele>136.0</ele><time>2026-05-05T09:45:19.003Z</time></trkpt><trkpt lat="40.4610368" lon="15.196881"><ele>140.0</ele><time>2026-05-05T09:45:21.003Z</time></trkpt><trkpt lat="40.460993" lon="15.1968167"><ele>144.0</ele><time>2026-05-05T09:45:22.003Z</time></trkpt><trkpt lat="40.4609534" lon="15.1967519"><ele>148.0</ele><time>2026-05-05T09:45:23.004Z</time></trkpt><trkpt lat="40.460908" lon="15.1966811"><ele>152.0</ele><time>2026-05-05T09:45:24.004Z</time></trkpt><trkpt lat="40.4608539" lon="15.196612"><ele>152.0</ele><time>2026-05-05T09:45:25.004Z</time></trkpt><trkpt lat="40.4607842" lon="15.1965037"><ele>152.0</ele><time>2026-05-05T09:45:27.004Z</time></trkpt><trkpt lat="40.4607374" lon="15.1963357"><ele>152.0</ele><time>2026-05-05T09:45:29.004Z</time></trkpt><trkpt lat="40.4607159" lon="15.1962384"><ele>152.0</ele><time>2026-05-05T09:45:30.004Z</time></trkpt><trkpt lat="40.4606886" lon="15.1961429"><ele>152.0</ele><time>2026-05-05T09:45:31.004Z</time></trkpt><trkpt lat="40.4606753" lon="15.1960537"><ele>152.83333333333331</ele><time>2026-05-05T09:45:32.004Z</time></trkpt><trkpt lat="40.4606543" lon="15.1959703"><ele>153.66666666666666</ele><time>2026-05-05T09:45:33.004Z</time></trkpt><trkpt lat="40.4605723" lon="15.1958713"><ele>154.5</ele><time>2026-05-05T09:45:35.004Z</time></trkpt><trkpt lat="40.4604642" lon="15.1958585"><ele>155.33333333333334</ele><time>2026-05-05T09:45:37.003Z</time></trkpt><trkpt lat="40.4603957" lon="15.1958811"><ele>156.16666666666669</ele><time>2026-05-05T09:45:38.002Z</time></trkpt><trkpt lat="40.4603282" lon="15.1958918"><ele>157.0</ele><time>2026-05-05T09:45:39.004Z</time></trkpt><trkpt lat="40.4602391" lon="15.1959152"><ele>159.39999999999998</ele><time>2026-05-05T09:45:41.004Z</time></trkpt><trkpt lat="40.4601723" lon="15.1959527"><ele>161.79999999999998</ele><time>2026-05-05T09:45:42.003Z</time></trkpt><trkpt lat="40.4600873" lon="15.1960132"><ele>164.2</ele><time>2026-05-05T09:45:43.003Z</time></trkpt><trkpt lat="40.4599856" lon="15.1960929"><ele>166.6</ele><time>2026-05-05T09:45:44.004Z</time></trkpt><trkpt lat="40.4598891" lon="15.1961656"><ele>169.0</ele><time>2026-05-05T09:45:45.003Z</time></trkpt><trkpt lat="40.4598043" lon="15.1962365"><ele>169.0</ele><time>2026-05-05T09:45:46.003Z</time></trkpt><trkpt lat="40.4597342" lon="15.1963296"><ele>169.0</ele><time>2026-05-05T09:45:47.004Z</time></trkpt><trkpt lat="40.4596783" lon="15.1964502"><ele>169.0</ele><time>2026-05-05T09:45:48.004Z</time></trkpt><trkpt lat="40.4596267" lon="15.1965862"><ele>169.0</ele><time>2026-05-05T09:45:49.003Z</time></trkpt><trkpt lat="40.4595805" lon="15.1967199"><ele>169.0</ele><time>2026-05-05T09:45:50.004Z</time></trkpt><trkpt lat="40.459537" lon="15.1968443"><ele>170.6</ele><time>2026-05-05T09:45:51.004Z</time></trkpt><trkpt lat="40.4594906" lon="15.1969464"><ele>172.2</ele><time>2026-05-05T09:45:52.003Z</time></trkpt><trkpt lat="40.459413" lon="15.1970215"><ele>173.79999999999998</ele><time>2026-05-05T09:45:53.004Z</time></trkpt><trkpt lat="40.4593253" lon="15.1970719"><ele>175.39999999999998</ele><time>2026-05-05T09:45:54.004Z</time></trkpt><trkpt lat="40.4592271" lon="15.1971128"><ele>177.0</ele><time>2026-05-05T09:45:55.004Z</time></trkpt><trkpt lat="40.4591185" lon="15.1971482"><ele>177.0</ele><time>2026-05-05T09:45:56.003Z</time></trkpt><trkpt lat="40.4590072" lon="15.197165"><ele>177.0</ele><time>2026-05-05T09:45:57.003Z</time></trkpt><trkpt lat="40.4588926" lon="15.1971798"><ele>177.0</ele><time>2026-05-05T09:45:58.004Z</time></trkpt><trkpt lat="40.4587715" lon="15.1972094"><ele>177.0</ele><time>2026-05-05T09:45:59.004Z</time></trkpt><trkpt lat="40.4586473" lon="15.1972537"><ele>177.75</ele><time>2026-05-05T09:46:00.003Z</time></trkpt><trkpt lat="40.4585093" lon="15.1973098"><ele>178.5</ele><time>2026-05-05T09:46:01.004Z</time></trkpt><trkpt lat="40.4583765" lon="15.1973747"><ele>179.25</ele><time>2026-05-05T09:46:02.004Z</time></trkpt><trkpt lat="40.4582597" lon="15.1974329"><ele>180.0</ele><time>2026-05-05T09:46:03.004Z</time></trkpt><trkpt lat="40.4581455" lon="15.1974781"><ele>180.0</ele><time>2026-05-05T09:46:04.003Z</time></trkpt><trkpt lat="40.4580415" lon="15.1975048"><ele>180.0</ele><time>2026-05-05T09:46:05.003Z</time></trkpt><trkpt lat="40.4579368" lon="15.1975157"><ele>180.0</ele><time>2026-05-05T09:46:06.004Z</time></trkpt><trkpt lat="40.457838" lon="15.1975141"><ele>180.0</ele><time>2026-05-05T09:46:07.004Z</time></trkpt><trkpt lat="40.4577454" lon="15.1975346"><ele>180.0</ele><time>2026-05-05T09:46:08.004Z</time></trkpt><trkpt lat="40.4576554" lon="15.1975768"><ele>181.0</ele><time>2026-05-05T09:46:09.003Z</time></trkpt><trkpt lat="40.4575684" lon="15.1976313"><ele>182.0</ele><time>2026-05-05T09:46:10.004Z</time></trkpt><trkpt lat="40.4575065" lon="15.1976977"><ele>183.0</ele><time>2026-05-05T09:46:11.004Z</time></trkpt><trkpt lat="40.4574785" lon="15.1977806"><ele>184.0</ele><time>2026-05-05T09:46:12.004Z</time></trkpt><trkpt lat="40.4574796" lon="15.1978767"><ele>185.0</ele><time>2026-05-05T09:46:13.004Z</time></trkpt><trkpt lat="40.4574994" lon="15.1979907"><ele>186.0</ele><time>2026-05-05T09:46:14.004Z</time></trkpt><trkpt lat="40.4575275" lon="15.198119"><ele>184.20000000000002</ele><time>2026-05-05T09:46:15.003Z</time></trkpt><trkpt lat="40.4575479" lon="15.1982548"><ele>182.4</ele><time>2026-05-05T09:46:16.004Z</time></trkpt><trkpt lat="40.4575604" lon="15.1983831"><ele>180.6</ele><time>2026-05-05T09:46:17.004Z</time></trkpt><trkpt lat="40.457561" lon="15.1985078"><ele>178.8</ele><time>2026-05-05T09:46:18.003Z</time></trkpt><trkpt lat="40.4575446" lon="15.1986321"><ele>177.0</ele><time>2026-05-05T09:46:19.004Z</time></trkpt><trkpt lat="40.4575062" lon="15.1987404"><ele>177.0</ele><time>2026-05-05T09:46:20.003Z</time></trkpt><trkpt lat="40.457445" lon="15.1988382"><ele>177.0</ele><time>2026-05-05T09:46:21.004Z</time></trkpt><trkpt lat="40.4573815" lon="15.1989355"><ele>177.0</ele><time>2026-05-05T09:46:22.003Z</time></trkpt><trkpt lat="40.4573276" lon="15.199041"><ele>177.0</ele><time>2026-05-05T09:46:23.004Z</time></trkpt><trkpt lat="40.457285" lon="15.1991336"><ele>177.0</ele><time>2026-05-05T09:46:24.004Z</time></trkpt><trkpt lat="40.4572664" lon="15.1992228"><ele>177.0</ele><time>2026-05-05T09:46:25.003Z</time></trkpt><trkpt lat="40.4572743" lon="15.1993172"><ele>175.8</ele><time>2026-05-05T09:46:26.004Z</time></trkpt><trkpt lat="40.4572993" lon="15.1994233"><ele>174.6</ele><time>2026-05-05T09:46:27.003Z</time></trkpt><trkpt lat="40.4573392" lon="15.1995393"><ele>173.4</ele><time>2026-05-05T09:46:28.004Z</time></trkpt><trkpt lat="40.4573876" lon="15.1996631"><ele>172.20000000000002</ele><time>2026-05-05T09:46:29.004Z</time></trkpt><trkpt lat="40.457435" lon="15.199801"><ele>171.0</ele><time>2026-05-05T09:46:30.004Z</time></trkpt><trkpt lat="40.4574785" lon="15.1999577"><ele>171.0</ele><time>2026-05-05T09:46:31.004Z</time></trkpt><trkpt lat="40.4575171" lon="15.200131"><ele>171.0</ele><time>2026-05-05T09:46:32.004Z</time></trkpt><trkpt lat="40.4575431" lon="15.2002924"><ele>171.0</ele><time>2026-05-05T09:46:33.003Z</time></trkpt><trkpt lat="40.4575526" lon="15.2004515"><ele>171.0</ele><time>2026-05-05T09:46:34.003Z</time></trkpt><trkpt lat="40.4575439" lon="15.2006098"><ele>170.60000000000002</ele><time>2026-05-05T09:46:35.003Z</time></trkpt><trkpt lat="40.4575236" lon="15.2007531"><ele>170.2</ele><time>2026-05-05T09:46:36.004Z</time></trkpt><trkpt lat="40.4574925" lon="15.2008931"><ele>169.8</ele><time>2026-05-05T09:46:37.004Z</time></trkpt><trkpt lat="40.4574498" lon="15.2010263"><ele>169.39999999999998</ele><time>2026-05-05T09:46:38.003Z</time></trkpt><trkpt lat="40.4574043" lon="15.2011524"><ele>169.0</ele><time>2026-05-05T09:46:39.003Z</time></trkpt><trkpt lat="40.4573717" lon="15.2012716"><ele>169.0</ele><time>2026-05-05T09:46:40.003Z</time></trkpt><trkpt lat="40.4573349" lon="15.2013818"><ele>169.0</ele><time>2026-05-05T09:46:41.003Z</time></trkpt><trkpt lat="40.457291" lon="15.2014948"><ele>169.0</ele><time>2026-05-05T09:46:42.004Z</time></trkpt><trkpt lat="40.4572398" lon="15.2016126"><ele>169.0</ele><time>2026-05-05T09:46:43.004Z</time></trkpt><trkpt lat="40.4571852" lon="15.201731"><ele>169.0</ele><time>2026-05-05T09:46:44.004Z</time></trkpt><trkpt lat="40.4571293" lon="15.201852"><ele>167.0</ele><time>2026-05-05T09:46:45.003Z</time></trkpt><trkpt lat="40.4570788" lon="15.201972"><ele>165.0</ele><time>2026-05-05T09:46:46.004Z</time></trkpt><trkpt lat="40.4570428" lon="15.2020812"><ele>163.0</ele><time>2026-05-05T09:46:47.004Z</time></trkpt><trkpt lat="40.457021" lon="15.2021855"><ele>161.0</ele><time>2026-05-05T09:46:48.004Z</time></trkpt><trkpt lat="40.457009" lon="15.2023092"><ele>159.0</ele><time>2026-05-05T09:46:49.003Z</time></trkpt><trkpt lat="40.4569998" lon="15.2024439"><ele>156.5</ele><time>2026-05-05T09:46:50.004Z</time></trkpt><trkpt lat="40.4569914" lon="15.2025687"><ele>154.0</ele><time>2026-05-05T09:46:51.004Z</time></trkpt><trkpt lat="40.4569729" lon="15.2026827"><ele>151.5</ele><time>2026-05-05T09:46:52.004Z</time></trkpt><trkpt lat="40.456952" lon="15.2027764"><ele>149.0</ele><time>2026-05-05T09:46:53.004Z</time></trkpt><trkpt lat="40.4569303" lon="15.2028807"><ele>146.5</ele><time>2026-05-05T09:46:54.004Z</time></trkpt><trkpt lat="40.4569037" lon="15.2029983"><ele>144.0</ele><time>2026-05-05T09:46:55.004Z</time></trkpt><trkpt lat="40.4568785" lon="15.2030937"><ele>141.25</ele><time>2026-05-05T09:46:56.004Z</time></trkpt><trkpt lat="40.4568449" lon="15.2031982"><ele>138.5</ele><time>2026-05-05T09:46:57.003Z</time></trkpt><trkpt lat="40.4567957" lon="15.2033175"><ele>135.75</ele><time>2026-05-05T09:46:58.003Z</time></trkpt><trkpt lat="40.4567439" lon="15.2034763"><ele>133.0</ele><time>2026-05-05T09:46:59.003Z</time></trkpt><trkpt lat="40.4566959" lon="15.2036428"><ele>133.0</ele><time>2026-05-05T09:47:00.003Z</time></trkpt><trkpt lat="40.4565925" lon="15.2038983"><ele>133.0</ele><time>2026-05-05T09:47:02.004Z</time></trkpt><trkpt lat="40.4565716" lon="15.2040107"><ele>133.0</ele><time>2026-05-05T09:47:03.004Z</time></trkpt><trkpt lat="40.4565882" lon="15.2041326"><ele>133.0</ele><time>2026-05-05T09:47:04.004Z</time></trkpt><trkpt lat="40.4566325" lon="15.2042623"><ele>131.0</ele><time>2026-05-05T09:47:05.004Z</time></trkpt><trkpt lat="40.4566778" lon="15.2043857"><ele>129.0</ele><time>2026-05-05T09:47:06.004Z</time></trkpt><trkpt lat="40.4567133" lon="15.2045143"><ele>127.00000000000001</ele><time>2026-05-05T09:47:07.004Z</time></trkpt><trkpt lat="40.4567328" lon="15.2046461"><ele>125.0</ele><time>2026-05-05T09:47:08.002Z</time></trkpt><trkpt lat="40.4567302" lon="15.2047819"><ele>123.0</ele><time>2026-05-05T09:47:09.004Z</time></trkpt><trkpt lat="40.4567142" lon="15.2049183"><ele>121.0</ele><time>2026-05-05T09:47:10.003Z</time></trkpt><trkpt lat="40.4566998" lon="15.2050562"><ele>119.00000000000001</ele><time>2026-05-05T09:47:11.004Z</time></trkpt><trkpt lat="40.4566865" lon="15.2051962"><ele>117.00000000000001</ele><time>2026-05-05T09:47:12.004Z</time></trkpt><trkpt lat="40.4566786" lon="15.2053374"><ele>115.0</ele><time>2026-05-05T09:47:13.004Z</time></trkpt><trkpt lat="40.4566726" lon="15.2054794"><ele>113.0</ele><time>2026-05-05T09:47:14.004Z</time></trkpt><trkpt lat="40.4566657" lon="15.2056193"><ele>111.80000000000001</ele><time>2026-05-05T09:47:15.004Z</time></trkpt><trkpt lat="40.4566572" lon="15.205756"><ele>110.60000000000001</ele><time>2026-05-05T09:47:16.004Z</time></trkpt><trkpt lat="40.4566423" lon="15.2058861"><ele>109.39999999999999</ele><time>2026-05-05T09:47:17.003Z</time></trkpt><trkpt lat="40.4566064" lon="15.2059882"><ele>108.19999999999999</ele><time>2026-05-05T09:47:18.004Z</time></trkpt><trkpt lat="40.4565646" lon="15.2060981"><ele>107.0</ele><time>2026-05-05T09:47:20.004Z</time></trkpt><trkpt lat="40.4566428" lon="15.2061874"><ele>107.0</ele><time>2026-05-05T09:47:23.004Z</time></trkpt><trkpt lat="40.4567237" lon="15.2061968"><ele>106.99999999999999</ele><time>2026-05-05T09:47:24.003Z</time></trkpt><trkpt lat="40.4568228" lon="15.2062179"><ele>106.99999999999999</ele><time>2026-05-05T09:47:25.004Z</time></trkpt><trkpt lat="40.4569384" lon="15.2062458"><ele>107.0</ele><time>2026-05-05T09:47:26.004Z</time></trkpt><trkpt lat="40.4570695" lon="15.2062829"><ele>107.0</ele><time>2026-05-05T09:47:27.004Z</time></trkpt><trkpt lat="40.4572107" lon="15.2063207"><ele>108.33333333333333</ele><time>2026-05-05T09:47:28.004Z</time></trkpt><trkpt lat="40.4573699" lon="15.2063427"><ele>109.66666666666666</ele><time>2026-05-05T09:47:29.004Z</time></trkpt><trkpt lat="40.4575361" lon="15.2063441"><ele>111.0</ele><time>2026-05-05T09:47:30.004Z</time></trkpt><trkpt lat="40.4576904" lon="15.2063249"><ele>111.0</ele><time>2026-05-05T09:47:31.004Z</time></trkpt><trkpt lat="40.4578323" lon="15.2062984"><ele>111.0</ele><time>2026-05-05T09:47:32.003Z</time></trkpt><trkpt lat="40.4579626" lon="15.2062759"><ele>111.0</ele><time>2026-05-05T09:47:33.003Z</time></trkpt><trkpt lat="40.4580878" lon="15.2062766"><ele>111.0</ele><time>2026-05-05T09:47:34.004Z</time></trkpt><trkpt lat="40.4582239" lon="15.2063017"><ele>109.33333333333334</ele><time>2026-05-05T09:47:35.004Z</time></trkpt><trkpt lat="40.4583724" lon="15.2063408"><ele>107.66666666666667</ele><time>2026-05-05T09:47:36.003Z</time></trkpt><trkpt lat="40.4585378" lon="15.2063891"><ele>106.0</ele><time>2026-05-05T09:47:37.004Z</time></trkpt><trkpt lat="40.458716" lon="15.2064428"><ele>101.33333333333334</ele><time>2026-05-05T09:47:38.003Z</time></trkpt><trkpt lat="40.4588983" lon="15.2064957"><ele>96.66666666666667</ele><time>2026-05-05T09:47:39.004Z</time></trkpt><trkpt lat="40.4590708" lon="15.2065491"><ele>92.0</ele><time>2026-05-05T09:47:40.003Z</time></trkpt><trkpt lat="40.4592384" lon="15.2066024"><ele>92.0</ele><time>2026-05-05T09:47:41.004Z</time></trkpt><trkpt lat="40.4594012" lon="15.2066528"><ele>92.0</ele><time>2026-05-05T09:47:42.003Z</time></trkpt><trkpt lat="40.4595668" lon="15.2066985"><ele>92.0</ele><time>2026-05-05T09:47:43.003Z</time></trkpt><trkpt lat="40.4597347" lon="15.206746"><ele>91.33333333333334</ele><time>2026-05-05T09:47:44.002Z</time></trkpt><trkpt lat="40.4599023" lon="15.2067974"><ele>90.66666666666667</ele><time>2026-05-05T09:47:45.003Z</time></trkpt><trkpt lat="40.4600688" lon="15.2068561"><ele>90.0</ele><time>2026-05-05T09:47:46.004Z</time></trkpt><trkpt lat="40.4602324" lon="15.2069249"><ele>90.0</ele><time>2026-05-05T09:47:47.004Z</time></trkpt><trkpt lat="40.460392" lon="15.2069952"><ele>90.0</ele><time>2026-05-05T09:47:48.003Z</time></trkpt><trkpt lat="40.4605516" lon="15.207067"><ele>90.0</ele><time>2026-05-05T09:47:49.004Z</time></trkpt><trkpt lat="40.4607079" lon="15.2071356"><ele>89.33333333333333</ele><time>2026-05-05T09:47:50.004Z</time></trkpt><trkpt lat="40.4608605" lon="15.2072035"><ele>88.66666666666666</ele><time>2026-05-05T09:47:51.004Z</time></trkpt><trkpt lat="40.4610057" lon="15.2072758"><ele>88.0</ele><time>2026-05-05T09:47:52.003Z</time></trkpt><trkpt lat="40.4611373" lon="15.2073638"><ele>88.0</ele><time>2026-05-05T09:47:53.004Z</time></trkpt><trkpt lat="40.4612634" lon="15.2074722"><ele>88.0</ele><time>2026-05-05T09:47:54.004Z</time></trkpt><trkpt lat="40.4613624" lon="15.2075983"><ele>88.0</ele><time>2026-05-05T09:47:55.002Z</time></trkpt><trkpt lat="40.4614292" lon="15.2077548"><ele>88.0</ele><time>2026-05-05T09:47:56.003Z</time></trkpt><trkpt lat="40.4614624" lon="15.2079277"><ele>89.25</ele><time>2026-05-05T09:47:57.003Z</time></trkpt><trkpt lat="40.4614728" lon="15.208103"><ele>90.5</ele><time>2026-05-05T09:47:58.004Z</time></trkpt><trkpt lat="40.4614743" lon="15.2082893"><ele>91.75</ele><time>2026-05-05T09:47:59.004Z</time></trkpt><trkpt lat="40.4614723" lon="15.2084782"><ele>93.0</ele><time>2026-05-05T09:48:00.003Z</time></trkpt><trkpt lat="40.4614649" lon="15.2086732"><ele>94.75</ele><time>2026-05-05T09:48:01.003Z</time></trkpt><trkpt lat="40.4614329" lon="15.2088454"><ele>96.5</ele><time>2026-05-05T09:48:02.003Z</time></trkpt><trkpt lat="40.4613657" lon="15.2089993"><ele>98.25</ele><time>2026-05-05T09:48:03.004Z</time></trkpt><trkpt lat="40.4612707" lon="15.2091386"><ele>100.0</ele><time>2026-05-05T09:48:04.004Z</time></trkpt><trkpt lat="40.4611612" lon="15.2092793"><ele>100.0</ele><time>2026-05-05T09:48:05.003Z</time></trkpt><trkpt lat="40.461045" lon="15.209428"><ele>100.0</ele><time>2026-05-05T09:48:06.004Z</time></trkpt><trkpt lat="40.4609263" lon="15.2095759"><ele>100.0</ele><time>2026-05-05T09:48:07.004Z</time></trkpt><trkpt lat="40.4608137" lon="15.2097182"><ele>103.0</ele><time>2026-05-05T09:48:08.004Z</time></trkpt><trkpt lat="40.4607153" lon="15.2098722"><ele>106.0</ele><time>2026-05-05T09:48:09.004Z</time></trkpt><trkpt lat="40.4606373" lon="15.2100497"><ele>109.0</ele><time>2026-05-05T09:48:10.003Z</time></trkpt><trkpt lat="40.4605711" lon="15.2102416"><ele>109.0</ele><time>2026-05-05T09:48:11.004Z</time></trkpt><trkpt lat="40.4605169" lon="15.2104431"><ele>109.0</ele><time>2026-05-05T09:48:12.004Z</time></trkpt><trkpt lat="40.4604729" lon="15.2106514"><ele>109.0</ele><time>2026-05-05T09:48:13.003Z</time></trkpt><trkpt lat="40.4604328" lon="15.2108655"><ele>108.0</ele><time>2026-05-05T09:48:14.004Z</time></trkpt><trkpt lat="40.4603937" lon="15.2110798"><ele>107.0</ele><time>2026-05-05T09:48:15.004Z</time></trkpt><trkpt lat="40.4603507" lon="15.2112961"><ele>106.0</ele><time>2026-05-05T09:48:16.003Z</time></trkpt><trkpt lat="40.46031" lon="15.2115087"><ele>106.0</ele><time>2026-05-05T09:48:17.003Z</time></trkpt><trkpt lat="40.4602729" lon="15.2117087"><ele>106.0</ele><time>2026-05-05T09:48:18.003Z</time></trkpt><trkpt lat="40.4602392" lon="15.2119033"><ele>106.0</ele><time>2026-05-05T09:48:19.004Z</time></trkpt><trkpt lat="40.4602143" lon="15.2121011"><ele>106.0</ele><time>2026-05-05T09:48:20.004Z</time></trkpt><trkpt lat="40.4602139" lon="15.2123035"><ele>106.0</ele><time>2026-05-05T09:48:21.003Z</time></trkpt><trkpt lat="40.4602472" lon="15.2126861"><ele>106.0</ele><time>2026-05-05T09:48:23.003Z</time></trkpt><trkpt lat="40.4602647" lon="15.2128715"><ele>108.0</ele><time>2026-05-05T09:48:24.004Z</time></trkpt><trkpt lat="40.4602787" lon="15.2130517"><ele>110.0</ele><time>2026-05-05T09:48:25.004Z</time></trkpt><trkpt lat="40.4602869" lon="15.2132292"><ele>112.0</ele><time>2026-05-05T09:48:26.004Z</time></trkpt><trkpt lat="40.4602869" lon="15.2134082"><ele>114.0</ele><time>2026-05-05T09:48:27.003Z</time></trkpt><trkpt lat="40.4602725" lon="15.2135893"><ele>115.25</ele><time>2026-05-05T09:48:28.004Z</time></trkpt><trkpt lat="40.460253" lon="15.2137741"><ele>116.5</ele><time>2026-05-05T09:48:29.004Z</time></trkpt><trkpt lat="40.4602294" lon="15.2139618"><ele>117.75</ele><time>2026-05-05T09:48:30.003Z</time></trkpt><trkpt lat="40.4601923" lon="15.2141493"><ele>119.0</ele><time>2026-05-05T09:48:31.003Z</time></trkpt><trkpt lat="40.4601169" lon="15.2143204"><ele>120.66666666666666</ele><time>2026-05-05T09:48:32.004Z</time></trkpt><trkpt lat="40.4600208" lon="15.2144796"><ele>122.33333333333334</ele><time>2026-05-05T09:48:33.004Z</time></trkpt><trkpt lat="40.459909" lon="15.214627"><ele>124.0</ele><time>2026-05-05T09:48:34.004Z</time></trkpt><trkpt lat="40.4597923" lon="15.2147663"><ele>124.0</ele><time>2026-05-05T09:48:35.004Z</time></trkpt><trkpt lat="40.4596918" lon="15.2149238"><ele>124.0</ele><time>2026-05-05T09:48:36.004Z</time></trkpt><trkpt lat="40.4596043" lon="15.2150968"><ele>124.0</ele><time>2026-05-05T09:48:37.004Z</time></trkpt><trkpt lat="40.4595301" lon="15.2152801"><ele>124.66666666666667</ele><time>2026-05-05T09:48:38.004Z</time></trkpt><trkpt lat="40.4594726" lon="15.2154767"><ele>125.33333333333334</ele><time>2026-05-05T09:48:39.004Z</time></trkpt><trkpt lat="40.459423" lon="15.2156838"><ele>126.0</ele><time>2026-05-05T09:48:40.004Z</time></trkpt><trkpt lat="40.4593719" lon="15.2158798"><ele>127.25</ele><time>2026-05-05T09:48:41.003Z</time></trkpt><trkpt lat="40.4593128" lon="15.2160613"><ele>128.5</ele><time>2026-05-05T09:48:42.004Z</time></trkpt><trkpt lat="40.4592628" lon="15.2162259"><ele>129.75</ele><time>2026-05-05T09:48:43.004Z</time></trkpt><trkpt lat="40.4592264" lon="15.2163894"><ele>131.0</ele><time>2026-05-05T09:48:44.003Z</time></trkpt><trkpt lat="40.4591955" lon="15.2165628"><ele>131.5</ele><time>2026-05-05T09:48:45.002Z</time></trkpt><trkpt lat="40.4591678" lon="15.2167424"><ele>132.0</ele><time>2026-05-05T09:48:46.004Z</time></trkpt><trkpt lat="40.4591429" lon="15.2169254"><ele>132.5</ele><time>2026-05-05T09:48:47.003Z</time></trkpt><trkpt lat="40.4591151" lon="15.2170988"><ele>133.0</ele><time>2026-05-05T09:48:48.003Z</time></trkpt><trkpt lat="40.4590883" lon="15.2172555"><ele>133.4</ele><time>2026-05-05T09:48:49.004Z</time></trkpt><trkpt lat="40.4590616" lon="15.2173975"><ele>133.8</ele><time>2026-05-05T09:48:50.004Z</time></trkpt><trkpt lat="40.4590364" lon="15.2175248"><ele>134.2</ele><time>2026-05-05T09:48:51.004Z</time></trkpt><trkpt lat="40.4590085" lon="15.2176415"><ele>134.6</ele><time>2026-05-05T09:48:52.004Z</time></trkpt><trkpt lat="40.458984" lon="15.2177549"><ele>135.0</ele><time>2026-05-05T09:48:53.004Z</time></trkpt><trkpt lat="40.4589684" lon="15.2178497"><ele>135.0</ele><time>2026-05-05T09:48:54.003Z</time></trkpt><trkpt lat="40.458951" lon="15.2179467"><ele>135.0</ele><time>2026-05-05T09:48:55.003Z</time></trkpt><trkpt lat="40.4589222" lon="15.2180564"><ele>135.0</ele><time>2026-05-05T09:48:56.003Z</time></trkpt><trkpt lat="40.4588968" lon="15.218178"><ele>135.0</ele><time>2026-05-05T09:48:57.004Z</time></trkpt><trkpt lat="40.4588814" lon="15.2183218"><ele>135.0</ele><time>2026-05-05T09:48:58.004Z</time></trkpt><trkpt lat="40.4588711" lon="15.2184852"><ele>135.25</ele><time>2026-05-05T09:48:59.004Z</time></trkpt><trkpt lat="40.4588685" lon="15.2186591"><ele>135.5</ele><time>2026-05-05T09:49:00.004Z</time></trkpt><trkpt lat="40.4588666" lon="15.2188513"><ele>135.75</ele><time>2026-05-05T09:49:01.003Z</time></trkpt><trkpt lat="40.45886" lon="15.2190344"><ele>136.0</ele><time>2026-05-05T09:49:02.004Z</time></trkpt><trkpt lat="40.4588462" lon="15.2191975"><ele>136.0</ele><time>2026-05-05T09:49:03.004Z</time></trkpt><trkpt lat="40.4588309" lon="15.2193462"><ele>136.0</ele><time>2026-05-05T09:49:04.004Z</time></trkpt><trkpt lat="40.4588184" lon="15.2194764"><ele>136.0</ele><time>2026-05-05T09:49:05.004Z</time></trkpt><trkpt lat="40.458815" lon="15.2195838"><ele>136.0</ele><time>2026-05-05T09:49:06.002Z</time></trkpt><trkpt lat="40.4588314" lon="15.2196644"><ele>136.0</ele><time>2026-05-05T09:49:07.004Z</time></trkpt><trkpt lat="40.4589432" lon="15.2197538"><ele>136.0</ele><time>2026-05-05T09:49:09.004Z</time></trkpt><trkpt lat="40.4590379" lon="15.2197641"><ele>136.0</ele><time>2026-05-05T09:49:10.003Z</time></trkpt><trkpt lat="40.4591507" lon="15.2197496"><ele>136.0</ele><time>2026-05-05T09:49:11.004Z</time></trkpt><trkpt lat="40.4592755" lon="15.2197327"><ele>136.0</ele><time>2026-05-05T09:49:12.004Z</time></trkpt><trkpt lat="40.4593966" lon="15.219705"><ele>136.0</ele><time>2026-05-05T09:49:13.004Z</time></trkpt><trkpt lat="40.4595137" lon="15.2196527"><ele>136.0</ele><time>2026-05-05T09:49:14.004Z</time></trkpt><trkpt lat="40.4596212" lon="15.2195848"><ele>136.0</ele><time>2026-05-05T09:49:15.004Z</time></trkpt><trkpt lat="40.4597222" lon="15.2195233"><ele>136.0</ele><time>2026-05-05T09:49:16.003Z</time></trkpt><trkpt lat="40.4598232" lon="15.2194792"><ele>133.25</ele><time>2026-05-05T09:49:17.003Z</time></trkpt><trkpt lat="40.4599339" lon="15.2194531"><ele>130.5</ele><time>2026-05-05T09:49:18.004Z</time></trkpt><trkpt lat="40.4600562" lon="15.2194529"><ele>127.75</ele><time>2026-05-05T09:49:19.003Z</time></trkpt><trkpt lat="40.460193" lon="15.2194635"><ele>125.0</ele><time>2026-05-05T09:49:20.004Z</time></trkpt><trkpt lat="40.460341" lon="15.2194717"><ele>126.5</ele><time>2026-05-05T09:49:21.004Z</time></trkpt><trkpt lat="40.4604904" lon="15.2194805"><ele>128.0</ele><time>2026-05-05T09:49:22.003Z</time></trkpt><trkpt lat="40.4606336" lon="15.2195054"><ele>129.5</ele><time>2026-05-05T09:49:23.004Z</time></trkpt><trkpt lat="40.460774" lon="15.2195427"><ele>131.0</ele><time>2026-05-05T09:49:24.004Z</time></trkpt><trkpt lat="40.4608956" lon="15.21959"><ele>131.0</ele><time>2026-05-05T09:49:25.004Z</time></trkpt><trkpt lat="40.461011" lon="15.2196403"><ele>131.0</ele><time>2026-05-05T09:49:26.003Z</time></trkpt><trkpt lat="40.4611039" lon="15.2197664"><ele>131.0</ele><time>2026-05-05T09:49:27.004Z</time></trkpt><trkpt lat="40.4612046" lon="15.2198791"><ele>131.0</ele><time>2026-05-05T09:49:28.004Z</time></trkpt><trkpt lat="40.4613002" lon="15.2200014"><ele>135.25</ele><time>2026-05-05T09:49:29.004Z</time></trkpt><trkpt lat="40.4613862" lon="15.2201351"><ele>139.5</ele><time>2026-05-05T09:49:30.003Z</time></trkpt><trkpt lat="40.4614693" lon="15.2202641"><ele>143.75</ele><time>2026-05-05T09:49:31.004Z</time></trkpt><trkpt lat="40.4615577" lon="15.2203769"><ele>148.0</ele><time>2026-05-05T09:49:32.004Z</time></trkpt><trkpt lat="40.4616561" lon="15.2204519"><ele>148.0</ele><time>2026-05-05T09:49:33.004Z</time></trkpt><trkpt lat="40.461743" lon="15.2205019"><ele>148.0</ele><time>2026-05-05T09:49:34.003Z</time></trkpt><trkpt lat="40.4618079" lon="15.2205451"><ele>148.0</ele><time>2026-05-05T09:49:35.003Z</time></trkpt><trkpt lat="40.4618597" lon="15.2205947"><ele>148.0</ele><time>2026-05-05T09:49:37.004Z</time></trkpt><trkpt lat="40.4619577" lon="15.2205784"><ele>148.0</ele><time>2026-05-05T09:49:40.003Z</time></trkpt><trkpt lat="40.462084" lon="15.220591"><ele>148.0</ele><time>2026-05-05T09:49:42.004Z</time></trkpt><trkpt lat="40.4621592" lon="15.220618"><ele>148.0</ele><time>2026-05-05T09:49:43.002Z</time></trkpt><trkpt lat="40.4622367" lon="15.2206567"><ele>148.0</ele><time>2026-05-05T09:49:44.003Z</time></trkpt><trkpt lat="40.4623154" lon="15.2206932"><ele>148.0</ele><time>2026-05-05T09:49:45.004Z</time></trkpt><trkpt lat="40.4623964" lon="15.2207363"><ele>148.0</ele><time>2026-05-05T09:49:46.003Z</time></trkpt><trkpt lat="40.4624776" lon="15.2207812"><ele>148.0</ele><time>2026-05-05T09:49:47.004Z</time></trkpt><trkpt lat="40.4625594" lon="15.2208284"><ele>148.0</ele><time>2026-05-05T09:49:48.003Z</time></trkpt><trkpt lat="40.4626415" lon="15.2208783"><ele>148.0</ele><time>2026-05-05T09:49:49.004Z</time></trkpt><trkpt lat="40.4627277" lon="15.2209273"><ele>148.0</ele><time>2026-05-05T09:49:50.004Z</time></trkpt><trkpt lat="40.4628154" lon="15.2209732"><ele>148.0</ele><time>2026-05-05T09:49:51.003Z</time></trkpt><trkpt lat="40.462901" lon="15.2210144"><ele>148.0</ele><time>2026-05-05T09:49:52.003Z</time></trkpt><trkpt lat="40.462983" lon="15.2210492"><ele>146.20000000000002</ele><time>2026-05-05T09:49:53.004Z</time></trkpt><trkpt lat="40.4630558" lon="15.2210839"><ele>144.4</ele><time>2026-05-05T09:49:54.004Z</time></trkpt><trkpt lat="40.4631206" lon="15.2210908"><ele>142.60000000000002</ele><time>2026-05-05T09:49:55.004Z</time></trkpt><trkpt lat="40.4632275" lon="15.2210125"><ele>140.8</ele><time>2026-05-05T09:49:57.004Z</time></trkpt><trkpt lat="40.4632886" lon="15.2209312"><ele>139.0</ele><time>2026-05-05T09:49:58.004Z</time></trkpt><trkpt lat="40.4633572" lon="15.2208327"><ele>139.0</ele><time>2026-05-05T09:49:59.004Z</time></trkpt><trkpt lat="40.4634272" lon="15.2207168"><ele>139.0</ele><time>2026-05-05T09:50:00.004Z</time></trkpt><trkpt lat="40.4634982" lon="15.2205863"><ele>139.0</ele><time>2026-05-05T09:50:01.003Z</time></trkpt><trkpt lat="40.4635719" lon="15.2204259"><ele>139.0</ele><time>2026-05-05T09:50:02.004Z</time></trkpt><trkpt lat="40.4636614" lon="15.2202361"><ele>138.75</ele><time>2026-05-05T09:50:03.003Z</time></trkpt><trkpt lat="40.4637471" lon="15.2200628"><ele>138.5</ele><time>2026-05-05T09:50:04.004Z</time></trkpt><trkpt lat="40.4638151" lon="15.2199191"><ele>138.25</ele><time>2026-05-05T09:50:05.003Z</time></trkpt><trkpt lat="40.4638839" lon="15.2197879"><ele>138.0</ele><time>2026-05-05T09:50:06.004Z</time></trkpt><trkpt lat="40.4639512" lon="15.2196735"><ele>137.4</ele><time>2026-05-05T09:50:07.004Z</time></trkpt><trkpt lat="40.4640303" lon="15.2195728"><ele>136.8</ele><time>2026-05-05T09:50:08.004Z</time></trkpt><trkpt lat="40.4641164" lon="15.219479"><ele>136.2</ele><time>2026-05-05T09:50:09.004Z</time></trkpt><trkpt lat="40.4641969" lon="15.2193968"><ele>135.6</ele><time>2026-05-05T09:50:10.003Z</time></trkpt><trkpt lat="40.4642752" lon="15.2193109"><ele>135.0</ele><time>2026-05-05T09:50:11.003Z</time></trkpt><trkpt lat="40.4643973" lon="15.2192668"><ele>135.0</ele><time>2026-05-05T09:50:12.003Z</time></trkpt><trkpt lat="40.464506" lon="15.2192056"><ele>135.0</ele><time>2026-05-05T09:50:13.003Z</time></trkpt><trkpt lat="40.4646082" lon="15.2191535"><ele>135.0</ele><time>2026-05-05T09:50:14.003Z</time></trkpt><trkpt lat="40.4647004" lon="15.2191072"><ele>135.0</ele><time>2026-05-05T09:50:15.003Z</time></trkpt><trkpt lat="40.464789" lon="15.2190902"><ele>135.0</ele><time>2026-05-05T09:50:16.004Z</time></trkpt><trkpt lat="40.464886" lon="15.2190952"><ele>134.66666666666666</ele><time>2026-05-05T09:50:17.003Z</time></trkpt><trkpt lat="40.4649809" lon="15.2191189"><ele>134.33333333333334</ele><time>2026-05-05T09:50:18.004Z</time></trkpt><trkpt lat="40.4650447" lon="15.2191441"><ele>134.0</ele><time>2026-05-05T09:50:19.004Z</time></trkpt><trkpt lat="40.4651215" lon="15.2192345"><ele>133.66666666666669</ele><time>2026-05-05T09:50:21.003Z</time></trkpt><trkpt lat="40.4651503" lon="15.2193363"><ele>133.33333333333334</ele><time>2026-05-05T09:50:23.003Z</time></trkpt><trkpt lat="40.465146" lon="15.2194358"><ele>133.0</ele><time>2026-05-05T09:50:25.003Z</time></trkpt><trkpt lat="40.4651162" lon="15.2195484"><ele>133.0</ele><time>2026-05-05T09:50:27.003Z</time></trkpt><trkpt lat="40.4650705" lon="15.2197063"><ele>133.0</ele><time>2026-05-05T09:50:29.003Z</time></trkpt><trkpt lat="40.4650434" lon="15.2197966"><ele>133.0</ele><time>2026-05-05T09:50:30.004Z</time></trkpt><trkpt lat="40.4649947" lon="15.2199348"><ele>133.0</ele><time>2026-05-05T09:50:32.004Z</time></trkpt><trkpt lat="40.4649405" lon="15.220073"><ele>133.0</ele><time>2026-05-05T09:50:34.004Z</time></trkpt><trkpt lat="40.4649031" lon="15.22014"><ele>133.66666666666669</ele><time>2026-05-05T09:50:35.004Z</time></trkpt><trkpt lat="40.464867" lon="15.220213"><ele>134.33333333333334</ele><time>2026-05-05T09:50:36.004Z</time></trkpt><trkpt lat="40.4648156" lon="15.2203333"><ele>135.0</ele><time>2026-05-05T09:50:38.003Z</time></trkpt><trkpt lat="40.4647835" lon="15.2204053"><ele>135.66666666666666</ele><time>2026-05-05T09:50:39.004Z</time></trkpt><trkpt lat="40.4647466" lon="15.2204799"><ele>136.33333333333331</ele><time>2026-05-05T09:50:40.004Z</time></trkpt><trkpt lat="40.4647112" lon="15.2205526"><ele>137.0</ele><time>2026-05-05T09:50:41.004Z</time></trkpt><trkpt lat="40.4646591" lon="15.2207052"><ele>137.00000000000003</ele><time>2026-05-05T09:50:43.004Z</time></trkpt><trkpt lat="40.4646267" lon="15.2207827"><ele>137.0</ele><time>2026-05-05T09:50:44.004Z</time></trkpt><trkpt lat="40.4645917" lon="15.2208687"><ele>137.0</ele><time>2026-05-05T09:50:45.003Z</time></trkpt><trkpt lat="40.4645568" lon="15.2209558"><ele>137.0</ele><time>2026-05-05T09:50:46.003Z</time></trkpt><trkpt lat="40.46452" lon="15.221038"><ele>137.0</ele><time>2026-05-05T09:50:47.004Z</time></trkpt><trkpt lat="40.4644875" lon="15.221113"><ele>137.00000000000003</ele><time>2026-05-05T09:50:48.004Z</time></trkpt><trkpt lat="40.4644502" lon="15.2211861"><ele>137.0</ele><time>2026-05-05T09:50:49.004Z</time></trkpt><trkpt lat="40.4643897" lon="15.2213279"><ele>138.83333333333331</ele><time>2026-05-05T09:50:51.003Z</time></trkpt><trkpt lat="40.464366" lon="15.2214072"><ele>140.66666666666666</ele><time>2026-05-05T09:50:52.004Z</time></trkpt><trkpt lat="40.4643495" lon="15.2214953"><ele>142.5</ele><time>2026-05-05T09:50:53.003Z</time></trkpt><trkpt lat="40.4643347" lon="15.2215936"><ele>144.33333333333334</ele><time>2026-05-05T09:50:54.003Z</time></trkpt><trkpt lat="40.4643158" lon="15.2216929"><ele>146.16666666666669</ele><time>2026-05-05T09:50:55.003Z</time></trkpt><trkpt lat="40.4643083" lon="15.2218018"><ele>148.0</ele><time>2026-05-05T09:50:56.004Z</time></trkpt><trkpt lat="40.4643004" lon="15.2219138"><ele>148.66666666666669</ele><time>2026-05-05T09:50:57.004Z</time></trkpt><trkpt lat="40.4642845" lon="15.2220162"><ele>149.33333333333334</ele><time>2026-05-05T09:50:58.004Z</time></trkpt><trkpt lat="40.4642611" lon="15.222126"><ele>150.0</ele><time>2026-05-05T09:50:59.004Z</time></trkpt><trkpt lat="40.4642361" lon="15.2222259"><ele>150.66666666666666</ele><time>2026-05-05T09:51:00.004Z</time></trkpt><trkpt lat="40.4642073" lon="15.2223289"><ele>151.33333333333331</ele><time>2026-05-05T09:51:01.003Z</time></trkpt><trkpt lat="40.4641829" lon="15.2224296"><ele>152.0</ele><time>2026-05-05T09:51:02.002Z</time></trkpt><trkpt lat="40.4641601" lon="15.2225343"><ele>152.0</ele><time>2026-05-05T09:51:03.004Z</time></trkpt><trkpt lat="40.4641468" lon="15.2226381"><ele>152.0</ele><time>2026-05-05T09:51:04.004Z</time></trkpt><trkpt lat="40.464139" lon="15.2227386"><ele>152.0</ele><time>2026-05-05T09:51:05.004Z</time></trkpt><trkpt lat="40.4641367" lon="15.2228361"><ele>152.0</ele><time>2026-05-05T09:51:06.004Z</time></trkpt><trkpt lat="40.464145" lon="15.2229286"><ele>152.0</ele><time>2026-05-05T09:51:07.003Z</time></trkpt><trkpt lat="40.4641694" lon="15.2230341"><ele>152.0</ele><time>2026-05-05T09:51:08.003Z</time></trkpt><trkpt lat="40.464203" lon="15.2231497"><ele>152.0</ele><time>2026-05-05T09:51:09.003Z</time></trkpt><trkpt lat="40.4642444" lon="15.2232717"><ele>152.0</ele><time>2026-05-05T09:51:10.003Z</time></trkpt><trkpt lat="40.4642831" lon="15.2233844"><ele>152.0</ele><time>2026-05-05T09:51:11.003Z</time></trkpt><trkpt lat="40.464318" lon="15.2235046"><ele>152.0</ele><time>2026-05-05T09:51:12.003Z</time></trkpt><trkpt lat="40.4643443" lon="15.2236238"><ele>152.0</ele><time>2026-05-05T09:51:13.004Z</time></trkpt><trkpt lat="40.4643564" lon="15.2237419"><ele>152.0</ele><time>2026-05-05T09:51:14.003Z</time></trkpt><trkpt lat="40.4643509" lon="15.2238596"><ele>152.0</ele><time>2026-05-05T09:51:15.003Z</time></trkpt><trkpt lat="40.4643365" lon="15.2239777"><ele>152.0</ele><time>2026-05-05T09:51:16.003Z</time></trkpt><trkpt lat="40.4643282" lon="15.2240937"><ele>152.0</ele><time>2026-05-05T09:51:17.004Z</time></trkpt><trkpt lat="40.4643292" lon="15.2241943"><ele>152.0</ele><time>2026-05-05T09:51:18.004Z</time></trkpt><trkpt lat="40.4643439" lon="15.2243023"><ele>152.0</ele><time>2026-05-05T09:51:19.004Z</time></trkpt><trkpt lat="40.4643691" lon="15.2244154"><ele>152.6</ele><time>2026-05-05T09:51:20.004Z</time></trkpt><trkpt lat="40.4643965" lon="15.2245323"><ele>153.2</ele><time>2026-05-05T09:51:21.003Z</time></trkpt><trkpt lat="40.46443" lon="15.2246441"><ele>153.8</ele><time>2026-05-05T09:51:22.004Z</time></trkpt><trkpt lat="40.4644644" lon="15.2247745"><ele>154.4</ele><time>2026-05-05T09:51:23.003Z</time></trkpt><trkpt lat="40.464495" lon="15.2249138"><ele>155.0</ele><time>2026-05-05T09:51:24.004Z</time></trkpt><trkpt lat="40.4645262" lon="15.2250612"><ele>155.8</ele><time>2026-05-05T09:51:25.004Z</time></trkpt><trkpt lat="40.4645553" lon="15.2252128"><ele>156.6</ele><time>2026-05-05T09:51:26.004Z</time></trkpt><trkpt lat="40.464573" lon="15.2253469"><ele>157.4</ele><time>2026-05-05T09:51:27.004Z</time></trkpt><trkpt lat="40.4645805" lon="15.2254837"><ele>158.2</ele><time>2026-05-05T09:51:28.004Z</time></trkpt><trkpt lat="40.464581" lon="15.2256108"><ele>159.0</ele><time>2026-05-05T09:51:29.004Z</time></trkpt><trkpt lat="40.4645679" lon="15.2257449"><ele>159.8</ele><time>2026-05-05T09:51:30.004Z</time></trkpt><trkpt lat="40.4645523" lon="15.2258831"><ele>160.60000000000002</ele><time>2026-05-05T09:51:31.004Z</time></trkpt><trkpt lat="40.4645453" lon="15.2260238"><ele>161.4</ele><time>2026-05-05T09:51:32.004Z</time></trkpt><trkpt lat="40.4645403" lon="15.2261611"><ele>162.20000000000002</ele><time>2026-05-05T09:51:33.002Z</time></trkpt><trkpt lat="40.4645269" lon="15.2262951"><ele>163.0</ele><time>2026-05-05T09:51:34.003Z</time></trkpt><trkpt lat="40.4645068" lon="15.2264314"><ele>164.75</ele><time>2026-05-05T09:51:35.004Z</time></trkpt><trkpt lat="40.464495" lon="15.2265725"><ele>166.5</ele><time>2026-05-05T09:51:36.004Z</time></trkpt><trkpt lat="40.4644976" lon="15.2267396"><ele>168.25</ele><time>2026-05-05T09:51:37.004Z</time></trkpt><trkpt lat="40.4645022" lon="15.2269254"><ele>170.0</ele><time>2026-05-05T09:51:38.003Z</time></trkpt><trkpt lat="40.4645043" lon="15.2271117"><ele>170.0</ele><time>2026-05-05T09:51:39.003Z</time></trkpt><trkpt lat="40.4645075" lon="15.2272794"><ele>170.0</ele><time>2026-05-05T09:51:40.003Z</time></trkpt><trkpt lat="40.4645172" lon="15.2274437"><ele>170.0</ele><time>2026-05-05T09:51:41.002Z</time></trkpt><trkpt lat="40.4645225" lon="15.2276028"><ele>170.0</ele><time>2026-05-05T09:51:42.004Z</time></trkpt><trkpt lat="40.4645292" lon="15.2277333"><ele>171.75</ele><time>2026-05-05T09:51:43.003Z</time></trkpt><trkpt lat="40.4645241" lon="15.2278789"><ele>173.5</ele><time>2026-05-05T09:51:44.003Z</time></trkpt><trkpt lat="40.4645208" lon="15.2280237"><ele>175.25</ele><time>2026-05-05T09:51:45.003Z</time></trkpt><trkpt lat="40.4645192" lon="15.2281878"><ele>177.0</ele><time>2026-05-05T09:51:46.004Z</time></trkpt><trkpt lat="40.4645083" lon="15.2283651"><ele>178.39999999999998</ele><time>2026-05-05T09:51:47.003Z</time></trkpt><trkpt lat="40.4644949" lon="15.2285085"><ele>179.79999999999998</ele><time>2026-05-05T09:51:48.004Z</time></trkpt><trkpt lat="40.4644896" lon="15.2286485"><ele>181.2</ele><time>2026-05-05T09:51:49.002Z</time></trkpt><trkpt lat="40.464491" lon="15.2287759"><ele>182.6</ele><time>2026-05-05T09:51:50.004Z</time></trkpt><trkpt lat="40.4645113" lon="15.2288952"><ele>184.0</ele><time>2026-05-05T09:51:51.003Z</time></trkpt><trkpt lat="40.4645433" lon="15.2290332"><ele>183.6</ele><time>2026-05-05T09:51:52.003Z</time></trkpt><trkpt lat="40.4645693" lon="15.2291743"><ele>183.2</ele><time>2026-05-05T09:51:53.004Z</time></trkpt><trkpt lat="40.4645984" lon="15.2293161"><ele>182.79999999999998</ele><time>2026-05-05T09:51:54.004Z</time></trkpt><trkpt lat="40.4646232" lon="15.2294493"><ele>182.39999999999998</ele><time>2026-05-05T09:51:55.002Z</time></trkpt><trkpt lat="40.4646417" lon="15.2295782"><ele>182.0</ele><time>2026-05-05T09:51:56.004Z</time></trkpt><trkpt lat="40.4646484" lon="15.2296981"><ele>183.0</ele><time>2026-05-05T09:51:57.004Z</time></trkpt><trkpt lat="40.4646438" lon="15.2298132"><ele>184.0</ele><time>2026-05-05T09:51:58.004Z</time></trkpt><trkpt lat="40.4646178" lon="15.2299353"><ele>185.0</ele><time>2026-05-05T09:51:59.003Z</time></trkpt><trkpt lat="40.4645766" lon="15.2300586"><ele>186.0</ele><time>2026-05-05T09:52:00.004Z</time></trkpt><trkpt lat="40.4645235" lon="15.2301865"><ele>187.0</ele><time>2026-05-05T09:52:01.003Z</time></trkpt><trkpt lat="40.4644689" lon="15.2303181"><ele>188.6</ele><time>2026-05-05T09:52:02.004Z</time></trkpt><trkpt lat="40.4644139" lon="15.2304442"><ele>190.2</ele><time>2026-05-05T09:52:03.003Z</time></trkpt><trkpt lat="40.464358" lon="15.2305505"><ele>191.8</ele><time>2026-05-05T09:52:04.004Z</time></trkpt><trkpt lat="40.4643" lon="15.2306368"><ele>193.4</ele><time>2026-05-05T09:52:05.003Z</time></trkpt><trkpt lat="40.4642436" lon="15.2307339"><ele>195.0</ele><time>2026-05-05T09:52:06.003Z</time></trkpt><trkpt lat="40.4641884" lon="15.2308408"><ele>196.2</ele><time>2026-05-05T09:52:07.004Z</time></trkpt><trkpt lat="40.4641302" lon="15.2309519"><ele>197.4</ele><time>2026-05-05T09:52:08.003Z</time></trkpt><trkpt lat="40.4640771" lon="15.2310736"><ele>198.60000000000002</ele><time>2026-05-05T09:52:09.004Z</time></trkpt><trkpt lat="40.4640226" lon="15.2312031"><ele>199.8</ele><time>2026-05-05T09:52:10.003Z</time></trkpt><trkpt lat="40.463971" lon="15.2313234"><ele>201.0</ele><time>2026-05-05T09:52:11.003Z</time></trkpt><trkpt lat="40.4639231" lon="15.2314507"><ele>201.8</ele><time>2026-05-05T09:52:12.004Z</time></trkpt><trkpt lat="40.4638793" lon="15.231568"><ele>202.60000000000002</ele><time>2026-05-05T09:52:13.003Z</time></trkpt><trkpt lat="40.4638317" lon="15.2316841"><ele>203.4</ele><time>2026-05-05T09:52:14.004Z</time></trkpt><trkpt lat="40.4637666" lon="15.2317916"><ele>204.2</ele><time>2026-05-05T09:52:15.003Z</time></trkpt><trkpt lat="40.4636895" lon="15.2319029"><ele>205.0</ele><time>2026-05-05T09:52:16.004Z</time></trkpt><trkpt lat="40.4636234" lon="15.2320131"><ele>205.75</ele><time>2026-05-05T09:52:17.003Z</time></trkpt><trkpt lat="40.4635741" lon="15.2321323"><ele>206.5</ele><time>2026-05-05T09:52:18.004Z</time></trkpt><trkpt lat="40.4635358" lon="15.2322687"><ele>207.25</ele><time>2026-05-05T09:52:19.003Z</time></trkpt><trkpt lat="40.4634961" lon="15.232416"><ele>208.0</ele><time>2026-05-05T09:52:20.004Z</time></trkpt><trkpt lat="40.4634586" lon="15.2325696"><ele>210.0</ele><time>2026-05-05T09:52:21.004Z</time></trkpt><trkpt lat="40.4634096" lon="15.2327266"><ele>212.0</ele><time>2026-05-05T09:52:22.004Z</time></trkpt><trkpt lat="40.4633523" lon="15.2328805"><ele>214.0</ele><time>2026-05-05T09:52:23.003Z</time></trkpt><trkpt lat="40.4632923" lon="15.2330321"><ele>216.0</ele><time>2026-05-05T09:52:24.004Z</time></trkpt><trkpt lat="40.4632295" lon="15.233173"><ele>217.75</ele><time>2026-05-05T09:52:25.004Z</time></trkpt><trkpt lat="40.4631724" lon="15.2332964"><ele>219.5</ele><time>2026-05-05T09:52:26.003Z</time></trkpt><trkpt lat="40.4631149" lon="15.2334223"><ele>221.25</ele><time>2026-05-05T09:52:27.003Z</time></trkpt><trkpt lat="40.4630543" lon="15.2335509"><ele>223.0</ele><time>2026-05-05T09:52:28.003Z</time></trkpt><trkpt lat="40.4629924" lon="15.2336781"><ele>223.75</ele><time>2026-05-05T09:52:29.004Z</time></trkpt><trkpt lat="40.4629307" lon="15.2338089"><ele>224.5</ele><time>2026-05-05T09:52:30.003Z</time></trkpt><trkpt lat="40.4628705" lon="15.2339443"><ele>225.25</ele><time>2026-05-05T09:52:31.004Z</time></trkpt><trkpt lat="40.4628023" lon="15.23409"><ele>226.0</ele><time>2026-05-05T09:52:32.004Z</time></trkpt><trkpt lat="40.4627365" lon="15.2342285"><ele>227.49999999999997</ele><time>2026-05-05T09:52:33.004Z</time></trkpt><trkpt lat="40.4626859" lon="15.2343456"><ele>229.0</ele><time>2026-05-05T09:52:34.004Z</time></trkpt><trkpt lat="40.462651" lon="15.234443"><ele>230.5</ele><time>2026-05-05T09:52:35.003Z</time></trkpt><trkpt lat="40.4626305" lon="15.2345481"><ele>232.0</ele><time>2026-05-05T09:52:37.004Z</time></trkpt><trkpt lat="40.4627315" lon="15.2345375"><ele>233.49999999999997</ele><time>2026-05-05T09:52:40.004Z</time></trkpt><trkpt lat="40.4628" lon="15.2345123"><ele>235.0</ele><time>2026-05-05T09:52:41.004Z</time></trkpt><trkpt lat="40.4628689" lon="15.2345032"><ele>234.99999999999997</ele><time>2026-05-05T09:52:42.002Z</time></trkpt><trkpt lat="40.4629455" lon="15.2345045"><ele>235.0</ele><time>2026-05-05T09:52:43.004Z</time></trkpt><trkpt lat="40.4630256" lon="15.23451"><ele>235.0</ele><time>2026-05-05T09:52:44.004Z</time></trkpt><trkpt lat="40.4631105" lon="15.2345211"><ele>235.0</ele><time>2026-05-05T09:52:45.003Z</time></trkpt><trkpt lat="40.4631966" lon="15.2345512"><ele>234.99999999999997</ele><time>2026-05-05T09:52:46.004Z</time></trkpt><trkpt lat="40.4632843" lon="15.2345867"><ele>235.0</ele><time>2026-05-05T09:52:47.004Z</time></trkpt><trkpt lat="40.4633767" lon="15.2346185"><ele>234.0</ele><time>2026-05-05T09:52:48.003Z</time></trkpt><trkpt lat="40.4634729" lon="15.2346533"><ele>233.0</ele><time>2026-05-05T09:52:49.004Z</time></trkpt><trkpt lat="40.4635725" lon="15.2346837"><ele>232.0</ele><time>2026-05-05T09:52:50.004Z</time></trkpt><trkpt lat="40.4636772" lon="15.2347051"><ele>231.0</ele><time>2026-05-05T09:52:51.004Z</time></trkpt><trkpt lat="40.4637856" lon="15.2347126"><ele>230.0</ele><time>2026-05-05T09:52:52.004Z</time></trkpt><trkpt lat="40.4638978" lon="15.2347119"><ele>226.8</ele><time>2026-05-05T09:52:53.004Z</time></trkpt><trkpt lat="40.4640113" lon="15.234708"><ele>223.6</ele><time>2026-05-05T09:52:54.003Z</time></trkpt><trkpt lat="40.46412" lon="15.2347015"><ele>220.39999999999998</ele><time>2026-05-05T09:52:55.003Z</time></trkpt><trkpt lat="40.4642233" lon="15.2347085"><ele>217.2</ele><time>2026-05-05T09:52:56.004Z</time></trkpt><trkpt lat="40.4643221" lon="15.2347352"><ele>214.0</ele><time>2026-05-05T09:52:57.003Z</time></trkpt><trkpt lat="40.4644148" lon="15.2347781"><ele>214.16666666666666</ele><time>2026-05-05T09:52:58.004Z</time></trkpt><trkpt lat="40.4645026" lon="15.2348285"><ele>214.33333333333331</ele><time>2026-05-05T09:52:59.004Z</time></trkpt><trkpt lat="40.4645883" lon="15.2348771"><ele>214.5</ele><time>2026-05-05T09:53:00.004Z</time></trkpt><trkpt lat="40.4646749" lon="15.2349174"><ele>214.66666666666669</ele><time>2026-05-05T09:53:01.003Z</time></trkpt><trkpt lat="40.4647633" lon="15.2349353"><ele>214.83333333333334</ele><time>2026-05-05T09:53:02.002Z</time></trkpt><trkpt lat="40.4648409" lon="15.2349166"><ele>215.0</ele><time>2026-05-05T09:53:03.004Z</time></trkpt><trkpt lat="40.4648981" lon="15.2348598"><ele>213.50000000000003</ele><time>2026-05-05T09:53:04.004Z</time></trkpt><trkpt lat="40.4649452" lon="15.2347791"><ele>212.0</ele><time>2026-05-05T09:53:05.003Z</time></trkpt><trkpt lat="40.4649856" lon="15.2346789"><ele>210.5</ele><time>2026-05-05T09:53:06.003Z</time></trkpt><trkpt lat="40.4650183" lon="15.2345848"><ele>209.0</ele><time>2026-05-05T09:53:07.003Z</time></trkpt><trkpt lat="40.4650572" lon="15.234494"><ele>207.50000000000003</ele><time>2026-05-05T09:53:08.003Z</time></trkpt><trkpt lat="40.4650955" lon="15.2344116"><ele>206.0</ele><time>2026-05-05T09:53:09.004Z</time></trkpt><trkpt lat="40.465164" lon="15.2343396"><ele>206.00000000000003</ele><time>2026-05-05T09:53:11.004Z</time></trkpt><trkpt lat="40.4652665" lon="15.2343457"><ele>206.0</ele><time>2026-05-05T09:53:13.003Z</time></trkpt><trkpt lat="40.4653367" lon="15.2343591"><ele>206.0</ele><time>2026-05-05T09:53:14.003Z</time></trkpt><trkpt lat="40.4654049" lon="15.2343782"><ele>206.0</ele><time>2026-05-05T09:53:15.003Z</time></trkpt><trkpt lat="40.4654721" lon="15.234399"><ele>206.00000000000003</ele><time>2026-05-05T09:53:16.004Z</time></trkpt><trkpt lat="40.4655434" lon="15.2344244"><ele>206.0</ele><time>2026-05-05T09:53:17.003Z</time></trkpt><trkpt lat="40.4656159" lon="15.2344479"><ele>206.16666666666669</ele><time>2026-05-05T09:53:18.004Z</time></trkpt><trkpt lat="40.4656896" lon="15.2344696"><ele>206.33333333333334</ele><time>2026-05-05T09:53:19.004Z</time></trkpt><trkpt lat="40.4657563" lon="15.2344886"><ele>206.5</ele><time>2026-05-05T09:53:20.002Z</time></trkpt><trkpt lat="40.465822" lon="15.2345072"><ele>206.66666666666669</ele><time>2026-05-05T09:53:21.004Z</time></trkpt><trkpt lat="40.4659287" lon="15.2345375"><ele>206.83333333333334</ele><time>2026-05-05T09:53:23.004Z</time></trkpt><trkpt lat="40.4660111" lon="15.2345602"><ele>207.0</ele><time>2026-05-05T09:53:25.004Z</time></trkpt><trkpt lat="40.4660957" lon="15.2345758"><ele>207.00000000000003</ele><time>2026-05-05T09:53:27.003Z</time></trkpt><trkpt lat="40.4661607" lon="15.2345973"><ele>207.0</ele><time>2026-05-05T09:53:29.003Z</time></trkpt><trkpt lat="40.4662252" lon="15.2346231"><ele>207.0</ele><time>2026-05-05T09:53:32.004Z</time></trkpt><trkpt lat="40.4662781" lon="15.2346734"><ele>207.0</ele><time>2026-05-05T09:53:40.004Z</time></trkpt><trkpt lat="40.4663427" lon="15.2347198"><ele>207.0</ele><time>2026-05-05T09:53:44.004Z</time></trkpt><trkpt lat="40.4664087" lon="15.2347558"><ele>207.00000000000003</ele><time>2026-05-05T09:53:48.003Z</time></trkpt><trkpt lat="40.4664816" lon="15.2347983"><ele>207.0</ele><time>2026-05-05T09:53:52.004Z</time></trkpt><trkpt lat="40.4665524" lon="15.2347716"><ele>205.57142857142858</ele><time>2026-05-05T09:53:55.003Z</time></trkpt><trkpt lat="40.466611" lon="15.2347372"><ele>204.14285714285714</ele><time>2026-05-05T09:53:58.003Z</time></trkpt><trkpt lat="40.4666795" lon="15.2346977"><ele>202.71428571428572</ele><time>2026-05-05T09:54:02.004Z</time></trkpt><trkpt lat="40.4667388" lon="15.2346676"><ele>201.28571428571428</ele><time>2026-05-05T09:54:05.003Z</time></trkpt><trkpt lat="40.4666768" lon="15.2347212"><ele>199.85714285714286</ele><time>2026-05-05T09:54:46.004Z</time></trkpt><trkpt lat="40.466603" lon="15.2347366"><ele>198.42857142857144</ele><time>2026-05-05T09:54:49.004Z</time></trkpt><trkpt lat="40.4665438" lon="15.234782"><ele>197.0</ele><time>2026-05-05T09:54:51.004Z</time></trkpt><trkpt lat="40.4664614" lon="15.2347967"><ele>197.0</ele><time>2026-05-05T09:54:53.003Z</time></trkpt><trkpt lat="40.4663894" lon="15.2347502"><ele>197.0</ele><time>2026-05-05T09:54:55.004Z</time></trkpt><trkpt lat="40.4663172" lon="15.2347038"><ele>197.0</ele><time>2026-05-05T09:54:57.004Z</time></trkpt><trkpt lat="40.4662288" lon="15.2346358"><ele>197.0</ele><time>2026-05-05T09:54:59.003Z</time></trkpt><trkpt lat="40.4661557" lon="15.2346013"><ele>197.0</ele><time>2026-05-05T09:55:01.004Z</time></trkpt><trkpt lat="40.4660463" lon="15.2345676"><ele>198.66666666666669</ele><time>2026-05-05T09:55:03.004Z</time></trkpt><trkpt lat="40.4659767" lon="15.2345485"><ele>200.33333333333334</ele><time>2026-05-05T09:55:04.003Z</time></trkpt><trkpt lat="40.4659004" lon="15.2345275"><ele>202.0</ele><time>2026-05-05T09:55:05.004Z</time></trkpt><trkpt lat="40.4658205" lon="15.2345049"><ele>203.66666666666669</ele><time>2026-05-05T09:55:06.003Z</time></trkpt><trkpt lat="40.4657378" lon="15.2344816"><ele>205.33333333333334</ele><time>2026-05-05T09:55:07.003Z</time></trkpt><trkpt lat="40.4656583" lon="15.2344586"><ele>207.0</ele><time>2026-05-05T09:55:08.003Z</time></trkpt><trkpt lat="40.465588" lon="15.2344364"><ele>207.0</ele><time>2026-05-05T09:55:09.004Z</time></trkpt><trkpt lat="40.4655173" lon="15.2344136"><ele>207.0</ele><time>2026-05-05T09:55:10.002Z</time></trkpt><trkpt lat="40.4654459" lon="15.2343922"><ele>207.0</ele><time>2026-05-05T09:55:11.004Z</time></trkpt><trkpt lat="40.4653731" lon="15.2343761"><ele>207.0</ele><time>2026-05-05T09:55:12.004Z</time></trkpt><trkpt lat="40.4653031" lon="15.2343661"><ele>207.0</ele><time>2026-05-05T09:55:13.003Z</time></trkpt><trkpt lat="40.4651889" lon="15.2343384"><ele>207.0</ele><time>2026-05-05T09:55:15.004Z</time></trkpt><trkpt lat="40.4651559" lon="15.2342604"><ele>206.8</ele><time>2026-05-05T09:55:17.003Z</time></trkpt><trkpt lat="40.465234" lon="15.2341465"><ele>206.6</ele><time>2026-05-05T09:55:19.003Z</time></trkpt><trkpt lat="40.4652935" lon="15.2340771"><ele>206.4</ele><time>2026-05-05T09:55:20.003Z</time></trkpt><trkpt lat="40.4653536" lon="15.2340082"><ele>206.20000000000002</ele><time>2026-05-05T09:55:21.002Z</time></trkpt><trkpt lat="40.4654239" lon="15.2339335"><ele>206.0</ele><time>2026-05-05T09:55:22.004Z</time></trkpt><trkpt lat="40.4654918" lon="15.2338597"><ele>205.16666666666669</ele><time>2026-05-05T09:55:23.004Z</time></trkpt><trkpt lat="40.4655566" lon="15.2337826"><ele>204.33333333333334</ele><time>2026-05-05T09:55:24.002Z</time></trkpt><trkpt lat="40.4656178" lon="15.2337001"><ele>203.5</ele><time>2026-05-05T09:55:25.003Z</time></trkpt><trkpt lat="40.4656742" lon="15.2336136"><ele>202.66666666666669</ele><time>2026-05-05T09:55:26.004Z</time></trkpt><trkpt lat="40.465729" lon="15.233524"><ele>201.83333333333334</ele><time>2026-05-05T09:55:27.003Z</time></trkpt><trkpt lat="40.4657851" lon="15.2334328"><ele>201.0</ele><time>2026-05-05T09:55:28.003Z</time></trkpt><trkpt lat="40.4658414" lon="15.2333401"><ele>201.0</ele><time>2026-05-05T09:55:29.002Z</time></trkpt><trkpt lat="40.4658992" lon="15.2332454"><ele>201.0</ele><time>2026-05-05T09:55:30.004Z</time></trkpt><trkpt lat="40.4659578" lon="15.2331509"><ele>201.0</ele><time>2026-05-05T09:55:31.004Z</time></trkpt><trkpt lat="40.4660151" lon="15.2330551"><ele>201.0</ele><time>2026-05-05T09:55:32.004Z</time></trkpt><trkpt lat="40.4660729" lon="15.2329613"><ele>201.0</ele><time>2026-05-05T09:55:33.004Z</time></trkpt><trkpt lat="40.4661316" lon="15.2328697"><ele>199.5</ele><time>2026-05-05T09:55:34.003Z</time></trkpt><trkpt lat="40.4661936" lon="15.2327902"><ele>198.0</ele><time>2026-05-05T09:55:35.003Z</time></trkpt><trkpt lat="40.4662604" lon="15.2327233"><ele>196.5</ele><time>2026-05-05T09:55:36.003Z</time></trkpt><trkpt lat="40.4663235" lon="15.232656"><ele>195.0</ele><time>2026-05-05T09:55:37.002Z</time></trkpt><trkpt lat="40.4663806" lon="15.2325786"><ele>193.5</ele><time>2026-05-05T09:55:38.004Z</time></trkpt><trkpt lat="40.4664317" lon="15.232494"><ele>192.0</ele><time>2026-05-05T09:55:39.004Z</time></trkpt><trkpt lat="40.4664784" lon="15.2324029"><ele>191.33333333333334</ele><time>2026-05-05T09:55:40.004Z</time></trkpt><trkpt lat="40.4665172" lon="15.2323129"><ele>190.66666666666666</ele><time>2026-05-05T09:55:41.004Z</time></trkpt><trkpt lat="40.4665546" lon="15.2322189"><ele>190.0</ele><time>2026-05-05T09:55:42.004Z</time></trkpt><trkpt lat="40.4665947" lon="15.2321244"><ele>189.33333333333331</ele><time>2026-05-05T09:55:43.003Z</time></trkpt><trkpt lat="40.4666374" lon="15.2320288"><ele>188.66666666666666</ele><time>2026-05-05T09:55:44.004Z</time></trkpt><trkpt lat="40.4666787" lon="15.2319294"><ele>188.0</ele><time>2026-05-05T09:55:45.004Z</time></trkpt><trkpt lat="40.4667238" lon="15.2318281"><ele>186.4</ele><time>2026-05-05T09:55:46.003Z</time></trkpt><trkpt lat="40.4667759" lon="15.2317296"><ele>184.8</ele><time>2026-05-05T09:55:47.004Z</time></trkpt><trkpt lat="40.4668337" lon="15.2316353"><ele>183.2</ele><time>2026-05-05T09:55:48.003Z</time></trkpt><trkpt lat="40.4668919" lon="15.2315437"><ele>181.6</ele><time>2026-05-05T09:55:49.003Z</time></trkpt><trkpt lat="40.4669437" lon="15.2314488"><ele>180.0</ele><time>2026-05-05T09:55:50.003Z</time></trkpt><trkpt lat="40.4669885" lon="15.2313489"><ele>177.8</ele><time>2026-05-05T09:55:51.003Z</time></trkpt><trkpt lat="40.4670276" lon="15.2312464"><ele>175.6</ele><time>2026-05-05T09:55:52.004Z</time></trkpt><trkpt lat="40.467063" lon="15.2311387"><ele>173.39999999999998</ele><time>2026-05-05T09:55:53.004Z</time></trkpt><trkpt lat="40.4670962" lon="15.2310288"><ele>171.2</ele><time>2026-05-05T09:55:54.003Z</time></trkpt><trkpt lat="40.4671363" lon="15.2309218"><ele>169.0</ele><time>2026-05-05T09:55:55.004Z</time></trkpt><trkpt lat="40.4671924" lon="15.2308246"><ele>168.6</ele><time>2026-05-05T09:55:56.003Z</time></trkpt><trkpt lat="40.4672615" lon="15.2307424"><ele>168.2</ele><time>2026-05-05T09:55:57.003Z</time></trkpt><trkpt lat="40.4673412" lon="15.2306761"><ele>167.79999999999998</ele><time>2026-05-05T09:55:58.003Z</time></trkpt><trkpt lat="40.4674244" lon="15.2306148"><ele>167.39999999999998</ele><time>2026-05-05T09:55:59.004Z</time></trkpt><trkpt lat="40.4675074" lon="15.2305498"><ele>167.0</ele><time>2026-05-05T09:56:00.002Z</time></trkpt><trkpt lat="40.4675876" lon="15.2304729"><ele>165.4</ele><time>2026-05-05T09:56:01.004Z</time></trkpt><trkpt lat="40.4676625" lon="15.2303824"><ele>163.79999999999998</ele><time>2026-05-05T09:56:02.004Z</time></trkpt><trkpt lat="40.4677314" lon="15.2302823"><ele>162.2</ele><time>2026-05-05T09:56:03.004Z</time></trkpt><trkpt lat="40.4677919" lon="15.2301762"><ele>160.6</ele><time>2026-05-05T09:56:04.004Z</time></trkpt><trkpt lat="40.4678367" lon="15.2300646"><ele>159.0</ele><time>2026-05-05T09:56:05.003Z</time></trkpt><trkpt lat="40.4678692" lon="15.2299492"><ele>159.0</ele><time>2026-05-05T09:56:06.004Z</time></trkpt><trkpt lat="40.4678971" lon="15.2298384"><ele>159.0</ele><time>2026-05-05T09:56:07.004Z</time></trkpt><trkpt lat="40.4679293" lon="15.2297249"><ele>159.0</ele><time>2026-05-05T09:56:08.003Z</time></trkpt><trkpt lat="40.4679635" lon="15.2296104"><ele>159.0</ele><time>2026-05-05T09:56:09.004Z</time></trkpt><trkpt lat="40.4679972" lon="15.2294932"><ele>159.0</ele><time>2026-05-05T09:56:10.003Z</time></trkpt><trkpt lat="40.4680347" lon="15.2293773"><ele>160.8</ele><time>2026-05-05T09:56:11.004Z</time></trkpt><trkpt lat="40.4680826" lon="15.2292719"><ele>162.60000000000002</ele><time>2026-05-05T09:56:12.002Z</time></trkpt><trkpt lat="40.4681356" lon="15.2291715"><ele>164.4</ele><time>2026-05-05T09:56:13.004Z</time></trkpt><trkpt lat="40.4681929" lon="15.229074"><ele>166.20000000000002</ele><time>2026-05-05T09:56:14.003Z</time></trkpt><trkpt lat="40.4682501" lon="15.2289779"><ele>168.0</ele><time>2026-05-05T09:56:15.004Z</time></trkpt><trkpt lat="40.4683034" lon="15.2288742"><ele>168.60000000000002</ele><time>2026-05-05T09:56:16.004Z</time></trkpt><trkpt lat="40.4683541" lon="15.2287687"><ele>169.20000000000002</ele><time>2026-05-05T09:56:17.004Z</time></trkpt><trkpt lat="40.4684033" lon="15.2286617"><ele>169.8</ele><time>2026-05-05T09:56:18.004Z</time></trkpt><trkpt lat="40.4684461" lon="15.2285601"><ele>170.4</ele><time>2026-05-05T09:56:19.003Z</time></trkpt><trkpt lat="40.4684843" lon="15.2284532"><ele>171.0</ele><time>2026-05-05T09:56:20.004Z</time></trkpt><trkpt lat="40.468515" lon="15.2283474"><ele>171.0</ele><time>2026-05-05T09:56:21.003Z</time></trkpt><trkpt lat="40.4685414" lon="15.2282343"><ele>171.0</ele><time>2026-05-05T09:56:22.004Z</time></trkpt><trkpt lat="40.4685647" lon="15.2281208"><ele>171.0</ele><time>2026-05-05T09:56:23.003Z</time></trkpt><trkpt lat="40.4685844" lon="15.2280167"><ele>171.0</ele><time>2026-05-05T09:56:24.004Z</time></trkpt><trkpt lat="40.4686004" lon="15.2279188"><ele>171.0</ele><time>2026-05-05T09:56:25.004Z</time></trkpt><trkpt lat="40.468609" lon="15.2278284"><ele>171.0</ele><time>2026-05-05T09:56:26.003Z</time></trkpt><trkpt lat="40.4686106" lon="15.2277326"><ele>170.8</ele><time>2026-05-05T09:56:27.004Z</time></trkpt><trkpt lat="40.4686063" lon="15.227619"><ele>170.60000000000002</ele><time>2026-05-05T09:56:28.002Z</time></trkpt><trkpt lat="40.4685961" lon="15.2274986"><ele>170.4</ele><time>2026-05-05T09:56:29.004Z</time></trkpt><trkpt lat="40.4685845" lon="15.2273688"><ele>170.2</ele><time>2026-05-05T09:56:30.003Z</time></trkpt><trkpt lat="40.4685692" lon="15.2272358"><ele>170.0</ele><time>2026-05-05T09:56:31.003Z</time></trkpt><trkpt lat="40.4685545" lon="15.2271059"><ele>171.0</ele><time>2026-05-05T09:56:32.004Z</time></trkpt><trkpt lat="40.4685402" lon="15.2269797"><ele>172.0</ele><time>2026-05-05T09:56:33.004Z</time></trkpt><trkpt lat="40.4685254" lon="15.2268568"><ele>173.0</ele><time>2026-05-05T09:56:34.004Z</time></trkpt><trkpt lat="40.4685125" lon="15.2267354"><ele>174.0</ele><time>2026-05-05T09:56:35.004Z</time></trkpt><trkpt lat="40.4685058" lon="15.2266217"><ele>175.0</ele><time>2026-05-05T09:56:36.004Z</time></trkpt><trkpt lat="40.4685011" lon="15.2265145"><ele>175.16666666666669</ele><time>2026-05-05T09:56:37.003Z</time></trkpt><trkpt lat="40.4684937" lon="15.2264065"><ele>175.33333333333334</ele><time>2026-05-05T09:56:38.004Z</time></trkpt><trkpt lat="40.4684906" lon="15.2262967"><ele>175.5</ele><time>2026-05-05T09:56:39.004Z</time></trkpt><trkpt lat="40.4685064" lon="15.2261921"><ele>175.66666666666666</ele><time>2026-05-05T09:56:40.003Z</time></trkpt><trkpt lat="40.4685433" lon="15.2261043"><ele>175.83333333333331</ele><time>2026-05-05T09:56:41.003Z</time></trkpt><trkpt lat="40.4685792" lon="15.2260272"><ele>176.0</ele><time>2026-05-05T09:56:42.003Z</time></trkpt><trkpt lat="40.4686104" lon="15.2259471"><ele>176.0</ele><time>2026-05-05T09:56:43.003Z</time></trkpt><trkpt lat="40.4686727" lon="15.2258102"><ele>176.0</ele><time>2026-05-05T09:56:45.003Z</time></trkpt><trkpt lat="40.4687035" lon="15.2257259"><ele>176.0</ele><time>2026-05-05T09:56:46.003Z</time></trkpt><trkpt lat="40.468733" lon="15.2256274"><ele>176.0</ele><time>2026-05-05T09:56:47.004Z</time></trkpt><trkpt lat="40.4687666" lon="15.2255186"><ele>176.0</ele><time>2026-05-05T09:56:48.004Z</time></trkpt><trkpt lat="40.4688055" lon="15.2254029"><ele>177.60000000000002</ele><time>2026-05-05T09:56:49.004Z</time></trkpt><trkpt lat="40.4688485" lon="15.2252813"><ele>179.2</ele><time>2026-05-05T09:56:50.004Z</time></trkpt><trkpt lat="40.4688906" lon="15.2251563"><ele>180.8</ele><time>2026-05-05T09:56:51.004Z</time></trkpt><trkpt lat="40.4689333" lon="15.2250256"><ele>182.39999999999998</ele><time>2026-05-05T09:56:52.003Z</time></trkpt><trkpt lat="40.4689772" lon="15.2248926"><ele>184.0</ele><time>2026-05-05T09:56:53.004Z</time></trkpt><trkpt lat="40.4690234" lon="15.2247598"><ele>184.0</ele><time>2026-05-05T09:56:54.004Z</time></trkpt><trkpt lat="40.4690717" lon="15.2246269"><ele>184.0</ele><time>2026-05-05T09:56:55.003Z</time></trkpt><trkpt lat="40.469121" lon="15.2244971"><ele>184.0</ele><time>2026-05-05T09:56:56.003Z</time></trkpt><trkpt lat="40.4691646" lon="15.2243783"><ele>184.0</ele><time>2026-05-05T09:56:57.003Z</time></trkpt><trkpt lat="40.469204" lon="15.224274"><ele>184.0</ele><time>2026-05-05T09:56:58.004Z</time></trkpt><trkpt lat="40.4692439" lon="15.2241882"><ele>184.0</ele><time>2026-05-05T09:56:59.003Z</time></trkpt><trkpt lat="40.4692891" lon="15.224123"><ele>184.0</ele><time>2026-05-05T09:57:00.004Z</time></trkpt><trkpt lat="40.4693717" lon="15.2240525"><ele>184.0</ele><time>2026-05-05T09:57:02.004Z</time></trkpt><trkpt lat="40.4694069" lon="15.2239772"><ele>184.0</ele><time>2026-05-05T09:57:06.004Z</time></trkpt><trkpt lat="40.46935" lon="15.2239268"><ele>184.0</ele><time>2026-05-05T09:57:09.004Z</time></trkpt><trkpt lat="40.4693041" lon="15.2238243"><ele>184.0</ele><time>2026-05-05T09:57:11.002Z</time></trkpt><trkpt lat="40.4692455" lon="15.2236931"><ele>183.14285714285714</ele><time>2026-05-05T09:57:13.004Z</time></trkpt><trkpt lat="40.4692135" lon="15.2236173"><ele>182.28571428571428</ele><time>2026-05-05T09:57:14.004Z</time></trkpt><trkpt lat="40.4691795" lon="15.2235459"><ele>181.42857142857142</ele><time>2026-05-05T09:57:15.004Z</time></trkpt><trkpt lat="40.4691499" lon="15.2234685"><ele>180.57142857142856</ele><time>2026-05-05T09:57:16.004Z</time></trkpt><trkpt lat="40.4691242" lon="15.2233843"><ele>179.71428571428572</ele><time>2026-05-05T09:57:17.004Z</time></trkpt><trkpt lat="40.4691002" lon="15.223296"><ele>178.85714285714283</ele><time>2026-05-05T09:57:18.003Z</time></trkpt><trkpt lat="40.469077" lon="15.2232066"><ele>178.0</ele><time>2026-05-05T09:57:19.003Z</time></trkpt><trkpt lat="40.4690609" lon="15.2231112"><ele>177.14285714285714</ele><time>2026-05-05T09:57:20.003Z</time></trkpt><trkpt lat="40.4690441" lon="15.2230167"><ele>176.28571428571428</ele><time>2026-05-05T09:57:21.004Z</time></trkpt><trkpt lat="40.4690264" lon="15.2229239"><ele>175.42857142857144</ele><time>2026-05-05T09:57:22.003Z</time></trkpt><trkpt lat="40.4690084" lon="15.2228312"><ele>174.57142857142856</ele><time>2026-05-05T09:57:23.003Z</time></trkpt><trkpt lat="40.468988" lon="15.2227437"><ele>173.71428571428572</ele><time>2026-05-05T09:57:24.003Z</time></trkpt><trkpt lat="40.4689603" lon="15.2226605"><ele>172.85714285714286</ele><time>2026-05-05T09:57:25.004Z</time></trkpt><trkpt lat="40.4689257" lon="15.2225815"><ele>172.0</ele><time>2026-05-05T09:57:26.004Z</time></trkpt><trkpt lat="40.4688848" lon="15.2225076"><ele>172.00000000000003</ele><time>2026-05-05T09:57:27.004Z</time></trkpt><trkpt lat="40.468841" lon="15.2224349"><ele>172.0</ele><time>2026-05-05T09:57:28.004Z</time></trkpt><trkpt lat="40.4687983" lon="15.22236"><ele>172.0</ele><time>2026-05-05T09:57:29.003Z</time></trkpt><trkpt lat="40.4687603" lon="15.2222798"><ele>172.0</ele><time>2026-05-05T09:57:30.004Z</time></trkpt><trkpt lat="40.4687285" lon="15.2221945"><ele>172.0</ele><time>2026-05-05T09:57:31.003Z</time></trkpt><trkpt lat="40.4686983" lon="15.2221058"><ele>172.00000000000003</ele><time>2026-05-05T09:57:32.003Z</time></trkpt><trkpt lat="40.4686741" lon="15.2220131"><ele>172.0</ele><time>2026-05-05T09:57:33.004Z</time></trkpt><trkpt lat="40.4686478" lon="15.2219161"><ele>170.0</ele><time>2026-05-05T09:57:34.004Z</time></trkpt><trkpt lat="40.4686202" lon="15.2218261"><ele>168.0</ele><time>2026-05-05T09:57:35.004Z</time></trkpt><trkpt lat="40.4685839" lon="15.2217368"><ele>166.0</ele><time>2026-05-05T09:57:36.004Z</time></trkpt><trkpt lat="40.4685581" lon="15.2216453"><ele>164.0</ele><time>2026-05-05T09:57:37.003Z</time></trkpt><trkpt lat="40.4685403" lon="15.2215538"><ele>162.0</ele><time>2026-05-05T09:57:38.004Z</time></trkpt><trkpt lat="40.4685124" lon="15.2214731"><ele>160.0</ele><time>2026-05-05T09:57:39.004Z</time></trkpt><trkpt lat="40.4684537" lon="15.2213729"><ele>159.33333333333334</ele><time>2026-05-05T09:57:41.002Z</time></trkpt><trkpt lat="40.4684155" lon="15.2212448"><ele>158.66666666666669</ele><time>2026-05-05T09:57:43.004Z</time></trkpt><trkpt lat="40.4683811" lon="15.2210969"><ele>158.0</ele><time>2026-05-05T09:57:45.004Z</time></trkpt><trkpt lat="40.4683598" lon="15.2210124"><ele>157.33333333333334</ele><time>2026-05-05T09:57:46.003Z</time></trkpt><trkpt lat="40.4683401" lon="15.2209267"><ele>156.66666666666666</ele><time>2026-05-05T09:57:47.003Z</time></trkpt><trkpt lat="40.4683186" lon="15.2208362"><ele>156.0</ele><time>2026-05-05T09:57:48.004Z</time></trkpt><trkpt lat="40.4682932" lon="15.2207478"><ele>156.0</ele><time>2026-05-05T09:57:49.003Z</time></trkpt><trkpt lat="40.4682666" lon="15.2206608"><ele>156.0</ele><time>2026-05-05T09:57:50.003Z</time></trkpt><trkpt lat="40.4682406" lon="15.2205708"><ele>156.0</ele><time>2026-05-05T09:57:51.003Z</time></trkpt><trkpt lat="40.4682185" lon="15.2204808"><ele>156.0</ele><time>2026-05-05T09:57:52.003Z</time></trkpt><trkpt lat="40.4681978" lon="15.2203937"><ele>156.0</ele><time>2026-05-05T09:57:53.004Z</time></trkpt><trkpt lat="40.4681809" lon="15.2203086"><ele>156.0</ele><time>2026-05-05T09:57:54.004Z</time></trkpt><trkpt lat="40.4681707" lon="15.2202196"><ele>156.0</ele><time>2026-05-05T09:57:55.004Z</time></trkpt><trkpt lat="40.4681622" lon="15.2201282"><ele>155.0</ele><time>2026-05-05T09:57:56.004Z</time></trkpt><trkpt lat="40.4681558" lon="15.2200343"><ele>154.0</ele><time>2026-05-05T09:57:57.003Z</time></trkpt><trkpt lat="40.4681561" lon="15.2199447"><ele>153.0</ele><time>2026-05-05T09:57:58.004Z</time></trkpt><trkpt lat="40.4681575" lon="15.2198546"><ele>152.0</ele><time>2026-05-05T09:57:59.004Z</time></trkpt><trkpt lat="40.4681617" lon="15.2197663"><ele>151.0</ele><time>2026-05-05T09:58:00.003Z</time></trkpt><trkpt lat="40.4681579" lon="15.2196797"><ele>150.0</ele><time>2026-05-05T09:58:01.004Z</time></trkpt><trkpt lat="40.4681516" lon="15.2195966"><ele>149.0</ele><time>2026-05-05T09:58:02.004Z</time></trkpt><trkpt lat="40.468144" lon="15.2195101"><ele>147.85714285714286</ele><time>2026-05-05T09:58:03.004Z</time></trkpt><trkpt lat="40.4681371" lon="15.2194193"><ele>146.7142857142857</ele><time>2026-05-05T09:58:04.004Z</time></trkpt><trkpt lat="40.4681296" lon="15.2193253"><ele>145.57142857142856</ele><time>2026-05-05T09:58:05.003Z</time></trkpt><trkpt lat="40.4681173" lon="15.2192344"><ele>144.42857142857142</ele><time>2026-05-05T09:58:06.004Z</time></trkpt><trkpt lat="40.4681062" lon="15.2191412"><ele>143.28571428571428</ele><time>2026-05-05T09:58:07.003Z</time></trkpt><trkpt lat="40.4680923" lon="15.2190473"><ele>142.14285714285714</ele><time>2026-05-05T09:58:08.004Z</time></trkpt><trkpt lat="40.4680751" lon="15.2189535"><ele>141.0</ele><time>2026-05-05T09:58:09.004Z</time></trkpt><trkpt lat="40.4680557" lon="15.2188609"><ele>139.85714285714286</ele><time>2026-05-05T09:58:10.003Z</time></trkpt><trkpt lat="40.4680389" lon="15.2187651"><ele>138.71428571428572</ele><time>2026-05-05T09:58:11.004Z</time></trkpt><trkpt lat="40.4680263" lon="15.2186703"><ele>137.57142857142856</ele><time>2026-05-05T09:58:12.004Z</time></trkpt><trkpt lat="40.4680153" lon="15.2185766"><ele>136.42857142857144</ele><time>2026-05-05T09:58:13.004Z</time></trkpt><trkpt lat="40.4680069" lon="15.2184819"><ele>135.28571428571428</ele><time>2026-05-05T09:58:14.003Z</time></trkpt><trkpt lat="40.468005" lon="15.2183863"><ele>134.14285714285714</ele><time>2026-05-05T09:58:15.003Z</time></trkpt><trkpt lat="40.4680055" lon="15.2182883"><ele>133.0</ele><time>2026-05-05T09:58:16.002Z</time></trkpt><trkpt lat="40.4680045" lon="15.2182052"><ele>132.33333333333334</ele><time>2026-05-05T09:58:17.003Z</time></trkpt><trkpt lat="40.4679543" lon="15.2181048"><ele>131.66666666666669</ele><time>2026-05-05T09:58:19.003Z</time></trkpt><trkpt lat="40.4678374" lon="15.2180708"><ele>131.0</ele><time>2026-05-05T09:58:21.003Z</time></trkpt><trkpt lat="40.4677696" lon="15.2180663"><ele>130.33333333333334</ele><time>2026-05-05T09:58:22.004Z</time></trkpt><trkpt lat="40.4677007" lon="15.2180669"><ele>129.66666666666666</ele><time>2026-05-05T09:58:23.004Z</time></trkpt><trkpt lat="40.4676283" lon="15.2180664"><ele>129.0</ele><time>2026-05-05T09:58:24.003Z</time></trkpt><trkpt lat="40.4675559" lon="15.2180709"><ele>128.7142857142857</ele><time>2026-05-05T09:58:25.003Z</time></trkpt><trkpt lat="40.467482" lon="15.2180816"><ele>128.42857142857142</ele><time>2026-05-05T09:58:26.003Z</time></trkpt><trkpt lat="40.4674123" lon="15.2181003"><ele>128.14285714285714</ele><time>2026-05-05T09:58:27.004Z</time></trkpt><trkpt lat="40.4673448" lon="15.2181254"><ele>127.85714285714285</ele><time>2026-05-05T09:58:28.003Z</time></trkpt><trkpt lat="40.4672783" lon="15.2181561"><ele>127.57142857142856</ele><time>2026-05-05T09:58:29.003Z</time></trkpt><trkpt lat="40.4672107" lon="15.2181885"><ele>127.28571428571429</ele><time>2026-05-05T09:58:30.004Z</time></trkpt><trkpt lat="40.4671466" lon="15.2182167"><ele>127.0</ele><time>2026-05-05T09:58:31.004Z</time></trkpt><trkpt lat="40.4670817" lon="15.2182405"><ele>127.0</ele><time>2026-05-05T09:58:32.004Z</time></trkpt><trkpt lat="40.4669832" lon="15.218243"><ele>126.99999999999999</ele><time>2026-05-05T09:58:34.004Z</time></trkpt><trkpt lat="40.4669677" lon="15.2181175"><ele>126.99999999999999</ele><time>2026-05-05T09:58:37.003Z</time></trkpt><trkpt lat="40.4670237" lon="15.2179638"><ele>127.0</ele><time>2026-05-05T09:58:39.004Z</time></trkpt><trkpt lat="40.4671129" lon="15.2178586"><ele>127.0</ele><time>2026-05-05T09:58:41.004Z</time></trkpt><trkpt lat="40.4671847" lon="15.2178324"><ele>127.00000000000001</ele><time>2026-05-05T09:58:42.004Z</time></trkpt><trkpt lat="40.467262" lon="15.217816"><ele>127.0</ele><time>2026-05-05T09:58:43.003Z</time></trkpt><trkpt lat="40.4673418" lon="15.2178038"><ele>127.0</ele><time>2026-05-05T09:58:44.003Z</time></trkpt><trkpt lat="40.4674199" lon="15.2177956"><ele>127.0</ele><time>2026-05-05T09:58:45.004Z</time></trkpt><trkpt lat="40.4674952" lon="15.2177747"><ele>127.00000000000001</ele><time>2026-05-05T09:58:46.003Z</time></trkpt><trkpt lat="40.4675666" lon="15.2177539"><ele>127.0</ele><time>2026-05-05T09:58:47.003Z</time></trkpt><trkpt lat="40.4676381" lon="15.217728"><ele>127.00000000000001</ele><time>2026-05-05T09:58:48.004Z</time></trkpt><trkpt lat="40.4677115" lon="15.2177057"><ele>127.0</ele><time>2026-05-05T09:58:49.003Z</time></trkpt><trkpt lat="40.4677838" lon="15.217689"><ele>127.0</ele><time>2026-05-05T09:58:50.004Z</time></trkpt><trkpt lat="40.4678588" lon="15.2176749"><ele>127.0</ele><time>2026-05-05T09:58:51.004Z</time></trkpt><trkpt lat="40.4679229" lon="15.2176641"><ele>127.00000000000001</ele><time>2026-05-05T09:58:52.002Z</time></trkpt><trkpt lat="40.4680286" lon="15.2176515"><ele>127.0</ele><time>2026-05-05T09:58:54.003Z</time></trkpt><trkpt lat="40.4681524" lon="15.2176546"><ele>127.33333333333334</ele><time>2026-05-05T09:58:56.003Z</time></trkpt><trkpt lat="40.4682244" lon="15.2176612"><ele>127.66666666666667</ele><time>2026-05-05T09:58:57.004Z</time></trkpt><trkpt lat="40.4683005" lon="15.2176748"><ele>128.0</ele><time>2026-05-05T09:58:58.004Z</time></trkpt><trkpt lat="40.4683833" lon="15.217685"><ele>128.33333333333334</ele><time>2026-05-05T09:58:59.002Z</time></trkpt><trkpt lat="40.4684705" lon="15.2176961"><ele>128.66666666666666</ele><time>2026-05-05T09:59:00.003Z</time></trkpt><trkpt lat="40.4685528" lon="15.2177052"><ele>129.0</ele><time>2026-05-05T09:59:01.003Z</time></trkpt><trkpt lat="40.4686334" lon="15.2177104"><ele>129.0</ele><time>2026-05-05T09:59:02.004Z</time></trkpt><trkpt lat="40.4687149" lon="15.2177192"><ele>129.0</ele><time>2026-05-05T09:59:03.004Z</time></trkpt><trkpt lat="40.4687973" lon="15.2177333"><ele>129.0</ele><time>2026-05-05T09:59:04.002Z</time></trkpt><trkpt lat="40.4688795" lon="15.2177531"><ele>129.0</ele><time>2026-05-05T09:59:05.004Z</time></trkpt><trkpt lat="40.4689609" lon="15.2177742"><ele>129.0</ele><time>2026-05-05T09:59:06.004Z</time></trkpt><trkpt lat="40.4690433" lon="15.2177975"><ele>129.0</ele><time>2026-05-05T09:59:07.002Z</time></trkpt><trkpt lat="40.469122" lon="15.2178258"><ele>128.85714285714283</ele><time>2026-05-05T09:59:08.004Z</time></trkpt><trkpt lat="40.469197" lon="15.2178545"><ele>128.71428571428572</ele><time>2026-05-05T09:59:09.003Z</time></trkpt><trkpt lat="40.4692682" lon="15.2178818"><ele>128.57142857142856</ele><time>2026-05-05T09:59:10.004Z</time></trkpt><trkpt lat="40.4693345" lon="15.2179103"><ele>128.42857142857142</ele><time>2026-05-05T09:59:11.004Z</time></trkpt><trkpt lat="40.4693938" lon="15.2179426"><ele>128.28571428571428</ele><time>2026-05-05T09:59:12.003Z</time></trkpt><trkpt lat="40.4694544" lon="15.2179696"><ele>128.14285714285714</ele><time>2026-05-05T09:59:13.004Z</time></trkpt><trkpt lat="40.4695177" lon="15.2179986"><ele>128.0</ele><time>2026-05-05T09:59:14.004Z</time></trkpt><trkpt lat="40.4695788" lon="15.2180305"><ele>127.49999999999999</ele><time>2026-05-05T09:59:15.004Z</time></trkpt><trkpt lat="40.4696485" lon="15.2180608"><ele>127.0</ele><time>2026-05-05T09:59:16.004Z</time></trkpt><trkpt lat="40.4697149" lon="15.2180932"><ele>126.5</ele><time>2026-05-05T09:59:17.003Z</time></trkpt><trkpt lat="40.4698279" lon="15.2181519"><ele>126.0</ele><time>2026-05-05T09:59:19.003Z</time></trkpt><trkpt lat="40.4698883" lon="15.2181867"><ele>125.49999999999999</ele><time>2026-05-05T09:59:20.003Z</time></trkpt><trkpt lat="40.4699496" lon="15.218223"><ele>125.0</ele><time>2026-05-05T09:59:21.003Z</time></trkpt><trkpt lat="40.4700114" lon="15.2182617"><ele>124.99999999999999</ele><time>2026-05-05T09:59:22.004Z</time></trkpt><trkpt lat="40.4700749" lon="15.218301"><ele>125.0</ele><time>2026-05-05T09:59:23.003Z</time></trkpt><trkpt lat="40.4701408" lon="15.2183434"><ele>125.0</ele><time>2026-05-05T09:59:24.004Z</time></trkpt><trkpt lat="40.4702006" lon="15.2183837"><ele>125.0</ele><time>2026-05-05T09:59:25.004Z</time></trkpt><trkpt lat="40.4702808" lon="15.2184462"><ele>124.99999999999999</ele><time>2026-05-05T09:59:27.004Z</time></trkpt><trkpt lat="40.4703393" lon="15.2184909"><ele>125.0</ele><time>2026-05-05T09:59:30.004Z</time></trkpt><trkpt lat="40.470271" lon="15.2184367"><ele>125.0</ele><time>2026-05-05T09:59:59.003Z</time></trkpt><trkpt lat="40.4701698" lon="15.2183685"><ele>125.0</ele><time>2026-05-05T10:00:01.004Z</time></trkpt><trkpt lat="40.4701129" lon="15.2183309"><ele>125.0</ele><time>2026-05-05T10:00:02.003Z</time></trkpt><trkpt lat="40.4699946" lon="15.2182508"><ele>125.0</ele><time>2026-05-05T10:00:04.003Z</time></trkpt><trkpt lat="40.4699305" lon="15.2182147"><ele>125.0</ele><time>2026-05-05T10:00:05.003Z</time></trkpt><trkpt lat="40.4698636" lon="15.2181827"><ele>125.0</ele><time>2026-05-05T10:00:06.003Z</time></trkpt><trkpt lat="40.4697977" lon="15.2181522"><ele>125.0</ele><time>2026-05-05T10:00:07.003Z</time></trkpt><trkpt lat="40.4697292" lon="15.2181123"><ele>125.0</ele><time>2026-05-05T10:00:08.003Z</time></trkpt><trkpt lat="40.4696664" lon="15.2180721"><ele>125.0</ele><time>2026-05-05T10:00:09.004Z</time></trkpt><trkpt lat="40.4695948" lon="15.2180334"><ele>125.0</ele><time>2026-05-05T10:00:10.004Z</time></trkpt><trkpt lat="40.4695235" lon="15.2179994"><ele>125.0</ele><time>2026-05-05T10:00:11.004Z</time></trkpt><trkpt lat="40.4694522" lon="15.217967"><ele>125.0</ele><time>2026-05-05T10:00:12.004Z</time></trkpt><trkpt lat="40.4693794" lon="15.2179336"><ele>125.42857142857142</ele><time>2026-05-05T10:00:13.004Z</time></trkpt><trkpt lat="40.4693076" lon="15.2179052"><ele>125.85714285714286</ele><time>2026-05-05T10:00:14.004Z</time></trkpt><trkpt lat="40.4692385" lon="15.217875"><ele>126.28571428571428</ele><time>2026-05-05T10:00:15.004Z</time></trkpt><trkpt lat="40.4691699" lon="15.2178492"><ele>126.71428571428571</ele><time>2026-05-05T10:00:16.003Z</time></trkpt><trkpt lat="40.4691014" lon="15.2178297"><ele>127.14285714285714</ele><time>2026-05-05T10:00:17.003Z</time></trkpt><trkpt lat="40.4690323" lon="15.2178092"><ele>127.57142857142857</ele><time>2026-05-05T10:00:18.004Z</time></trkpt><trkpt lat="40.4689636" lon="15.217789"><ele>128.0</ele><time>2026-05-05T10:00:19.003Z</time></trkpt><trkpt lat="40.4688907" lon="15.2177662"><ele>127.99999999999999</ele><time>2026-05-05T10:00:20.004Z</time></trkpt><trkpt lat="40.4688167" lon="15.2177483"><ele>128.0</ele><time>2026-05-05T10:00:21.003Z</time></trkpt><trkpt lat="40.4687406" lon="15.2177331"><ele>128.0</ele><time>2026-05-05T10:00:22.002Z</time></trkpt><trkpt lat="40.4686606" lon="15.2177233"><ele>128.0</ele><time>2026-05-05T10:00:23.003Z</time></trkpt><trkpt lat="40.468581" lon="15.2177136"><ele>127.99999999999999</ele><time>2026-05-05T10:00:24.004Z</time></trkpt><trkpt lat="40.4685059" lon="15.2177068"><ele>128.0</ele><time>2026-05-05T10:00:25.004Z</time></trkpt><trkpt lat="40.4684284" lon="15.2177003"><ele>128.16666666666666</ele><time>2026-05-05T10:00:26.004Z</time></trkpt><trkpt lat="40.4683532" lon="15.2176938"><ele>128.33333333333331</ele><time>2026-05-05T10:00:27.004Z</time></trkpt><trkpt lat="40.4682877" lon="15.2176886"><ele>128.5</ele><time>2026-05-05T10:00:28.004Z</time></trkpt><trkpt lat="40.4681682" lon="15.2176731"><ele>128.66666666666666</ele><time>2026-05-05T10:00:30.004Z</time></trkpt><trkpt lat="40.4680702" lon="15.2176654"><ele>128.83333333333334</ele><time>2026-05-05T10:00:32.004Z</time></trkpt><trkpt lat="40.4680009" lon="15.2176657"><ele>129.0</ele><time>2026-05-05T10:00:34.004Z</time></trkpt><trkpt lat="40.4679816" lon="15.2175463"><ele>129.0</ele><time>2026-05-05T10:00:38.004Z</time></trkpt><trkpt lat="40.4679792" lon="15.2173967"><ele>129.0</ele><time>2026-05-05T10:00:40.004Z</time></trkpt><trkpt lat="40.467967" lon="15.217229"><ele>129.0</ele><time>2026-05-05T10:00:42.004Z</time></trkpt><trkpt lat="40.4679589" lon="15.2171469"><ele>129.0</ele><time>2026-05-05T10:00:43.004Z</time></trkpt><trkpt lat="40.4679494" lon="15.2170603"><ele>129.0</ele><time>2026-05-05T10:00:44.004Z</time></trkpt><trkpt lat="40.4679419" lon="15.2169779"><ele>129.0</ele><time>2026-05-05T10:00:45.002Z</time></trkpt><trkpt lat="40.4679364" lon="15.2168885"><ele>128.33333333333334</ele><time>2026-05-05T10:00:46.003Z</time></trkpt><trkpt lat="40.4679271" lon="15.2168053"><ele>127.66666666666666</ele><time>2026-05-05T10:00:47.004Z</time></trkpt><trkpt lat="40.4679184" lon="15.2167197"><ele>127.0</ele><time>2026-05-05T10:00:48.004Z</time></trkpt><trkpt lat="40.4679113" lon="15.2166352"><ele>126.33333333333333</ele><time>2026-05-05T10:00:49.004Z</time></trkpt><trkpt lat="40.4678904" lon="15.2164789"><ele>125.66666666666666</ele><time>2026-05-05T10:00:51.004Z</time></trkpt><trkpt lat="40.4678639" lon="15.216327"><ele>125.0</ele><time>2026-05-05T10:00:53.004Z</time></trkpt><trkpt lat="40.467839" lon="15.216184"><ele>124.2</ele><time>2026-05-05T10:00:55.003Z</time></trkpt><trkpt lat="40.4678192" lon="15.2160491"><ele>123.4</ele><time>2026-05-05T10:00:57.003Z</time></trkpt><trkpt lat="40.4677855" lon="15.2159241"><ele>122.6</ele><time>2026-05-05T10:00:59.002Z</time></trkpt><trkpt lat="40.4677559" lon="15.2157869"><ele>121.8</ele><time>2026-05-05T10:01:01.003Z</time></trkpt><trkpt lat="40.4677377" lon="15.2156448"><ele>121.0</ele><time>2026-05-05T10:01:03.003Z</time></trkpt><trkpt lat="40.4677323" lon="15.2155182"><ele>120.16666666666667</ele><time>2026-05-05T10:01:05.004Z</time></trkpt><trkpt lat="40.4677247" lon="15.2154311"><ele>119.33333333333334</ele><time>2026-05-05T10:01:07.004Z</time></trkpt><trkpt lat="40.4677005" lon="15.215342"><ele>118.5</ele><time>2026-05-05T10:01:09.003Z</time></trkpt><trkpt lat="40.467672" lon="15.21523"><ele>117.66666666666666</ele><time>2026-05-05T10:01:11.004Z</time></trkpt><trkpt lat="40.4676623" lon="15.2150905"><ele>116.83333333333333</ele><time>2026-05-05T10:01:13.004Z</time></trkpt><trkpt lat="40.4676411" lon="15.2149473"><ele>116.0</ele><time>2026-05-05T10:01:15.003Z</time></trkpt><trkpt lat="40.467607" lon="15.214806"><ele>115.19999999999999</ele><time>2026-05-05T10:01:17.004Z</time></trkpt><trkpt lat="40.4675715" lon="15.2146677"><ele>114.39999999999999</ele><time>2026-05-05T10:01:19.003Z</time></trkpt><trkpt lat="40.4675204" lon="15.214546"><ele>113.6</ele><time>2026-05-05T10:01:21.002Z</time></trkpt><trkpt lat="40.4674669" lon="15.2144254"><ele>112.8</ele><time>2026-05-05T10:01:23.004Z</time></trkpt><trkpt lat="40.4674162" lon="15.214284"><ele>112.0</ele><time>2026-05-05T10:01:25.002Z</time></trkpt><trkpt lat="40.4673865" lon="15.214208"><ele>112.0</ele><time>2026-05-05T10:01:26.004Z</time></trkpt><trkpt lat="40.4673262" lon="15.2140669"><ele>111.99999999999999</ele><time>2026-05-05T10:01:28.004Z</time></trkpt><trkpt lat="40.4672712" lon="15.2139315"><ele>111.99999999999999</ele><time>2026-05-05T10:01:30.004Z</time></trkpt><trkpt lat="40.4672088" lon="15.2138415"><ele>112.0</ele><time>2026-05-05T10:01:32.004Z</time></trkpt><trkpt lat="40.467113" lon="15.2137876"><ele>112.0</ele><time>2026-05-05T10:01:34.004Z</time></trkpt><trkpt lat="40.466998" lon="15.2137322"><ele>108.5</ele><time>2026-05-05T10:01:36.004Z</time></trkpt><trkpt lat="40.4669034" lon="15.2136351"><ele>105.0</ele><time>2026-05-05T10:01:38.003Z</time></trkpt><trkpt lat="40.4668561" lon="15.2134964"><ele>101.5</ele><time>2026-05-05T10:01:40.003Z</time></trkpt><trkpt lat="40.4668605" lon="15.2133487"><ele>98.0</ele><time>2026-05-05T10:01:42.004Z</time></trkpt><trkpt lat="40.4669256" lon="15.2132142"><ele>96.4</ele><time>2026-05-05T10:01:44.004Z</time></trkpt><trkpt lat="40.4669878" lon="15.2130744"><ele>94.80000000000001</ele><time>2026-05-05T10:01:46.004Z</time></trkpt><trkpt lat="40.4670782" lon="15.2129729"><ele>93.2</ele><time>2026-05-05T10:01:48.004Z</time></trkpt><trkpt lat="40.4671422" lon="15.212927"><ele>91.6</ele><time>2026-05-05T10:01:49.004Z</time></trkpt><trkpt lat="40.4672097" lon="15.2128787"><ele>90.0</ele><time>2026-05-05T10:01:50.004Z</time></trkpt><trkpt lat="40.4672808" lon="15.2128278"><ele>90.0</ele><time>2026-05-05T10:01:51.004Z</time></trkpt><trkpt lat="40.4673499" lon="15.2127776"><ele>90.0</ele><time>2026-05-05T10:01:52.004Z</time></trkpt><trkpt lat="40.4674136" lon="15.2127099"><ele>90.0</ele><time>2026-05-05T10:01:53.004Z</time></trkpt><trkpt lat="40.4674789" lon="15.2126397"><ele>90.0</ele><time>2026-05-05T10:01:54.004Z</time></trkpt><trkpt lat="40.4675381" lon="15.2125797"><ele>90.0</ele><time>2026-05-05T10:01:55.004Z</time></trkpt><trkpt lat="40.4675945" lon="15.2125189"><ele>90.0</ele><time>2026-05-05T10:01:56.004Z</time></trkpt><trkpt lat="40.4676714" lon="15.2124576"><ele>90.0</ele><time>2026-05-05T10:01:58.004Z</time></trkpt><trkpt lat="40.4677075" lon="15.2123464"><ele>90.0</ele><time>2026-05-05T10:02:03.004Z</time></trkpt><trkpt lat="40.4677588" lon="15.2122773"><ele>90.0</ele><time>2026-05-05T10:02:05.004Z</time></trkpt><trkpt lat="40.4678041" lon="15.2122059"><ele>90.0</ele><time>2026-05-05T10:02:07.003Z</time></trkpt><trkpt lat="40.4678002" lon="15.2120922"><ele>90.0</ele><time>2026-05-05T10:02:10.003Z</time></trkpt><trkpt lat="40.4677622" lon="15.212018"><ele>90.0</ele><time>2026-05-05T10:02:12.004Z</time></trkpt><trkpt lat="40.4677813" lon="15.211898"><ele>89.16666666666667</ele><time>2026-05-05T10:02:16.004Z</time></trkpt><trkpt lat="40.4677816" lon="15.2118122"><ele>88.33333333333333</ele><time>2026-05-05T10:02:19.002Z</time></trkpt><trkpt lat="40.4677135" lon="15.2117809"><ele>87.5</ele><time>2026-05-05T10:02:22.003Z</time></trkpt><trkpt lat="40.4676865" lon="15.2116911"><ele>86.66666666666666</ele><time>2026-05-05T10:02:25.004Z</time></trkpt><trkpt lat="40.4677089" lon="15.2116075"><ele>85.83333333333333</ele><time>2026-05-05T10:02:28.004Z</time></trkpt><trkpt lat="40.4676921" lon="15.2115061"><ele>85.0</ele><time>2026-05-05T10:02:32.003Z</time></trkpt><trkpt lat="40.4675715" lon="15.211424"><ele>84.85714285714286</ele><time>2026-05-05T10:06:09.002Z</time></trkpt><trkpt lat="40.4675499" lon="15.2113428"><ele>84.71428571428571</ele><time>2026-05-05T10:06:30.003Z</time></trkpt><trkpt lat="40.4675467" lon="15.2112524"><ele>84.57142857142857</ele><time>2026-05-05T10:06:41.003Z</time></trkpt><trkpt lat="40.4675746" lon="15.211165"><ele>84.42857142857143</ele><time>2026-05-05T10:06:54.003Z</time></trkpt><trkpt lat="40.4676407" lon="15.2111537"><ele>84.28571428571428</ele><time>2026-05-05T10:06:59.003Z</time></trkpt><trkpt lat="40.467704" lon="15.2111143"><ele>84.14285714285714</ele><time>2026-05-05T10:07:04.002Z</time></trkpt><trkpt lat="40.4677483" lon="15.2110391"><ele>84.0</ele><time>2026-05-05T10:07:34.002Z</time></trkpt><trkpt lat="40.4677063" lon="15.2109493"><ele>84.0</ele><time>2026-05-05T10:07:39.002Z</time></trkpt><trkpt lat="40.4676571" lon="15.2108827"><ele>84.0</ele><time>2026-05-05T10:07:42.003Z</time></trkpt><trkpt lat="40.4675951" lon="15.2109263"><ele>84.0</ele><time>2026-05-05T10:07:46.002Z</time></trkpt><trkpt lat="40.4675282" lon="15.2109608"><ele>84.0</ele><time>2026-05-05T10:08:14.003Z</time></trkpt><trkpt lat="40.467509" lon="15.2110524"><ele>84.0</ele><time>2026-05-05T10:08:41.003Z</time></trkpt><trkpt lat="40.4675459" lon="15.21112"><ele>84.0</ele><time>2026-05-05T10:08:49.003Z</time></trkpt><trkpt lat="40.4675806" lon="15.2111936"><ele>84.0</ele><time>2026-05-05T10:08:53.003Z</time></trkpt><trkpt lat="40.4675832" lon="15.2112814"><ele>84.0</ele><time>2026-05-05T10:08:56.002Z</time></trkpt><trkpt lat="40.4676077" lon="15.2113843"><ele>84.0</ele><time>2026-05-05T10:09:08.001Z</time></trkpt><trkpt lat="40.4675713" lon="15.2114706"><ele>84.0</ele><time>2026-05-05T10:10:14.002Z</time></trkpt><trkpt lat="40.46763" lon="15.211502"><ele>84.0</ele><time>2026-05-05T10:10:41.002Z</time></trkpt><trkpt lat="40.4677013" lon="15.2115231"><ele>84.0</ele><time>2026-05-05T10:10:49.002Z</time></trkpt><trkpt lat="40.4677182" lon="15.211612"><ele>84.0</ele><time>2026-05-05T10:10:52.001Z</time></trkpt><trkpt lat="40.4677173" lon="15.2117151"><ele>84.0</ele><time>2026-05-05T10:10:55.001Z</time></trkpt><trkpt lat="40.4677827" lon="15.2117926"><ele>84.16666666666667</ele><time>2026-05-05T10:10:58.001Z</time></trkpt><trkpt lat="40.4678105" lon="15.2118937"><ele>84.33333333333333</ele><time>2026-05-05T10:11:01.002Z</time></trkpt><trkpt lat="40.4677755" lon="15.2119767"><ele>84.5</ele><time>2026-05-05T10:11:03.001Z</time></trkpt><trkpt lat="40.4677792" lon="15.2120751"><ele>84.66666666666666</ele><time>2026-05-05T10:11:06.001Z</time></trkpt><trkpt lat="40.4678085" lon="15.2121487"><ele>84.83333333333333</ele><time>2026-05-05T10:11:08.002Z</time></trkpt><trkpt lat="40.4677995" lon="15.2122319"><ele>85.0</ele><time>2026-05-05T10:11:10.002Z</time></trkpt><trkpt lat="40.4677291" lon="15.2123216"><ele>86.0</ele><time>2026-05-05T10:11:12.002Z</time></trkpt><trkpt lat="40.4676651" lon="15.2124067"><ele>87.0</ele><time>2026-05-05T10:11:14.001Z</time></trkpt><trkpt lat="40.4675952" lon="15.2124998"><ele>88.0</ele><time>2026-05-05T10:11:16.002Z</time></trkpt><trkpt lat="40.4675278" lon="15.212561"><ele>89.0</ele><time>2026-05-05T10:11:18.002Z</time></trkpt><trkpt lat="40.4674641" lon="15.2126451"><ele>90.0</ele><time>2026-05-05T10:11:20Z</time></trkpt><trkpt lat="40.4673957" lon="15.212741"><ele>90.0</ele><time>2026-05-05T10:11:22Z</time></trkpt><trkpt lat="40.4673369" lon="15.2127792"><ele>90.0</ele><time>2026-05-05T10:11:23.001Z</time></trkpt><trkpt lat="40.4672142" lon="15.2128609"><ele>90.0</ele><time>2026-05-05T10:11:25.001Z</time></trkpt><trkpt lat="40.4671435" lon="15.212924"><ele>90.0</ele><time>2026-05-05T10:11:26.001Z</time></trkpt><trkpt lat="40.4670712" lon="15.2129688"><ele>90.0</ele><time>2026-05-05T10:11:27.002Z</time></trkpt><trkpt lat="40.4670155" lon="15.2130126"><ele>90.0</ele><time>2026-05-05T10:11:28.002Z</time></trkpt><trkpt lat="40.4669607" lon="15.2130684"><ele>91.14285714285714</ele><time>2026-05-05T10:11:29.001Z</time></trkpt><trkpt lat="40.4669589" lon="15.2131687"><ele>92.28571428571429</ele><time>2026-05-05T10:11:30.001Z</time></trkpt><trkpt lat="40.4669196" lon="15.2132443"><ele>93.42857142857143</ele><time>2026-05-05T10:11:31.002Z</time></trkpt><trkpt lat="40.4668848" lon="15.2133169"><ele>94.57142857142857</ele><time>2026-05-05T10:11:32.002Z</time></trkpt><trkpt lat="40.466859" lon="15.2134017"><ele>95.71428571428572</ele><time>2026-05-05T10:11:33.002Z</time></trkpt><trkpt lat="40.4668626" lon="15.2134862"><ele>96.85714285714286</ele><time>2026-05-05T10:11:34.002Z</time></trkpt><trkpt lat="40.4668829" lon="15.2135666"><ele>98.0</ele><time>2026-05-05T10:11:35.001Z</time></trkpt><trkpt lat="40.4669598" lon="15.2136971"><ele>98.0</ele><time>2026-05-05T10:11:37.001Z</time></trkpt><trkpt lat="40.4670197" lon="15.2137378"><ele>98.0</ele><time>2026-05-05T10:11:38.002Z</time></trkpt><trkpt lat="40.4670938" lon="15.2137808"><ele>98.0</ele><time>2026-05-05T10:11:39.002Z</time></trkpt><trkpt lat="40.4671617" lon="15.2138093"><ele>98.0</ele><time>2026-05-05T10:11:40.002Z</time></trkpt><trkpt lat="40.4672523" lon="15.2138848"><ele>98.0</ele><time>2026-05-05T10:11:42.002Z</time></trkpt><trkpt lat="40.4673167" lon="15.2140245"><ele>100.33333333333333</ele><time>2026-05-05T10:11:44.002Z</time></trkpt><trkpt lat="40.4673513" lon="15.2141075"><ele>102.66666666666666</ele><time>2026-05-05T10:11:45.002Z</time></trkpt><trkpt lat="40.4673873" lon="15.2141885"><ele>105.0</ele><time>2026-05-05T10:11:46Z</time></trkpt><trkpt lat="40.46744" lon="15.2143342"><ele>107.33333333333334</ele><time>2026-05-05T10:11:48.001Z</time></trkpt><trkpt lat="40.4674725" lon="15.2144123"><ele>109.66666666666667</ele><time>2026-05-05T10:11:49.001Z</time></trkpt><trkpt lat="40.4675032" lon="15.214494"><ele>112.0</ele><time>2026-05-05T10:11:50.001Z</time></trkpt><trkpt lat="40.4675335" lon="15.2145711"><ele>112.0</ele><time>2026-05-05T10:11:51.002Z</time></trkpt><trkpt lat="40.4675658" lon="15.2146558"><ele>112.0</ele><time>2026-05-05T10:11:52.002Z</time></trkpt><trkpt lat="40.4675937" lon="15.2147432"><ele>112.0</ele><time>2026-05-05T10:11:53.002Z</time></trkpt><trkpt lat="40.4676164" lon="15.2148287"><ele>112.0</ele><time>2026-05-05T10:11:54.002Z</time></trkpt><trkpt lat="40.4676359" lon="15.2149114"><ele>112.0</ele><time>2026-05-05T10:11:55.002Z</time></trkpt><trkpt lat="40.4676515" lon="15.2149983"><ele>112.0</ele><time>2026-05-05T10:11:56.002Z</time></trkpt><trkpt lat="40.4676613" lon="15.2150879"><ele>112.0</ele><time>2026-05-05T10:11:57.002Z</time></trkpt><trkpt lat="40.4676732" lon="15.2151735"><ele>112.8</ele><time>2026-05-05T10:11:58.001Z</time></trkpt><trkpt lat="40.4676834" lon="15.2152608"><ele>113.6</ele><time>2026-05-05T10:11:59.002Z</time></trkpt><trkpt lat="40.4677188" lon="15.2153964"><ele>114.39999999999999</ele><time>2026-05-05T10:12:01.001Z</time></trkpt><trkpt lat="40.4677413" lon="15.2155203"><ele>115.19999999999999</ele><time>2026-05-05T10:12:03.002Z</time></trkpt><trkpt lat="40.4677446" lon="15.2156796"><ele>116.0</ele><time>2026-05-05T10:12:05.002Z</time></trkpt><trkpt lat="40.4677609" lon="15.2158425"><ele>117.0</ele><time>2026-05-05T10:12:07.002Z</time></trkpt><trkpt lat="40.4677987" lon="15.2159901"><ele>118.0</ele><time>2026-05-05T10:12:09.001Z</time></trkpt><trkpt lat="40.4678411" lon="15.2161396"><ele>119.0</ele><time>2026-05-05T10:12:11.002Z</time></trkpt><trkpt lat="40.4678498" lon="15.2162261"><ele>120.0</ele><time>2026-05-05T10:12:12.002Z</time></trkpt><trkpt lat="40.4678601" lon="15.2163099"><ele>121.0</ele><time>2026-05-05T10:12:13.001Z</time></trkpt><trkpt lat="40.4678865" lon="15.2164677"><ele>121.66666666666667</ele><time>2026-05-05T10:12:15.002Z</time></trkpt><trkpt lat="40.4678938" lon="15.2165627"><ele>122.33333333333334</ele><time>2026-05-05T10:12:16.002Z</time></trkpt><trkpt lat="40.4679059" lon="15.2166666"><ele>123.0</ele><time>2026-05-05T10:12:17.001Z</time></trkpt><trkpt lat="40.4679182" lon="15.2167782"><ele>123.66666666666666</ele><time>2026-05-05T10:12:18.001Z</time></trkpt><trkpt lat="40.4679292" lon="15.2168956"><ele>124.33333333333333</ele><time>2026-05-05T10:12:19.001Z</time></trkpt><trkpt lat="40.4679384" lon="15.217021"><ele>125.0</ele><time>2026-05-05T10:12:20.001Z</time></trkpt><trkpt lat="40.4679495" lon="15.2171513"><ele>125.16666666666666</ele><time>2026-05-05T10:12:21.002Z</time></trkpt><trkpt lat="40.4679608" lon="15.217281"><ele>125.33333333333333</ele><time>2026-05-05T10:12:22.002Z</time></trkpt><trkpt lat="40.4679701" lon="15.2174019"><ele>125.5</ele><time>2026-05-05T10:12:23.002Z</time></trkpt><trkpt lat="40.4679757" lon="15.2175079"><ele>125.66666666666666</ele><time>2026-05-05T10:12:24.002Z</time></trkpt><trkpt lat="40.4679828" lon="15.2175922"><ele>125.83333333333333</ele><time>2026-05-05T10:12:25.002Z</time></trkpt><trkpt lat="40.4679334" lon="15.2176756"><ele>126.0</ele><time>2026-05-05T10:12:27.002Z</time></trkpt><trkpt lat="40.467821" lon="15.2176991"><ele>126.14285714285714</ele><time>2026-05-05T10:12:29.002Z</time></trkpt><trkpt lat="40.4677483" lon="15.2177156"><ele>126.28571428571428</ele><time>2026-05-05T10:12:30.002Z</time></trkpt><trkpt lat="40.4676743" lon="15.217734"><ele>126.42857142857143</ele><time>2026-05-05T10:12:31.002Z</time></trkpt><trkpt lat="40.4676023" lon="15.217759"><ele>126.57142857142857</ele><time>2026-05-05T10:12:32.002Z</time></trkpt><trkpt lat="40.4675322" lon="15.2177881"><ele>126.71428571428571</ele><time>2026-05-05T10:12:33.001Z</time></trkpt><trkpt lat="40.4674617" lon="15.2178076"><ele>126.85714285714286</ele><time>2026-05-05T10:12:34.001Z</time></trkpt><trkpt lat="40.4673907" lon="15.21782"><ele>127.0</ele><time>2026-05-05T10:12:35.002Z</time></trkpt><trkpt lat="40.4673182" lon="15.2178308"><ele>127.00000000000001</ele><time>2026-05-05T10:12:36.002Z</time></trkpt><trkpt lat="40.4672446" lon="15.2178406"><ele>127.0</ele><time>2026-05-05T10:12:37.001Z</time></trkpt><trkpt lat="40.4671652" lon="15.2178554"><ele>127.0</ele><time>2026-05-05T10:12:38.002Z</time></trkpt><trkpt lat="40.4670943" lon="15.2178843"><ele>127.0</ele><time>2026-05-05T10:12:39.002Z</time></trkpt><trkpt lat="40.4670302" lon="15.2179603"><ele>127.00000000000001</ele><time>2026-05-05T10:12:41.001Z</time></trkpt><trkpt lat="40.4669787" lon="15.2180958"><ele>127.0</ele><time>2026-05-05T10:12:43.002Z</time></trkpt><trkpt lat="40.4669678" lon="15.2182261"><ele>125.66666666666667</ele><time>2026-05-05T10:12:45.001Z</time></trkpt><trkpt lat="40.466891" lon="15.2183074"><ele>124.33333333333334</ele><time>2026-05-05T10:12:53.002Z</time></trkpt><trkpt lat="40.466812" lon="15.2183673"><ele>123.0</ele><time>2026-05-05T10:12:55.002Z</time></trkpt><trkpt lat="40.4667258" lon="15.2183851"><ele>121.66666666666666</ele><time>2026-05-05T10:12:57.001Z</time></trkpt><trkpt lat="40.4666328" lon="15.2183885"><ele>120.33333333333333</ele><time>2026-05-05T10:12:59.002Z</time></trkpt><trkpt lat="40.4665563" lon="15.2184028"><ele>119.0</ele><time>2026-05-05T10:13:01.002Z</time></trkpt><trkpt lat="40.4664976" lon="15.2184578"><ele>118.99999999999999</ele><time>2026-05-05T10:13:03Z</time></trkpt><trkpt lat="40.4664586" lon="15.2185494"><ele>119.0</ele><time>2026-05-05T10:13:05.002Z</time></trkpt><trkpt lat="40.4663964" lon="15.2186327"><ele>119.0</ele><time>2026-05-05T10:13:07.002Z</time></trkpt><trkpt lat="40.4663432" lon="15.2186842"><ele>119.0</ele><time>2026-05-05T10:13:09.001Z</time></trkpt><trkpt lat="40.4662659" lon="15.2187229"><ele>118.99999999999999</ele><time>2026-05-05T10:13:12.001Z</time></trkpt><trkpt lat="40.4661835" lon="15.21878"><ele>119.0</ele><time>2026-05-05T10:13:15.001Z</time></trkpt><trkpt lat="40.466146" lon="15.2188669"><ele>119.16666666666666</ele><time>2026-05-05T10:13:17.001Z</time></trkpt><trkpt lat="40.4661309" lon="15.2189884"><ele>119.33333333333333</ele><time>2026-05-05T10:13:19.002Z</time></trkpt><trkpt lat="40.4660923" lon="15.2190869"><ele>119.5</ele><time>2026-05-05T10:13:21.001Z</time></trkpt><trkpt lat="40.4660267" lon="15.2191699"><ele>119.66666666666666</ele><time>2026-05-05T10:13:24.002Z</time></trkpt><trkpt lat="40.4660105" lon="15.2192501"><ele>119.83333333333333</ele><time>2026-05-05T10:13:26.002Z</time></trkpt><trkpt lat="40.466021" lon="15.2193507"><ele>120.0</ele><time>2026-05-05T10:13:28.002Z</time></trkpt><trkpt lat="40.4660394" lon="15.219459"><ele>120.0</ele><time>2026-05-05T10:13:30.001Z</time></trkpt><trkpt lat="40.4660599" lon="15.2195458"><ele>120.0</ele><time>2026-05-05T10:13:32.002Z</time></trkpt><trkpt lat="40.4659816" lon="15.2195523"><ele>120.0</ele><time>2026-05-05T10:13:37.001Z</time></trkpt><trkpt lat="40.465913" lon="15.2194538"><ele>120.0</ele><time>2026-05-05T10:13:39.002Z</time></trkpt><trkpt lat="40.4658469" lon="15.2193196"><ele>120.0</ele><time>2026-05-05T10:13:41.001Z</time></trkpt><trkpt lat="40.4658044" lon="15.2192438"><ele>120.0</ele><time>2026-05-05T10:13:42.001Z</time></trkpt><trkpt lat="40.46577" lon="15.219165"><ele>120.0</ele><time>2026-05-05T10:13:43.001Z</time></trkpt><trkpt lat="40.4657415" lon="15.2190788"><ele>120.0</ele><time>2026-05-05T10:13:44.001Z</time></trkpt><trkpt lat="40.4657108" lon="15.2189819"><ele>120.0</ele><time>2026-05-05T10:13:45Z</time></trkpt><trkpt lat="40.465627" lon="15.2188838"><ele>120.0</ele><time>2026-05-05T10:13:47.002Z</time></trkpt><trkpt lat="40.4655657" lon="15.2188635"><ele>120.0</ele><time>2026-05-05T10:13:48.002Z</time></trkpt><trkpt lat="40.4654938" lon="15.2188643"><ele>120.0</ele><time>2026-05-05T10:13:49.001Z</time></trkpt><trkpt lat="40.465406" lon="15.2188747"><ele>121.6</ele><time>2026-05-05T10:13:50.002Z</time></trkpt><trkpt lat="40.4653256" lon="15.2188868"><ele>123.2</ele><time>2026-05-05T10:13:51.002Z</time></trkpt><trkpt lat="40.4652578" lon="15.2189051"><ele>124.80000000000001</ele><time>2026-05-05T10:13:52.002Z</time></trkpt><trkpt lat="40.4651505" lon="15.2189599"><ele>126.4</ele><time>2026-05-05T10:13:54.001Z</time></trkpt><trkpt lat="40.4650532" lon="15.2190556"><ele>128.0</ele><time>2026-05-05T10:13:56.001Z</time></trkpt><trkpt lat="40.4649615" lon="15.2191166"><ele>128.83333333333331</ele><time>2026-05-05T10:13:58.002Z</time></trkpt><trkpt lat="40.464854" lon="15.2191143"><ele>129.66666666666666</ele><time>2026-05-05T10:14:00.001Z</time></trkpt><trkpt lat="40.46479" lon="15.2191112"><ele>130.5</ele><time>2026-05-05T10:14:01.001Z</time></trkpt><trkpt lat="40.4647228" lon="15.2191233"><ele>131.33333333333334</ele><time>2026-05-05T10:14:02.002Z</time></trkpt><trkpt lat="40.4646508" lon="15.2191475"><ele>132.16666666666669</ele><time>2026-05-05T10:14:03.002Z</time></trkpt><trkpt lat="40.4645714" lon="15.2191889"><ele>133.0</ele><time>2026-05-05T10:14:04.001Z</time></trkpt><trkpt lat="40.4644899" lon="15.219232"><ele>133.4</ele><time>2026-05-05T10:14:05.002Z</time></trkpt><trkpt lat="40.4644036" lon="15.2192753"><ele>133.8</ele><time>2026-05-05T10:14:06.001Z</time></trkpt><trkpt lat="40.4643131" lon="15.2193328"><ele>134.2</ele><time>2026-05-05T10:14:07.002Z</time></trkpt><trkpt lat="40.4642254" lon="15.2193979"><ele>134.6</ele><time>2026-05-05T10:14:08.001Z</time></trkpt><trkpt lat="40.4641485" lon="15.2194591"><ele>135.0</ele><time>2026-05-05T10:14:09.001Z</time></trkpt><trkpt lat="40.4640805" lon="15.2195206"><ele>135.0</ele><time>2026-05-05T10:14:10.001Z</time></trkpt><trkpt lat="40.4640194" lon="15.2195884"><ele>135.0</ele><time>2026-05-05T10:14:11.002Z</time></trkpt><trkpt lat="40.4639626" lon="15.2196621"><ele>135.0</ele><time>2026-05-05T10:14:12.001Z</time></trkpt><trkpt lat="40.4639096" lon="15.2197445"><ele>135.0</ele><time>2026-05-05T10:14:13.001Z</time></trkpt><trkpt lat="40.4638615" lon="15.2198337"><ele>135.0</ele><time>2026-05-05T10:14:14Z</time></trkpt><trkpt lat="40.4638159" lon="15.2199305"><ele>135.0</ele><time>2026-05-05T10:14:15.002Z</time></trkpt><trkpt lat="40.4637667" lon="15.2200289"><ele>135.6</ele><time>2026-05-05T10:14:16.002Z</time></trkpt><trkpt lat="40.4637151" lon="15.2201324"><ele>136.2</ele><time>2026-05-05T10:14:17.001Z</time></trkpt><trkpt lat="40.4636652" lon="15.2202426"><ele>136.8</ele><time>2026-05-05T10:14:18.001Z</time></trkpt><trkpt lat="40.4636152" lon="15.2203436"><ele>137.4</ele><time>2026-05-05T10:14:19.002Z</time></trkpt><trkpt lat="40.4635679" lon="15.2204449"><ele>138.0</ele><time>2026-05-05T10:14:20.002Z</time></trkpt><trkpt lat="40.4635254" lon="15.2205437"><ele>138.0</ele><time>2026-05-05T10:14:21.001Z</time></trkpt><trkpt lat="40.4634741" lon="15.2206287"><ele>138.0</ele><time>2026-05-05T10:14:22.001Z</time></trkpt><trkpt lat="40.4634199" lon="15.2207165"><ele>138.0</ele><time>2026-05-05T10:14:23.001Z</time></trkpt><trkpt lat="40.4633646" lon="15.2208035"><ele>138.0</ele><time>2026-05-05T10:14:24.001Z</time></trkpt><trkpt lat="40.4633091" lon="15.2208927"><ele>138.0</ele><time>2026-05-05T10:14:25.001Z</time></trkpt><trkpt lat="40.4632503" lon="15.2209717"><ele>138.0</ele><time>2026-05-05T10:14:26.002Z</time></trkpt><trkpt lat="40.4631918" lon="15.2210395"><ele>138.20000000000002</ele><time>2026-05-05T10:14:27.002Z</time></trkpt><trkpt lat="40.4631313" lon="15.2210834"><ele>138.4</ele><time>2026-05-05T10:14:28.002Z</time></trkpt><trkpt lat="40.4629942" lon="15.2210769"><ele>138.60000000000002</ele><time>2026-05-05T10:14:30.001Z</time></trkpt><trkpt lat="40.4629229" lon="15.2210471"><ele>138.8</ele><time>2026-05-05T10:14:31.001Z</time></trkpt><trkpt lat="40.4628396" lon="15.2210089"><ele>139.0</ele><time>2026-05-05T10:14:32.001Z</time></trkpt><trkpt lat="40.462755" lon="15.2209722"><ele>140.8</ele><time>2026-05-05T10:14:33.001Z</time></trkpt><trkpt lat="40.4626625" lon="15.2208969"><ele>142.60000000000002</ele><time>2026-05-05T10:14:34Z</time></trkpt><trkpt lat="40.4625692" lon="15.2208406"><ele>144.4</ele><time>2026-05-05T10:14:35.002Z</time></trkpt><trkpt lat="40.4624742" lon="15.2207856"><ele>146.20000000000002</ele><time>2026-05-05T10:14:36.002Z</time></trkpt><trkpt lat="40.4623805" lon="15.22073"><ele>148.0</ele><time>2026-05-05T10:14:37.002Z</time></trkpt><trkpt lat="40.4622808" lon="15.220671"><ele>148.0</ele><time>2026-05-05T10:14:38.002Z</time></trkpt><trkpt lat="40.4621885" lon="15.2206272"><ele>148.0</ele><time>2026-05-05T10:14:39.002Z</time></trkpt><trkpt lat="40.462102" lon="15.2205957"><ele>148.0</ele><time>2026-05-05T10:14:40.001Z</time></trkpt><trkpt lat="40.4620189" lon="15.2205827"><ele>148.0</ele><time>2026-05-05T10:14:41.001Z</time></trkpt><trkpt lat="40.4619054" lon="15.2206013"><ele>148.0</ele><time>2026-05-05T10:14:43.001Z</time></trkpt><trkpt lat="40.4618389" lon="15.2207119"><ele>149.83333333333334</ele><time>2026-05-05T10:14:45.001Z</time></trkpt><trkpt lat="40.4618028" lon="15.2207906"><ele>151.66666666666669</ele><time>2026-05-05T10:14:46.002Z</time></trkpt><trkpt lat="40.4617608" lon="15.2208812"><ele>153.5</ele><time>2026-05-05T10:14:47.001Z</time></trkpt><trkpt lat="40.4617085" lon="15.220982"><ele>155.33333333333334</ele><time>2026-05-05T10:14:48.001Z</time></trkpt><trkpt lat="40.4616546" lon="15.2210877"><ele>157.16666666666666</ele><time>2026-05-05T10:14:49.002Z</time></trkpt><trkpt lat="40.4615981" lon="15.2211941"><ele>159.0</ele><time>2026-05-05T10:14:50.002Z</time></trkpt><trkpt lat="40.4615404" lon="15.2213014"><ele>159.0</ele><time>2026-05-05T10:14:51.002Z</time></trkpt><trkpt lat="40.4614982" lon="15.2214159"><ele>159.0</ele><time>2026-05-05T10:14:52.002Z</time></trkpt><trkpt lat="40.4614742" lon="15.2215411"><ele>159.0</ele><time>2026-05-05T10:14:53.002Z</time></trkpt><trkpt lat="40.4614606" lon="15.221674"><ele>159.0</ele><time>2026-05-05T10:14:54.002Z</time></trkpt><trkpt lat="40.461452" lon="15.2218088"><ele>159.0</ele><time>2026-05-05T10:14:55.002Z</time></trkpt><trkpt lat="40.4614497" lon="15.2219425"><ele>160.6</ele><time>2026-05-05T10:14:56.002Z</time></trkpt><trkpt lat="40.4614491" lon="15.222074"><ele>162.2</ele><time>2026-05-05T10:14:57.001Z</time></trkpt><trkpt lat="40.4614511" lon="15.2222039"><ele>163.79999999999998</ele><time>2026-05-05T10:14:58.001Z</time></trkpt><trkpt lat="40.4614773" lon="15.2223338"><ele>165.4</ele><time>2026-05-05T10:14:59.001Z</time></trkpt><trkpt lat="40.4615191" lon="15.2224628"><ele>167.0</ele><time>2026-05-05T10:15:00.002Z</time></trkpt><trkpt lat="40.4615714" lon="15.2226009"><ele>168.25</ele><time>2026-05-05T10:15:01.002Z</time></trkpt><trkpt lat="40.4616318" lon="15.2227447"><ele>169.5</ele><time>2026-05-05T10:15:02.001Z</time></trkpt><trkpt lat="40.4616773" lon="15.2228823"><ele>170.75</ele><time>2026-05-05T10:15:03.001Z</time></trkpt><trkpt lat="40.4617006" lon="15.2230247"><ele>172.0</ele><time>2026-05-05T10:15:04.001Z</time></trkpt><trkpt lat="40.4617174" lon="15.2231678"><ele>172.39999999999998</ele><time>2026-05-05T10:15:05.002Z</time></trkpt><trkpt lat="40.4617473" lon="15.2232973"><ele>172.79999999999998</ele><time>2026-05-05T10:15:06.001Z</time></trkpt><trkpt lat="40.4617991" lon="15.2234142"><ele>173.2</ele><time>2026-05-05T10:15:07.001Z</time></trkpt><trkpt lat="40.4618601" lon="15.2235317"><ele>173.6</ele><time>2026-05-05T10:15:08.001Z</time></trkpt><trkpt lat="40.4619155" lon="15.2236516"><ele>174.0</ele><time>2026-05-05T10:15:09.002Z</time></trkpt><trkpt lat="40.461979" lon="15.2237634"><ele>174.0</ele><time>2026-05-05T10:15:10.002Z</time></trkpt><trkpt lat="40.4620383" lon="15.2238682"><ele>174.0</ele><time>2026-05-05T10:15:11.001Z</time></trkpt><trkpt lat="40.4620901" lon="15.2239708"><ele>174.0</ele><time>2026-05-05T10:15:12.002Z</time></trkpt><trkpt lat="40.4621373" lon="15.2240743"><ele>174.0</ele><time>2026-05-05T10:15:13.002Z</time></trkpt><trkpt lat="40.4621686" lon="15.2241822"><ele>174.0</ele><time>2026-05-05T10:15:14.001Z</time></trkpt><trkpt lat="40.4621864" lon="15.2243003"><ele>172.75</ele><time>2026-05-05T10:15:15.001Z</time></trkpt><trkpt lat="40.4622006" lon="15.2244383"><ele>171.5</ele><time>2026-05-05T10:15:16.001Z</time></trkpt><trkpt lat="40.4622371" lon="15.2245772"><ele>170.25</ele><time>2026-05-05T10:15:17.001Z</time></trkpt><trkpt lat="40.4622839" lon="15.2247348"><ele>169.0</ele><time>2026-05-05T10:15:18.001Z</time></trkpt><trkpt lat="40.4623248" lon="15.2249067"><ele>169.0</ele><time>2026-05-05T10:15:19.001Z</time></trkpt><trkpt lat="40.4623733" lon="15.2250918"><ele>169.0</ele><time>2026-05-05T10:15:20.001Z</time></trkpt><trkpt lat="40.4624327" lon="15.225281"><ele>169.0</ele><time>2026-05-05T10:15:21.002Z</time></trkpt><trkpt lat="40.462504" lon="15.2254668"><ele>168.75</ele><time>2026-05-05T10:15:22.002Z</time></trkpt><trkpt lat="40.4625854" lon="15.2256577"><ele>168.5</ele><time>2026-05-05T10:15:23.001Z</time></trkpt><trkpt lat="40.4626478" lon="15.2258218"><ele>168.25</ele><time>2026-05-05T10:15:24.001Z</time></trkpt><trkpt lat="40.4627039" lon="15.2259746"><ele>168.0</ele><time>2026-05-05T10:15:25.002Z</time></trkpt><trkpt lat="40.4627512" lon="15.2261563"><ele>168.0</ele><time>2026-05-05T10:15:26Z</time></trkpt><trkpt lat="40.4627775" lon="15.2263747"><ele>168.0</ele><time>2026-05-05T10:15:27.002Z</time></trkpt><trkpt lat="40.4628096" lon="15.2266201"><ele>168.0</ele><time>2026-05-05T10:15:28.001Z</time></trkpt><trkpt lat="40.4628388" lon="15.2268322"><ele>168.25</ele><time>2026-05-05T10:15:29.002Z</time></trkpt><trkpt lat="40.4628664" lon="15.2270334"><ele>168.5</ele><time>2026-05-05T10:15:30.002Z</time></trkpt><trkpt lat="40.4628947" lon="15.2272182"><ele>168.75</ele><time>2026-05-05T10:15:31.002Z</time></trkpt><trkpt lat="40.4629182" lon="15.2273925"><ele>169.0</ele><time>2026-05-05T10:15:32.002Z</time></trkpt><trkpt lat="40.4629321" lon="15.2275664"><ele>169.25</ele><time>2026-05-05T10:15:33Z</time></trkpt><trkpt lat="40.4629358" lon="15.2277375"><ele>169.5</ele><time>2026-05-05T10:15:34.002Z</time></trkpt><trkpt lat="40.4629359" lon="15.2279"><ele>169.75</ele><time>2026-05-05T10:15:35.002Z</time></trkpt><trkpt lat="40.4629208" lon="15.2280639"><ele>170.0</ele><time>2026-05-05T10:15:36.001Z</time></trkpt><trkpt lat="40.4629016" lon="15.2282118"><ele>170.8</ele><time>2026-05-05T10:15:37.002Z</time></trkpt><trkpt lat="40.4628773" lon="15.2283443"><ele>171.6</ele><time>2026-05-05T10:15:38.002Z</time></trkpt><trkpt lat="40.4628495" lon="15.2284806"><ele>172.39999999999998</ele><time>2026-05-05T10:15:39.002Z</time></trkpt><trkpt lat="40.4628199" lon="15.2286231"><ele>173.2</ele><time>2026-05-05T10:15:40.001Z</time></trkpt><trkpt lat="40.4627836" lon="15.2287633"><ele>174.0</ele><time>2026-05-05T10:15:41.001Z</time></trkpt><trkpt lat="40.4627297" lon="15.2289013"><ele>175.0</ele><time>2026-05-05T10:15:42.002Z</time></trkpt><trkpt lat="40.4626787" lon="15.2290501"><ele>176.0</ele><time>2026-05-05T10:15:43.002Z</time></trkpt><trkpt lat="40.4626391" lon="15.2291891"><ele>177.0</ele><time>2026-05-05T10:15:44.001Z</time></trkpt><trkpt lat="40.4625973" lon="15.2293073"><ele>178.0</ele><time>2026-05-05T10:15:45.001Z</time></trkpt><trkpt lat="40.4625548" lon="15.2294168"><ele>179.0</ele><time>2026-05-05T10:15:46.002Z</time></trkpt><trkpt lat="40.4624948" lon="15.2295166"><ele>179.0</ele><time>2026-05-05T10:15:47Z</time></trkpt><trkpt lat="40.4624372" lon="15.2296291"><ele>179.0</ele><time>2026-05-05T10:15:48.002Z</time></trkpt><trkpt lat="40.4623919" lon="15.2297415"><ele>179.0</ele><time>2026-05-05T10:15:49.002Z</time></trkpt><trkpt lat="40.4623415" lon="15.2298427"><ele>179.0</ele><time>2026-05-05T10:15:50.001Z</time></trkpt><trkpt lat="40.4622815" lon="15.2299405"><ele>179.0</ele><time>2026-05-05T10:15:51.001Z</time></trkpt><trkpt lat="40.4622163" lon="15.2300299"><ele>180.16666666666666</ele><time>2026-05-05T10:15:52.001Z</time></trkpt><trkpt lat="40.4621499" lon="15.2301074"><ele>181.33333333333331</ele><time>2026-05-05T10:15:53.002Z</time></trkpt><trkpt lat="40.4620801" lon="15.230172"><ele>182.5</ele><time>2026-05-05T10:15:54.002Z</time></trkpt><trkpt lat="40.4620021" lon="15.2302265"><ele>183.66666666666666</ele><time>2026-05-05T10:15:55.002Z</time></trkpt><trkpt lat="40.4619252" lon="15.2302768"><ele>184.83333333333334</ele><time>2026-05-05T10:15:56.002Z</time></trkpt><trkpt lat="40.4618734" lon="15.2303458"><ele>186.0</ele><time>2026-05-05T10:15:57.002Z</time></trkpt><trkpt lat="40.461843" lon="15.2304221"><ele>186.16666666666666</ele><time>2026-05-05T10:15:58.002Z</time></trkpt><trkpt lat="40.4618234" lon="15.2305139"><ele>186.33333333333334</ele><time>2026-05-05T10:15:59.002Z</time></trkpt><trkpt lat="40.4617991" lon="15.2306188"><ele>186.5</ele><time>2026-05-05T10:16:00.001Z</time></trkpt><trkpt lat="40.4617674" lon="15.2307312"><ele>186.66666666666669</ele><time>2026-05-05T10:16:01.002Z</time></trkpt><trkpt lat="40.4617352" lon="15.2308434"><ele>186.83333333333334</ele><time>2026-05-05T10:16:02.002Z</time></trkpt><trkpt lat="40.4617005" lon="15.230956"><ele>187.0</ele><time>2026-05-05T10:16:03.002Z</time></trkpt><trkpt lat="40.4616504" lon="15.2310674"><ele>188.6</ele><time>2026-05-05T10:16:04.002Z</time></trkpt><trkpt lat="40.4615928" lon="15.2311776"><ele>190.2</ele><time>2026-05-05T10:16:05.002Z</time></trkpt><trkpt lat="40.4615358" lon="15.2312952"><ele>191.8</ele><time>2026-05-05T10:16:06.002Z</time></trkpt><trkpt lat="40.4614869" lon="15.2314171"><ele>193.4</ele><time>2026-05-05T10:16:07.002Z</time></trkpt><trkpt lat="40.4614417" lon="15.2315423"><ele>195.0</ele><time>2026-05-05T10:16:08.001Z</time></trkpt><trkpt lat="40.4614008" lon="15.2316723"><ele>197.4</ele><time>2026-05-05T10:16:09.001Z</time></trkpt><trkpt lat="40.4613582" lon="15.2318073"><ele>199.8</ele><time>2026-05-05T10:16:10.002Z</time></trkpt><trkpt lat="40.4613093" lon="15.2319372"><ele>202.2</ele><time>2026-05-05T10:16:11.002Z</time></trkpt><trkpt lat="40.4612496" lon="15.2320501"><ele>204.6</ele><time>2026-05-05T10:16:12.001Z</time></trkpt><trkpt lat="40.4611776" lon="15.2321508"><ele>207.0</ele><time>2026-05-05T10:16:13.001Z</time></trkpt><trkpt lat="40.4611205" lon="15.2322599"><ele>209.2</ele><time>2026-05-05T10:16:14Z</time></trkpt><trkpt lat="40.461079" lon="15.2323832"><ele>211.39999999999998</ele><time>2026-05-05T10:16:15.001Z</time></trkpt><trkpt lat="40.4610442" lon="15.2325212"><ele>213.60000000000002</ele><time>2026-05-05T10:16:16.002Z</time></trkpt><trkpt lat="40.4610075" lon="15.2326588"><ele>215.8</ele><time>2026-05-05T10:16:17.001Z</time></trkpt><trkpt lat="40.4609679" lon="15.2327901"><ele>218.0</ele><time>2026-05-05T10:16:18.002Z</time></trkpt><trkpt lat="40.4609262" lon="15.2329151"><ele>218.0</ele><time>2026-05-05T10:16:19.002Z</time></trkpt><trkpt lat="40.4608787" lon="15.2330301"><ele>218.0</ele><time>2026-05-05T10:16:20.001Z</time></trkpt><trkpt lat="40.4608255" lon="15.2331305"><ele>218.0</ele><time>2026-05-05T10:16:21.002Z</time></trkpt><trkpt lat="40.4607623" lon="15.2332019"><ele>218.0</ele><time>2026-05-05T10:16:22.001Z</time></trkpt><trkpt lat="40.4606859" lon="15.233253"><ele>218.0</ele><time>2026-05-05T10:16:23.002Z</time></trkpt><trkpt lat="40.4606012" lon="15.2332915"><ele>219.33333333333334</ele><time>2026-05-05T10:16:24.002Z</time></trkpt><trkpt lat="40.4605128" lon="15.2333202"><ele>220.66666666666669</ele><time>2026-05-05T10:16:25.001Z</time></trkpt><trkpt lat="40.4604239" lon="15.2333432"><ele>222.0</ele><time>2026-05-05T10:16:26.001Z</time></trkpt><trkpt lat="40.4603427" lon="15.2333694"><ele>223.33333333333331</ele><time>2026-05-05T10:16:27.002Z</time></trkpt><trkpt lat="40.4602665" lon="15.2334045"><ele>224.66666666666666</ele><time>2026-05-05T10:16:28.001Z</time></trkpt><trkpt lat="40.4601847" lon="15.233456"><ele>226.0</ele><time>2026-05-05T10:16:29.002Z</time></trkpt><trkpt lat="40.4600996" lon="15.2335219"><ele>226.0</ele><time>2026-05-05T10:16:30.001Z</time></trkpt><trkpt lat="40.460007" lon="15.2335909"><ele>226.0</ele><time>2026-05-05T10:16:31.001Z</time></trkpt><trkpt lat="40.4599129" lon="15.2336675"><ele>226.0</ele><time>2026-05-05T10:16:32.001Z</time></trkpt><trkpt lat="40.4598187" lon="15.2337544"><ele>226.0</ele><time>2026-05-05T10:16:33.002Z</time></trkpt><trkpt lat="40.4597212" lon="15.2338414"><ele>226.0</ele><time>2026-05-05T10:16:34.001Z</time></trkpt><trkpt lat="40.4596249" lon="15.2339209"><ele>226.0</ele><time>2026-05-05T10:16:35.002Z</time></trkpt><trkpt lat="40.4595286" lon="15.2339935"><ele>226.0</ele><time>2026-05-05T10:16:36.002Z</time></trkpt><trkpt lat="40.4594283" lon="15.2340652"><ele>226.0</ele><time>2026-05-05T10:16:37.002Z</time></trkpt><trkpt lat="40.4593315" lon="15.2341447"><ele>228.0</ele><time>2026-05-05T10:16:38.002Z</time></trkpt><trkpt lat="40.4592313" lon="15.2342242"><ele>230.0</ele><time>2026-05-05T10:16:39.001Z</time></trkpt><trkpt lat="40.4591334" lon="15.2343"><ele>232.0</ele><time>2026-05-05T10:16:40.001Z</time></trkpt><trkpt lat="40.4590281" lon="15.2343669"><ele>234.0</ele><time>2026-05-05T10:16:41.002Z</time></trkpt><trkpt lat="40.4589222" lon="15.2344319"><ele>234.0</ele><time>2026-05-05T10:16:42.002Z</time></trkpt><trkpt lat="40.4588277" lon="15.2345151"><ele>233.99999999999997</ele><time>2026-05-05T10:16:43.001Z</time></trkpt><trkpt lat="40.4587313" lon="15.2345973"><ele>233.99999999999997</ele><time>2026-05-05T10:16:44.002Z</time></trkpt><trkpt lat="40.4586444" lon="15.2346834"><ele>234.0</ele><time>2026-05-05T10:16:45.002Z</time></trkpt><trkpt lat="40.4585685" lon="15.2347896"><ele>234.0</ele><time>2026-05-05T10:16:46.002Z</time></trkpt><trkpt lat="40.4584964" lon="15.2349021"><ele>237.0</ele><time>2026-05-05T10:16:47.001Z</time></trkpt><trkpt lat="40.4584263" lon="15.2350148"><ele>239.99999999999997</ele><time>2026-05-05T10:16:48.002Z</time></trkpt><trkpt lat="40.458346" lon="15.2351157"><ele>242.99999999999997</ele><time>2026-05-05T10:16:49.002Z</time></trkpt><trkpt lat="40.4582614" lon="15.2352065"><ele>246.0</ele><time>2026-05-05T10:16:50.002Z</time></trkpt><trkpt lat="40.4581835" lon="15.2353016"><ele>249.0</ele><time>2026-05-05T10:16:51.001Z</time></trkpt><trkpt lat="40.4581174" lon="15.2354129"><ele>249.0</ele><time>2026-05-05T10:16:52.001Z</time></trkpt><trkpt lat="40.4580651" lon="15.2355405"><ele>249.0</ele><time>2026-05-05T10:16:53.002Z</time></trkpt><trkpt lat="40.4580117" lon="15.2356593"><ele>249.0</ele><time>2026-05-05T10:16:54.001Z</time></trkpt><trkpt lat="40.4579526" lon="15.2357497"><ele>249.0</ele><time>2026-05-05T10:16:55.001Z</time></trkpt><trkpt lat="40.4578888" lon="15.2357866"><ele>249.0</ele><time>2026-05-05T10:16:56.002Z</time></trkpt><trkpt lat="40.4578255" lon="15.2358005"><ele>249.0</ele><time>2026-05-05T10:16:57.001Z</time></trkpt><trkpt lat="40.4577553" lon="15.2358035"><ele>250.83333333333334</ele><time>2026-05-05T10:16:58.002Z</time></trkpt><trkpt lat="40.4576791" lon="15.2358035"><ele>252.66666666666669</ele><time>2026-05-05T10:16:59.002Z</time></trkpt><trkpt lat="40.457606" lon="15.2358064"><ele>254.5</ele><time>2026-05-05T10:17:00.001Z</time></trkpt><trkpt lat="40.4575372" lon="15.2358218"><ele>256.33333333333337</ele><time>2026-05-05T10:17:01.002Z</time></trkpt><trkpt lat="40.4574565" lon="15.235836"><ele>258.1666666666667</ele><time>2026-05-05T10:17:02.002Z</time></trkpt><trkpt lat="40.4573751" lon="15.2358396"><ele>260.0</ele><time>2026-05-05T10:17:03.002Z</time></trkpt><trkpt lat="40.457299" lon="15.2358413"><ele>260.0</ele><time>2026-05-05T10:17:04.002Z</time></trkpt><trkpt lat="40.4572083" lon="15.2358383"><ele>260.0</ele><time>2026-05-05T10:17:06.002Z</time></trkpt><trkpt lat="40.4572701" lon="15.2358632"><ele>260.0</ele><time>2026-05-05T10:17:11.001Z</time></trkpt><trkpt lat="40.4573666" lon="15.2358462"><ele>260.0</ele><time>2026-05-05T10:17:13.001Z</time></trkpt><trkpt lat="40.4574928" lon="15.2358318"><ele>260.0</ele><time>2026-05-05T10:17:15.002Z</time></trkpt><trkpt lat="40.4575717" lon="15.2358197"><ele>260.0</ele><time>2026-05-05T10:17:16.002Z</time></trkpt><trkpt lat="40.4576556" lon="15.2358076"><ele>260.0</ele><time>2026-05-05T10:17:17Z</time></trkpt><trkpt lat="40.4577393" lon="15.23581"><ele>260.0</ele><time>2026-05-05T10:17:18.001Z</time></trkpt><trkpt lat="40.4578188" lon="15.2358258"><ele>260.0</ele><time>2026-05-05T10:17:19Z</time></trkpt><trkpt lat="40.4579041" lon="15.2358465"><ele>260.0</ele><time>2026-05-05T10:17:20.001Z</time></trkpt><trkpt lat="40.4579882" lon="15.2358871"><ele>260.0</ele><time>2026-05-05T10:17:21.001Z</time></trkpt><trkpt lat="40.4580711" lon="15.2359393"><ele>259.2</ele><time>2026-05-05T10:17:22Z</time></trkpt><trkpt lat="40.4581568" lon="15.2359941"><ele>258.4</ele><time>2026-05-05T10:17:23.001Z</time></trkpt><trkpt lat="40.4582405" lon="15.2360447"><ele>257.6</ele><time>2026-05-05T10:17:24.001Z</time></trkpt><trkpt lat="40.4583276" lon="15.2360918"><ele>256.8</ele><time>2026-05-05T10:17:25Z</time></trkpt><trkpt lat="40.4584093" lon="15.2361346"><ele>256.0</ele><time>2026-05-05T10:17:26.002Z</time></trkpt><trkpt lat="40.4584879" lon="15.236177"><ele>255.99999999999997</ele><time>2026-05-05T10:17:27.002Z</time></trkpt><trkpt lat="40.4585656" lon="15.2362209"><ele>256.0</ele><time>2026-05-05T10:17:28.001Z</time></trkpt><trkpt lat="40.4586453" lon="15.236264"><ele>256.0</ele><time>2026-05-05T10:17:29.001Z</time></trkpt><trkpt lat="40.4587146" lon="15.2363125"><ele>256.0</ele><time>2026-05-05T10:17:30.002Z</time></trkpt><trkpt lat="40.4587757" lon="15.2363643"><ele>255.99999999999997</ele><time>2026-05-05T10:17:31.001Z</time></trkpt><trkpt lat="40.4588308" lon="15.2364167"><ele>256.0</ele><time>2026-05-05T10:17:32.001Z</time></trkpt><trkpt lat="40.4589034" lon="15.2365087"><ele>256.0</ele><time>2026-05-05T10:17:34.002Z</time></trkpt><trkpt lat="40.4589446" lon="15.2366043"><ele>256.0</ele><time>2026-05-05T10:17:37.001Z</time></trkpt><trkpt lat="40.4589049" lon="15.2365009"><ele>256.0</ele><time>2026-05-05T10:23:36.002Z</time></trkpt><trkpt lat="40.4587955" lon="15.2363622"><ele>256.0</ele><time>2026-05-05T10:23:39Z</time></trkpt><trkpt lat="40.4586886" lon="15.2362857"><ele>256.0</ele><time>2026-05-05T10:23:41.002Z</time></trkpt><trkpt lat="40.4586304" lon="15.2362532"><ele>256.0</ele><time>2026-05-05T10:23:42.001Z</time></trkpt><trkpt lat="40.458522" lon="15.2361988"><ele>256.0</ele><time>2026-05-05T10:23:44.001Z</time></trkpt><trkpt lat="40.4583154" lon="15.2360854"><ele>256.0</ele><time>2026-05-05T10:23:48.002Z</time></trkpt><trkpt lat="40.4582559" lon="15.2360471"><ele>256.0</ele><time>2026-05-05T10:23:49.002Z</time></trkpt><trkpt lat="40.4581873" lon="15.2360142"><ele>256.0</ele><time>2026-05-05T10:23:50.001Z</time></trkpt><trkpt lat="40.4581246" lon="15.2359706"><ele>256.0</ele><time>2026-05-05T10:23:51.001Z</time></trkpt><trkpt lat="40.4580582" lon="15.2359208"><ele>256.0</ele><time>2026-05-05T10:23:52.001Z</time></trkpt><trkpt lat="40.457987" lon="15.2358735"><ele>256.0</ele><time>2026-05-05T10:23:53.001Z</time></trkpt><trkpt lat="40.457823" lon="15.2358058"><ele>256.0</ele><time>2026-05-05T10:23:55.001Z</time></trkpt><trkpt lat="40.4577381" lon="15.2357992"><ele>256.66666666666663</ele><time>2026-05-05T10:23:56.002Z</time></trkpt><trkpt lat="40.4576521" lon="15.2358058"><ele>257.3333333333333</ele><time>2026-05-05T10:23:57.002Z</time></trkpt><trkpt lat="40.4575689" lon="15.2358148"><ele>258.0</ele><time>2026-05-05T10:23:58.002Z</time></trkpt><trkpt lat="40.4574955" lon="15.2358257"><ele>258.6666666666667</ele><time>2026-05-05T10:23:59.002Z</time></trkpt><trkpt lat="40.4574152" lon="15.2358372"><ele>259.33333333333337</ele><time>2026-05-05T10:24:00.002Z</time></trkpt><trkpt lat="40.457336" lon="15.2358473"><ele>260.0</ele><time>2026-05-05T10:24:01.001Z</time></trkpt><trkpt lat="40.4572576" lon="15.2358506"><ele>260.0</ele><time>2026-05-05T10:24:02.002Z</time></trkpt><trkpt lat="40.4571763" lon="15.2358559"><ele>260.0</ele><time>2026-05-05T10:24:03.002Z</time></trkpt><trkpt lat="40.4570888" lon="15.235868"><ele>260.0</ele><time>2026-05-05T10:24:04.002Z</time></trkpt><trkpt lat="40.4569941" lon="15.2358848"><ele>260.0</ele><time>2026-05-05T10:24:05.001Z</time></trkpt><trkpt lat="40.4568986" lon="15.235899"><ele>260.0</ele><time>2026-05-05T10:24:06.002Z</time></trkpt><trkpt lat="40.4568044" lon="15.2359155"><ele>259.8</ele><time>2026-05-05T10:24:07.002Z</time></trkpt><trkpt lat="40.456714" lon="15.2359361"><ele>259.6</ele><time>2026-05-05T10:24:08.001Z</time></trkpt><trkpt lat="40.4566292" lon="15.2359559"><ele>259.4</ele><time>2026-05-05T10:24:09.002Z</time></trkpt><trkpt lat="40.4565402" lon="15.2359727"><ele>259.2</ele><time>2026-05-05T10:24:10.002Z</time></trkpt><trkpt lat="40.4564489" lon="15.235991"><ele>259.0</ele><time>2026-05-05T10:24:11.002Z</time></trkpt><trkpt lat="40.4563547" lon="15.2360127"><ele>259.66666666666663</ele><time>2026-05-05T10:24:12.001Z</time></trkpt><trkpt lat="40.4562612" lon="15.2360279"><ele>260.3333333333333</ele><time>2026-05-05T10:24:13.002Z</time></trkpt><trkpt lat="40.4561667" lon="15.2360381"><ele>261.0</ele><time>2026-05-05T10:24:14.002Z</time></trkpt><trkpt lat="40.4558791" lon="15.2360738"><ele>261.0</ele><time>2026-05-05T10:24:17.001Z</time></trkpt><trkpt lat="40.4557824" lon="15.2360893"><ele>261.0</ele><time>2026-05-05T10:24:18.001Z</time></trkpt><trkpt lat="40.4556841" lon="15.2361039"><ele>261.0</ele><time>2026-05-05T10:24:19.002Z</time></trkpt><trkpt lat="40.4555888" lon="15.2361157"><ele>261.0</ele><time>2026-05-05T10:24:20.001Z</time></trkpt><trkpt lat="40.4555034" lon="15.2361242"><ele>261.0</ele><time>2026-05-05T10:24:21.001Z</time></trkpt><trkpt lat="40.4554228" lon="15.2361337"><ele>261.0</ele><time>2026-05-05T10:24:22.001Z</time></trkpt><trkpt lat="40.4553519" lon="15.2361418"><ele>261.0</ele><time>2026-05-05T10:24:23.002Z</time></trkpt><trkpt lat="40.4552692" lon="15.2361744"><ele>261.0</ele><time>2026-05-05T10:24:25.001Z</time></trkpt><trkpt lat="40.4552486" lon="15.2363038"><ele>261.0</ele><time>2026-05-05T10:24:28.001Z</time></trkpt><trkpt lat="40.4553231" lon="15.2364637"><ele>261.0</ele><time>2026-05-05T10:24:30.002Z</time></trkpt><trkpt lat="40.4553782" lon="15.236558"><ele>261.0</ele><time>2026-05-05T10:24:31.002Z</time></trkpt><trkpt lat="40.4554423" lon="15.2366615"><ele>261.0</ele><time>2026-05-05T10:24:32.001Z</time></trkpt><trkpt lat="40.4555154" lon="15.2367749"><ele>261.0</ele><time>2026-05-05T10:24:33.002Z</time></trkpt><trkpt lat="40.4555876" lon="15.2368964"><ele>261.0</ele><time>2026-05-05T10:24:34Z</time></trkpt><trkpt lat="40.455665" lon="15.2370195"><ele>262.0</ele><time>2026-05-05T10:24:35.001Z</time></trkpt><trkpt lat="40.455741" lon="15.2371493"><ele>263.0</ele><time>2026-05-05T10:24:36.001Z</time></trkpt><trkpt lat="40.455816" lon="15.2372835"><ele>264.0</ele><time>2026-05-05T10:24:37.001Z</time></trkpt><trkpt lat="40.4559974" lon="15.2377021"><ele>264.8</ele><time>2026-05-05T10:24:40.002Z</time></trkpt><trkpt lat="40.4560336" lon="15.2378332"><ele>265.59999999999997</ele><time>2026-05-05T10:24:41.001Z</time></trkpt><trkpt lat="40.4560657" lon="15.2379576"><ele>266.4</ele><time>2026-05-05T10:24:42.001Z</time></trkpt><trkpt lat="40.4560866" lon="15.2380739"><ele>267.2</ele><time>2026-05-05T10:24:43.001Z</time></trkpt><trkpt lat="40.4561016" lon="15.2381842"><ele>268.0</ele><time>2026-05-05T10:24:44.001Z</time></trkpt><trkpt lat="40.456113" lon="15.2382892"><ele>268.8571428571429</ele><time>2026-05-05T10:24:45.002Z</time></trkpt><trkpt lat="40.4561219" lon="15.238388"><ele>269.7142857142857</ele><time>2026-05-05T10:24:46.001Z</time></trkpt><trkpt lat="40.4561286" lon="15.2384799"><ele>270.57142857142856</ele><time>2026-05-05T10:24:47.002Z</time></trkpt><trkpt lat="40.4561338" lon="15.2385678"><ele>271.42857142857144</ele><time>2026-05-05T10:24:48.002Z</time></trkpt><trkpt lat="40.4561379" lon="15.238654"><ele>272.2857142857143</ele><time>2026-05-05T10:24:49.002Z</time></trkpt><trkpt lat="40.4561403" lon="15.2387422"><ele>273.14285714285717</ele><time>2026-05-05T10:24:50.001Z</time></trkpt><trkpt lat="40.4561387" lon="15.2388351"><ele>274.0</ele><time>2026-05-05T10:24:51Z</time></trkpt><trkpt lat="40.4561332" lon="15.2389269"><ele>275.14285714285717</ele><time>2026-05-05T10:24:52.001Z</time></trkpt><trkpt lat="40.4561284" lon="15.2390217"><ele>276.2857142857143</ele><time>2026-05-05T10:24:53.002Z</time></trkpt><trkpt lat="40.456125" lon="15.2391159"><ele>277.42857142857144</ele><time>2026-05-05T10:24:54.001Z</time></trkpt><trkpt lat="40.4561254" lon="15.2392123"><ele>278.57142857142856</ele><time>2026-05-05T10:24:55.002Z</time></trkpt><trkpt lat="40.4561257" lon="15.2393061"><ele>279.7142857142857</ele><time>2026-05-05T10:24:56.002Z</time></trkpt><trkpt lat="40.4561277" lon="15.2394012"><ele>280.8571428571429</ele><time>2026-05-05T10:24:57.001Z</time></trkpt><trkpt lat="40.4561289" lon="15.239494"><ele>282.0</ele><time>2026-05-05T10:24:58.001Z</time></trkpt><trkpt lat="40.4561327" lon="15.2395848"><ele>282.0</ele><time>2026-05-05T10:24:59.002Z</time></trkpt><trkpt lat="40.4561361" lon="15.2396741"><ele>282.0</ele><time>2026-05-05T10:25:00.002Z</time></trkpt><trkpt lat="40.4561313" lon="15.2397602"><ele>282.0</ele><time>2026-05-05T10:25:01Z</time></trkpt><trkpt lat="40.4561196" lon="15.239842"><ele>282.0</ele><time>2026-05-05T10:25:02.002Z</time></trkpt><trkpt lat="40.4560839" lon="15.2399861"><ele>282.0</ele><time>2026-05-05T10:25:04.001Z</time></trkpt><trkpt lat="40.4560438" lon="15.240073"><ele>282.0</ele><time>2026-05-05T10:25:06.002Z</time></trkpt><trkpt lat="40.4560668" lon="15.2401638"><ele>283.8</ele><time>2026-05-05T10:25:09.002Z</time></trkpt><trkpt lat="40.4561392" lon="15.2401563"><ele>285.6</ele><time>2026-05-05T10:25:12.001Z</time></trkpt><trkpt lat="40.4562057" lon="15.2400767"><ele>287.40000000000003</ele><time>2026-05-05T10:25:14.002Z</time></trkpt><trkpt lat="40.4563135" lon="15.2400024"><ele>289.2</ele><time>2026-05-05T10:25:16.001Z</time></trkpt><trkpt lat="40.4564201" lon="15.239916"><ele>291.0</ele><time>2026-05-05T10:25:18.001Z</time></trkpt><trkpt lat="40.4564803" lon="15.2398574"><ele>290.1428571428571</ele><time>2026-05-05T10:25:19.001Z</time></trkpt><trkpt lat="40.4565402" lon="15.239795"><ele>289.2857142857143</ele><time>2026-05-05T10:25:20Z</time></trkpt><trkpt lat="40.456597" lon="15.2397267"><ele>288.42857142857144</ele><time>2026-05-05T10:25:21.001Z</time></trkpt><trkpt lat="40.4566486" lon="15.2396601"><ele>287.57142857142856</ele><time>2026-05-05T10:25:22.002Z</time></trkpt><trkpt lat="40.4567044" lon="15.2395914"><ele>286.7142857142857</ele><time>2026-05-05T10:25:23.002Z</time></trkpt><trkpt lat="40.456757" lon="15.2395286"><ele>285.85714285714283</ele><time>2026-05-05T10:25:24.002Z</time></trkpt><trkpt lat="40.456812" lon="15.2394632"><ele>285.0</ele><time>2026-05-05T10:25:25.002Z</time></trkpt><trkpt lat="40.4568697" lon="15.2394018"><ele>285.0</ele><time>2026-05-05T10:25:26.001Z</time></trkpt><trkpt lat="40.4569329" lon="15.2393444"><ele>285.0</ele><time>2026-05-05T10:25:27.002Z</time></trkpt><trkpt lat="40.4569919" lon="15.2392843"><ele>285.0</ele><time>2026-05-05T10:25:28.002Z</time></trkpt><trkpt lat="40.4570453" lon="15.2392243"><ele>285.0</ele><time>2026-05-05T10:25:29.002Z</time></trkpt><trkpt lat="40.4570944" lon="15.2391639"><ele>285.0</ele><time>2026-05-05T10:25:30Z</time></trkpt><trkpt lat="40.4571448" lon="15.2391126"><ele>285.0</ele><time>2026-05-05T10:25:31.001Z</time></trkpt><trkpt lat="40.4572413" lon="15.2390138"><ele>284.1666666666667</ele><time>2026-05-05T10:25:33.002Z</time></trkpt><trkpt lat="40.457339" lon="15.2389283"><ele>283.3333333333333</ele><time>2026-05-05T10:25:35.002Z</time></trkpt><trkpt lat="40.4574386" lon="15.2389077"><ele>282.5</ele><time>2026-05-05T10:25:37.002Z</time></trkpt><trkpt lat="40.4573729" lon="15.2388986"><ele>281.66666666666663</ele><time>2026-05-05T10:25:45.001Z</time></trkpt><trkpt lat="40.457398" lon="15.2387981"><ele>280.8333333333333</ele><time>2026-05-05T10:25:50.002Z</time></trkpt><trkpt lat="40.4574594" lon="15.2387417"><ele>280.0</ele><time>2026-05-05T10:25:53.002Z</time></trkpt><trkpt lat="40.4573986" lon="15.2388118"><ele>280.0</ele><time>2026-05-05T10:26:18.002Z</time></trkpt><trkpt lat="40.4573533" lon="15.2388898"><ele>280.0</ele><time>2026-05-05T10:26:21.001Z</time></trkpt><trkpt lat="40.4572914" lon="15.2389784"><ele>280.0</ele><time>2026-05-05T10:26:23.001Z</time></trkpt><trkpt lat="40.4571981" lon="15.2390799"><ele>280.0</ele><time>2026-05-05T10:26:25.001Z</time></trkpt><trkpt lat="40.4571475" lon="15.2391303"><ele>280.0</ele><time>2026-05-05T10:26:26.001Z</time></trkpt><trkpt lat="40.4570926" lon="15.2391844"><ele>280.0</ele><time>2026-05-05T10:26:27.002Z</time></trkpt><trkpt lat="40.4570361" lon="15.2392398"><ele>280.7142857142857</ele><time>2026-05-05T10:26:28.002Z</time></trkpt><trkpt lat="40.456983" lon="15.2393015"><ele>281.42857142857144</ele><time>2026-05-05T10:26:29.002Z</time></trkpt><trkpt lat="40.4569262" lon="15.2393682"><ele>282.1428571428571</ele><time>2026-05-05T10:26:30.002Z</time></trkpt><trkpt lat="40.4568637" lon="15.2394306"><ele>282.8571428571429</ele><time>2026-05-05T10:26:31.002Z</time></trkpt><trkpt lat="40.4568008" lon="15.2394892"><ele>283.57142857142856</ele><time>2026-05-05T10:26:32.002Z</time></trkpt><trkpt lat="40.4567438" lon="15.2395478"><ele>284.2857142857143</ele><time>2026-05-05T10:26:33Z</time></trkpt><trkpt lat="40.4566892" lon="15.2396127"><ele>285.0</ele><time>2026-05-05T10:26:34.001Z</time></trkpt><trkpt lat="40.456637" lon="15.2396809"><ele>285.0</ele><time>2026-05-05T10:26:35.001Z</time></trkpt><trkpt lat="40.456584" lon="15.2397489"><ele>285.0</ele><time>2026-05-05T10:26:36.002Z</time></trkpt><trkpt lat="40.4565272" lon="15.239813"><ele>285.0</ele><time>2026-05-05T10:26:37.001Z</time></trkpt><trkpt lat="40.4564676" lon="15.2398725"><ele>285.0</ele><time>2026-05-05T10:26:38Z</time></trkpt><trkpt lat="40.4564077" lon="15.2399289"><ele>285.0</ele><time>2026-05-05T10:26:39.001Z</time></trkpt><trkpt lat="40.4563488" lon="15.2399785"><ele>285.0</ele><time>2026-05-05T10:26:40.002Z</time></trkpt><trkpt lat="40.4562479" lon="15.2400535"><ele>286.0</ele><time>2026-05-05T10:26:42.002Z</time></trkpt><trkpt lat="40.4561678" lon="15.240128"><ele>287.0</ele><time>2026-05-05T10:26:44.002Z</time></trkpt><trkpt lat="40.456111" lon="15.2401875"><ele>288.0</ele><time>2026-05-05T10:26:46.002Z</time></trkpt><trkpt lat="40.4560804" lon="15.2403007"><ele>289.0</ele><time>2026-05-05T10:26:49.002Z</time></trkpt><trkpt lat="40.456087" lon="15.2403851"><ele>290.0</ele><time>2026-05-05T10:26:50.001Z</time></trkpt><trkpt lat="40.4560928" lon="15.240486"><ele>291.0</ele><time>2026-05-05T10:26:51.001Z</time></trkpt><trkpt lat="40.4560906" lon="15.2405903"><ele>292.0</ele><time>2026-05-05T10:26:52.002Z</time></trkpt><trkpt lat="40.4560858" lon="15.2406933"><ele>293.0</ele><time>2026-05-05T10:26:53.002Z</time></trkpt><trkpt lat="40.4560898" lon="15.2407936"><ele>294.0</ele><time>2026-05-05T10:26:54Z</time></trkpt><trkpt lat="40.4561068" lon="15.2408973"><ele>295.0</ele><time>2026-05-05T10:26:55.002Z</time></trkpt><trkpt lat="40.4561395" lon="15.2410035"><ele>296.0</ele><time>2026-05-05T10:26:56.001Z</time></trkpt><trkpt lat="40.4561871" lon="15.2411101"><ele>297.0</ele><time>2026-05-05T10:26:57.001Z</time></trkpt><trkpt lat="40.4562484" lon="15.2412158"><ele>298.0</ele><time>2026-05-05T10:26:58.001Z</time></trkpt><trkpt lat="40.456305" lon="15.2413411"><ele>299.0</ele><time>2026-05-05T10:26:59.001Z</time></trkpt><trkpt lat="40.4563526" lon="15.2414772"><ele>300.0</ele><time>2026-05-05T10:27:00.001Z</time></trkpt><trkpt lat="40.4564109" lon="15.2416065"><ele>301.0</ele><time>2026-05-05T10:27:01.002Z</time></trkpt><trkpt lat="40.4564803" lon="15.2417352"><ele>304.0</ele><time>2026-05-05T10:27:02.002Z</time></trkpt><trkpt lat="40.4565464" lon="15.2418654"><ele>307.0</ele><time>2026-05-05T10:27:03.002Z</time></trkpt><trkpt lat="40.4566233" lon="15.2419855"><ele>310.0</ele><time>2026-05-05T10:27:04.002Z</time></trkpt><trkpt lat="40.4567076" lon="15.2420954"><ele>313.0</ele><time>2026-05-05T10:27:05.001Z</time></trkpt><trkpt lat="40.4567932" lon="15.2422031"><ele>315.75</ele><time>2026-05-05T10:27:06.002Z</time></trkpt><trkpt lat="40.4568806" lon="15.242313"><ele>318.5</ele><time>2026-05-05T10:27:07Z</time></trkpt><trkpt lat="40.4569619" lon="15.2424298"><ele>321.25</ele><time>2026-05-05T10:27:08.001Z</time></trkpt><trkpt lat="40.4570365" lon="15.2425528"><ele>324.0</ele><time>2026-05-05T10:27:09.001Z</time></trkpt><trkpt lat="40.4571107" lon="15.2426812"><ele>325.5</ele><time>2026-05-05T10:27:10.002Z</time></trkpt><trkpt lat="40.4571906" lon="15.2428021"><ele>327.0</ele><time>2026-05-05T10:27:11.001Z</time></trkpt><trkpt lat="40.4572794" lon="15.2429116"><ele>328.5</ele><time>2026-05-05T10:27:12.001Z</time></trkpt><trkpt lat="40.4573727" lon="15.2430109"><ele>330.0</ele><time>2026-05-05T10:27:13.002Z</time></trkpt><trkpt lat="40.4574676" lon="15.2430992"><ele>332.4</ele><time>2026-05-05T10:27:14.001Z</time></trkpt><trkpt lat="40.4575608" lon="15.2431825"><ele>334.8</ele><time>2026-05-05T10:27:15.002Z</time></trkpt><trkpt lat="40.4576464" lon="15.2432683"><ele>337.20000000000005</ele><time>2026-05-05T10:27:16.001Z</time></trkpt><trkpt lat="40.4577276" lon="15.243366"><ele>339.6</ele><time>2026-05-05T10:27:17.002Z</time></trkpt><trkpt lat="40.457809" lon="15.2434719"><ele>342.0</ele><time>2026-05-05T10:27:18.001Z</time></trkpt><trkpt lat="40.4578875" lon="15.2435817"><ele>341.75</ele><time>2026-05-05T10:27:19.001Z</time></trkpt><trkpt lat="40.4579571" lon="15.2437053"><ele>341.5</ele><time>2026-05-05T10:27:20Z</time></trkpt><trkpt lat="40.4580212" lon="15.243837"><ele>341.25</ele><time>2026-05-05T10:27:21.002Z</time></trkpt><trkpt lat="40.4580836" lon="15.2439691"><ele>341.0</ele><time>2026-05-05T10:27:22.002Z</time></trkpt><trkpt lat="40.4581463" lon="15.2441017"><ele>344.25</ele><time>2026-05-05T10:27:23.002Z</time></trkpt><trkpt lat="40.4582075" lon="15.2442308"><ele>347.5</ele><time>2026-05-05T10:27:24.002Z</time></trkpt><trkpt lat="40.4582732" lon="15.2443509"><ele>350.75</ele><time>2026-05-05T10:27:25.002Z</time></trkpt><trkpt lat="40.4583478" lon="15.2444599"><ele>354.0</ele><time>2026-05-05T10:27:26.001Z</time></trkpt><trkpt lat="40.4584298" lon="15.2445644"><ele>354.0</ele><time>2026-05-05T10:27:27.001Z</time></trkpt><trkpt lat="40.458507" lon="15.2446692"><ele>354.0</ele><time>2026-05-05T10:27:28.002Z</time></trkpt><trkpt lat="40.4585819" lon="15.2447732"><ele>354.0</ele><time>2026-05-05T10:27:29.001Z</time></trkpt><trkpt lat="40.458655" lon="15.2448721"><ele>354.0</ele><time>2026-05-05T10:27:30.001Z</time></trkpt><trkpt lat="40.458721" lon="15.2449455"><ele>354.0</ele><time>2026-05-05T10:27:31.001Z</time></trkpt><trkpt lat="40.4587868" lon="15.2449954"><ele>356.6666666666667</ele><time>2026-05-05T10:27:32.002Z</time></trkpt><trkpt lat="40.4588459" lon="15.2450264"><ele>359.3333333333333</ele><time>2026-05-05T10:27:33.002Z</time></trkpt><trkpt lat="40.4589489" lon="15.2450742"><ele>362.0</ele><time>2026-05-05T10:27:35.001Z</time></trkpt><trkpt lat="40.4590242" lon="15.2451068"><ele>364.66666666666663</ele><time>2026-05-05T10:27:37.001Z</time></trkpt><trkpt lat="40.45909" lon="15.2451076"><ele>367.3333333333333</ele><time>2026-05-05T10:36:48.999Z</time></trkpt><trkpt lat="40.4591609" lon="15.2451333"><ele>370.0</ele><time>2026-05-05T10:36:52Z</time></trkpt><trkpt lat="40.4592466" lon="15.2451802"><ele>370.0</ele><time>2026-05-05T10:36:53.999Z</time></trkpt><trkpt lat="40.4593472" lon="15.2452236"><ele>370.0</ele><time>2026-05-05T10:36:56Z</time></trkpt><trkpt lat="40.4594502" lon="15.2452521"><ele>370.0</ele><time>2026-05-05T10:36:58Z</time></trkpt><trkpt lat="40.4595439" lon="15.2452354"><ele>370.0</ele><time>2026-05-05T10:37:00Z</time></trkpt><trkpt lat="40.459628" lon="15.2451508"><ele>370.0</ele><time>2026-05-05T10:37:02Z</time></trkpt><trkpt lat="40.459703" lon="15.245056"><ele>369.5</ele><time>2026-05-05T10:37:03.999Z</time></trkpt><trkpt lat="40.4597596" lon="15.2449256"><ele>369.0</ele><time>2026-05-05T10:37:06Z</time></trkpt><trkpt lat="40.4597867" lon="15.2448501"><ele>368.5</ele><time>2026-05-05T10:37:06.999Z</time></trkpt><trkpt lat="40.4598167" lon="15.2447712"><ele>368.0</ele><time>2026-05-05T10:37:07.999Z</time></trkpt><trkpt lat="40.459845" lon="15.2446791"><ele>367.5</ele><time>2026-05-05T10:37:09Z</time></trkpt><trkpt lat="40.4598806" lon="15.2445958"><ele>367.0</ele><time>2026-05-05T10:37:10Z</time></trkpt><trkpt lat="40.4599215" lon="15.2445194"><ele>366.0</ele><time>2026-05-05T10:37:11Z</time></trkpt><trkpt lat="40.459959" lon="15.2444512"><ele>365.0</ele><time>2026-05-05T10:37:11.999Z</time></trkpt><trkpt lat="40.4600289" lon="15.2443256"><ele>364.0</ele><time>2026-05-05T10:37:14Z</time></trkpt><trkpt lat="40.4600815" lon="15.2442187"><ele>363.0</ele><time>2026-05-05T10:37:15.999Z</time></trkpt><trkpt lat="40.4601146" lon="15.2441241"><ele>362.0</ele><time>2026-05-05T10:37:17.999Z</time></trkpt><trkpt lat="40.4601472" lon="15.2440241"><ele>361.0</ele><time>2026-05-05T10:37:37Z</time></trkpt><trkpt lat="40.4601843" lon="15.2438988"><ele>360.4</ele><time>2026-05-05T10:37:39Z</time></trkpt><trkpt lat="40.4602287" lon="15.2437776"><ele>359.8</ele><time>2026-05-05T10:37:41Z</time></trkpt><trkpt lat="40.4602716" lon="15.2436568"><ele>359.2</ele><time>2026-05-05T10:37:43Z</time></trkpt><trkpt lat="40.4603251" lon="15.2435236"><ele>358.59999999999997</ele><time>2026-05-05T10:37:44.999Z</time></trkpt><trkpt lat="40.4603871" lon="15.2433871"><ele>358.0</ele><time>2026-05-05T10:37:46.999Z</time></trkpt><trkpt lat="40.46043" lon="15.2433262"><ele>355.66666666666663</ele><time>2026-05-05T10:37:48Z</time></trkpt><trkpt lat="40.4604688" lon="15.2432572"><ele>353.3333333333333</ele><time>2026-05-05T10:37:48.999Z</time></trkpt><trkpt lat="40.4605001" lon="15.2431826"><ele>351.0</ele><time>2026-05-05T10:37:49.999Z</time></trkpt><trkpt lat="40.4605287" lon="15.2431025"><ele>348.6666666666667</ele><time>2026-05-05T10:37:51Z</time></trkpt><trkpt lat="40.4605671" lon="15.2429521"><ele>346.33333333333337</ele><time>2026-05-05T10:37:53Z</time></trkpt><trkpt lat="40.4605381" lon="15.2428288"><ele>344.0</ele><time>2026-05-05T10:37:55Z</time></trkpt><trkpt lat="40.4605958" lon="15.2427677"><ele>342.0</ele><time>2026-05-05T10:37:57.999Z</time></trkpt><trkpt lat="40.4606784" lon="15.2428261"><ele>340.0</ele><time>2026-05-05T10:38:00Z</time></trkpt><trkpt lat="40.46076" lon="15.2428974"><ele>338.0</ele><time>2026-05-05T10:38:01.999Z</time></trkpt><trkpt lat="40.4608478" lon="15.2429297"><ele>336.0</ele><time>2026-05-05T10:38:04Z</time></trkpt><trkpt lat="40.460948" lon="15.2428947"><ele>334.0</ele><time>2026-05-05T10:38:05.999Z</time></trkpt><trkpt lat="40.4610003" lon="15.2428479"><ele>334.0</ele><time>2026-05-05T10:38:06.999Z</time></trkpt><trkpt lat="40.4610558" lon="15.2428058"><ele>334.0</ele><time>2026-05-05T10:38:08Z</time></trkpt><trkpt lat="40.4611707" lon="15.2427284"><ele>334.0</ele><time>2026-05-05T10:38:10Z</time></trkpt><trkpt lat="40.4612316" lon="15.2427"><ele>334.0</ele><time>2026-05-05T10:38:11Z</time></trkpt><trkpt lat="40.4612899" lon="15.2426681"><ele>334.0</ele><time>2026-05-05T10:38:11.999Z</time></trkpt><trkpt lat="40.4614112" lon="15.2426281"><ele>334.0</ele><time>2026-05-05T10:38:13.999Z</time></trkpt><trkpt lat="40.4614877" lon="15.2425615"><ele>331.8333333333333</ele><time>2026-05-05T10:38:16Z</time></trkpt><trkpt lat="40.4615338" lon="15.2424764"><ele>329.66666666666663</ele><time>2026-05-05T10:38:17.999Z</time></trkpt><trkpt lat="40.4615543" lon="15.2423684"><ele>327.5</ele><time>2026-05-05T10:38:19.999Z</time></trkpt><trkpt lat="40.4615612" lon="15.2422664"><ele>325.3333333333333</ele><time>2026-05-05T10:38:22Z</time></trkpt><trkpt lat="40.4615996" lon="15.2421722"><ele>323.1666666666667</ele><time>2026-05-05T10:38:23.999Z</time></trkpt><trkpt lat="40.4616606" lon="15.2420749"><ele>321.0</ele><time>2026-05-05T10:38:26Z</time></trkpt><trkpt lat="40.4617442" lon="15.2419788"><ele>319.5</ele><time>2026-05-05T10:38:28Z</time></trkpt><trkpt lat="40.4618317" lon="15.2418642"><ele>318.0</ele><time>2026-05-05T10:38:30Z</time></trkpt><trkpt lat="40.4618801" lon="15.2418082"><ele>316.5</ele><time>2026-05-05T10:38:31Z</time></trkpt><trkpt lat="40.4619295" lon="15.241752"><ele>315.0</ele><time>2026-05-05T10:38:32Z</time></trkpt><trkpt lat="40.4619749" lon="15.2416884"><ele>313.5</ele><time>2026-05-05T10:38:32.999Z</time></trkpt><trkpt lat="40.4620201" lon="15.2416246"><ele>312.0</ele><time>2026-05-05T10:38:34Z</time></trkpt><trkpt lat="40.4620619" lon="15.2415609"><ele>312.0</ele><time>2026-05-05T10:38:35Z</time></trkpt><trkpt lat="40.4621044" lon="15.2414947"><ele>312.0</ele><time>2026-05-05T10:38:36Z</time></trkpt><trkpt lat="40.462173" lon="15.2413572"><ele>312.0</ele><time>2026-05-05T10:38:38Z</time></trkpt><trkpt lat="40.4622492" lon="15.241219"><ele>312.0</ele><time>2026-05-05T10:38:40Z</time></trkpt><trkpt lat="40.4622954" lon="15.241149"><ele>312.0</ele><time>2026-05-05T10:38:40.999Z</time></trkpt><trkpt lat="40.4623388" lon="15.2410826"><ele>308.8571428571429</ele><time>2026-05-05T10:38:42Z</time></trkpt><trkpt lat="40.4623911" lon="15.2410198"><ele>305.71428571428567</ele><time>2026-05-05T10:38:42.999Z</time></trkpt><trkpt lat="40.4624423" lon="15.2409604"><ele>302.57142857142856</ele><time>2026-05-05T10:38:43.999Z</time></trkpt><trkpt lat="40.4625027" lon="15.2409208"><ele>299.42857142857144</ele><time>2026-05-05T10:38:44.999Z</time></trkpt><trkpt lat="40.4625618" lon="15.2408831"><ele>296.28571428571433</ele><time>2026-05-05T10:38:46Z</time></trkpt><trkpt lat="40.4626189" lon="15.240836"><ele>293.14285714285717</ele><time>2026-05-05T10:38:46.999Z</time></trkpt><trkpt lat="40.4626699" lon="15.2407853"><ele>290.0</ele><time>2026-05-05T10:38:48Z</time></trkpt><trkpt lat="40.4627415" lon="15.240678"><ele>287.25</ele><time>2026-05-05T10:38:50Z</time></trkpt><trkpt lat="40.4627948" lon="15.2405446"><ele>284.5</ele><time>2026-05-05T10:38:52Z</time></trkpt><trkpt lat="40.4628298" lon="15.2403908"><ele>281.75</ele><time>2026-05-05T10:38:53.999Z</time></trkpt><trkpt lat="40.4628465" lon="15.2402319"><ele>279.0</ele><time>2026-05-05T10:38:56Z</time></trkpt><trkpt lat="40.4628474" lon="15.2401053"><ele>279.0</ele><time>2026-05-05T10:38:57.999Z</time></trkpt><trkpt lat="40.4627977" lon="15.2400519"><ele>279.0</ele><time>2026-05-05T10:39:05Z</time></trkpt><trkpt lat="40.4627389" lon="15.2400136"><ele>279.0</ele><time>2026-05-05T10:39:07.999Z</time></trkpt><trkpt lat="40.4626511" lon="15.2399399"><ele>279.0</ele><time>2026-05-05T10:39:23.998Z</time></trkpt><trkpt lat="40.4625589" lon="15.2398483"><ele>279.0</ele><time>2026-05-05T10:39:26Z</time></trkpt><trkpt lat="40.4624815" lon="15.2397781"><ele>279.0</ele><time>2026-05-05T10:39:28Z</time></trkpt><trkpt lat="40.4623992" lon="15.2397373"><ele>278.1428571428571</ele><time>2026-05-05T10:39:30Z</time></trkpt><trkpt lat="40.4623256" lon="15.2397359"><ele>277.2857142857143</ele><time>2026-05-05T10:39:32.999Z</time></trkpt><trkpt lat="40.4622501" lon="15.2397379"><ele>276.42857142857144</ele><time>2026-05-05T10:39:34.999Z</time></trkpt><trkpt lat="40.4621931" lon="15.2397812"><ele>275.57142857142856</ele><time>2026-05-05T10:39:37.999Z</time></trkpt><trkpt lat="40.4622522" lon="15.2397381"><ele>274.7142857142857</ele><time>2026-05-05T10:39:44.999Z</time></trkpt><trkpt lat="40.4623305" lon="15.2397125"><ele>273.85714285714283</ele><time>2026-05-05T10:39:47Z</time></trkpt><trkpt lat="40.4624071" lon="15.2397208"><ele>273.0</ele><time>2026-05-05T10:39:48.999Z</time></trkpt><trkpt lat="40.4624726" lon="15.2397649"><ele>274.0</ele><time>2026-05-05T10:39:50.999Z</time></trkpt><trkpt lat="40.4625332" lon="15.2398313"><ele>275.0</ele><time>2026-05-05T10:39:53.999Z</time></trkpt><trkpt lat="40.4626062" lon="15.2399092"><ele>276.0</ele><time>2026-05-05T10:39:56Z</time></trkpt><trkpt lat="40.4626923" lon="15.2399834"><ele>277.0</ele><time>2026-05-05T10:39:57.999Z</time></trkpt><trkpt lat="40.4627773" lon="15.2400492"><ele>278.0</ele><time>2026-05-05T10:40:00Z</time></trkpt><trkpt lat="40.4628395" lon="15.2400827"><ele>279.0</ele><time>2026-05-05T10:40:01.999Z</time></trkpt><trkpt lat="40.4628673" lon="15.2399874"><ele>279.0</ele><time>2026-05-05T10:40:05Z</time></trkpt><trkpt lat="40.4628995" lon="15.2398885"><ele>279.0</ele><time>2026-05-05T10:40:06.999Z</time></trkpt><trkpt lat="40.4629273" lon="15.2397771"><ele>279.0</ele><time>2026-05-05T10:40:09Z</time></trkpt><trkpt lat="40.4629448" lon="15.2396718"><ele>279.0</ele><time>2026-05-05T10:40:10.999Z</time></trkpt><trkpt lat="40.4629667" lon="15.2395638"><ele>279.0</ele><time>2026-05-05T10:40:12.999Z</time></trkpt><trkpt lat="40.4629676" lon="15.2394523"><ele>279.0</ele><time>2026-05-05T10:40:15Z</time></trkpt><trkpt lat="40.4629611" lon="15.2393509"><ele>276.0</ele><time>2026-05-05T10:40:17Z</time></trkpt><trkpt lat="40.4629615" lon="15.2392678"><ele>273.0</ele><time>2026-05-05T10:40:28Z</time></trkpt><trkpt lat="40.4630331" lon="15.2392148"><ele>270.0</ele><time>2026-05-05T10:40:30.999Z</time></trkpt><trkpt lat="40.4631087" lon="15.2391516"><ele>267.0</ele><time>2026-05-05T10:40:32.999Z</time></trkpt><trkpt lat="40.4631845" lon="15.2390633"><ele>264.0</ele><time>2026-05-05T10:40:34.999Z</time></trkpt><trkpt lat="40.4632621" lon="15.2389815"><ele>261.0</ele><time>2026-05-05T10:40:37Z</time></trkpt><trkpt lat="40.4633248" lon="15.2389001"><ele>260.1666666666667</ele><time>2026-05-05T10:40:38.999Z</time></trkpt><trkpt lat="40.4633251" lon="15.2387933"><ele>259.3333333333333</ele><time>2026-05-05T10:40:42Z</time></trkpt><trkpt lat="40.4632678" lon="15.2387187"><ele>258.5</ele><time>2026-05-05T10:40:43.998Z</time></trkpt><trkpt lat="40.4632173" lon="15.2386549"><ele>257.66666666666663</ele><time>2026-05-05T10:40:45.999Z</time></trkpt><trkpt lat="40.4631703" lon="15.2385976"><ele>256.8333333333333</ele><time>2026-05-05T10:40:48Z</time></trkpt><trkpt lat="40.463087" lon="15.2385219"><ele>256.0</ele><time>2026-05-05T10:40:50Z</time></trkpt><trkpt lat="40.4630309" lon="15.2384822"><ele>256.0</ele><time>2026-05-05T10:40:51Z</time></trkpt><trkpt lat="40.4629725" lon="15.2384393"><ele>255.99999999999997</ele><time>2026-05-05T10:40:52Z</time></trkpt><trkpt lat="40.4629098" lon="15.2383947"><ele>256.0</ele><time>2026-05-05T10:40:53Z</time></trkpt><trkpt lat="40.4628512" lon="15.2383438"><ele>256.0</ele><time>2026-05-05T10:40:53.999Z</time></trkpt><trkpt lat="40.4627903" lon="15.2382898"><ele>255.99999999999997</ele><time>2026-05-05T10:40:55Z</time></trkpt><trkpt lat="40.4627288" lon="15.2382426"><ele>256.0</ele><time>2026-05-05T10:40:56Z</time></trkpt><trkpt lat="40.4626639" lon="15.2382083"><ele>256.0</ele><time>2026-05-05T10:40:57Z</time></trkpt><trkpt lat="40.4626028" lon="15.238179"><ele>256.8333333333333</ele><time>2026-05-05T10:40:58Z</time></trkpt><trkpt lat="40.4625384" lon="15.2381521"><ele>257.66666666666663</ele><time>2026-05-05T10:40:58.999Z</time></trkpt><trkpt lat="40.4624788" lon="15.2381191"><ele>258.5</ele><time>2026-05-05T10:40:59.999Z</time></trkpt><trkpt lat="40.4623932" lon="15.2379844"><ele>259.3333333333333</ele><time>2026-05-05T10:41:02Z</time></trkpt><trkpt lat="40.4623469" lon="15.2378934"><ele>260.1666666666667</ele><time>2026-05-05T10:41:03Z</time></trkpt><trkpt lat="40.4622932" lon="15.2378109"><ele>261.0</ele><time>2026-05-05T10:41:03.999Z</time></trkpt><trkpt lat="40.4622356" lon="15.2377347"><ele>261.0</ele><time>2026-05-05T10:41:05Z</time></trkpt><trkpt lat="40.4621686" lon="15.2376734"><ele>261.0</ele><time>2026-05-05T10:41:06Z</time></trkpt><trkpt lat="40.4621073" lon="15.2376115"><ele>261.0</ele><time>2026-05-05T10:41:07Z</time></trkpt><trkpt lat="40.4620469" lon="15.2375457"><ele>261.0</ele><time>2026-05-05T10:41:07.999Z</time></trkpt><trkpt lat="40.4619864" lon="15.2374902"><ele>261.0</ele><time>2026-05-05T10:41:08.999Z</time></trkpt><trkpt lat="40.4619264" lon="15.2374385"><ele>261.0</ele><time>2026-05-05T10:41:09.999Z</time></trkpt><trkpt lat="40.4618688" lon="15.2373926"><ele>261.0</ele><time>2026-05-05T10:41:11Z</time></trkpt><trkpt lat="40.4617572" lon="15.2373218"><ele>261.0</ele><time>2026-05-05T10:41:13Z</time></trkpt><trkpt lat="40.4616397" lon="15.2372881"><ele>261.0</ele><time>2026-05-05T10:41:14.999Z</time></trkpt><trkpt lat="40.4615327" lon="15.2373169"><ele>261.0</ele><time>2026-05-05T10:41:16.999Z</time></trkpt><trkpt lat="40.4614231" lon="15.2374131"><ele>262.0</ele><time>2026-05-05T10:41:18.999Z</time></trkpt><trkpt lat="40.4613605" lon="15.2374738"><ele>263.0</ele><time>2026-05-05T10:41:19.999Z</time></trkpt><trkpt lat="40.4612934" lon="15.2375366"><ele>264.0</ele><time>2026-05-05T10:41:21Z</time></trkpt><trkpt lat="40.4612274" lon="15.2375948"><ele>265.0</ele><time>2026-05-05T10:41:21.999Z</time></trkpt><trkpt lat="40.4611597" lon="15.2376572"><ele>266.0</ele><time>2026-05-05T10:41:22.999Z</time></trkpt><trkpt lat="40.4610979" lon="15.2377132"><ele>267.0</ele><time>2026-05-05T10:41:24Z</time></trkpt><trkpt lat="40.4610344" lon="15.2377705"><ele>267.8333333333333</ele><time>2026-05-05T10:41:24.999Z</time></trkpt><trkpt lat="40.4609708" lon="15.2378248"><ele>268.6666666666667</ele><time>2026-05-05T10:41:26Z</time></trkpt><trkpt lat="40.4609083" lon="15.2378741"><ele>269.5</ele><time>2026-05-05T10:41:26.999Z</time></trkpt><trkpt lat="40.4608446" lon="15.237923"><ele>270.33333333333337</ele><time>2026-05-05T10:41:27.999Z</time></trkpt><trkpt lat="40.4607831" lon="15.2379709"><ele>271.1666666666667</ele><time>2026-05-05T10:41:28.999Z</time></trkpt><trkpt lat="40.4607288" lon="15.2380253"><ele>272.0</ele><time>2026-05-05T10:41:29.999Z</time></trkpt><trkpt lat="40.4606334" lon="15.238131"><ele>273.0</ele><time>2026-05-05T10:41:32Z</time></trkpt><trkpt lat="40.460532" lon="15.2382243"><ele>274.0</ele><time>2026-05-05T10:41:34Z</time></trkpt><trkpt lat="40.4604824" lon="15.2382828"><ele>275.0</ele><time>2026-05-05T10:41:34.998Z</time></trkpt><trkpt lat="40.4604286" lon="15.2383513"><ele>276.0</ele><time>2026-05-05T10:41:35.999Z</time></trkpt><trkpt lat="40.4603675" lon="15.2384296"><ele>277.0</ele><time>2026-05-05T10:41:36.999Z</time></trkpt><trkpt lat="40.4603036" lon="15.2385169"><ele>278.0</ele><time>2026-05-05T10:41:37.999Z</time></trkpt><trkpt lat="40.4602351" lon="15.2386175"><ele>278.0</ele><time>2026-05-05T10:41:38.999Z</time></trkpt><trkpt lat="40.4601691" lon="15.238724"><ele>278.0</ele><time>2026-05-05T10:41:40Z</time></trkpt><trkpt lat="40.4600982" lon="15.2388398"><ele>278.0</ele><time>2026-05-05T10:41:40.999Z</time></trkpt><trkpt lat="40.4600189" lon="15.2389451"><ele>278.0</ele><time>2026-05-05T10:41:42Z</time></trkpt><trkpt lat="40.4599357" lon="15.2390537"><ele>278.0</ele><time>2026-05-05T10:41:42.999Z</time></trkpt><trkpt lat="40.4598519" lon="15.239163"><ele>279.8</ele><time>2026-05-05T10:41:44Z</time></trkpt><trkpt lat="40.4597693" lon="15.2392616"><ele>281.6</ele><time>2026-05-05T10:41:45Z</time></trkpt><trkpt lat="40.4596895" lon="15.2393631"><ele>283.4</ele><time>2026-05-05T10:41:45.999Z</time></trkpt><trkpt lat="40.4596125" lon="15.2394594"><ele>285.2</ele><time>2026-05-05T10:41:47Z</time></trkpt><trkpt lat="40.4595375" lon="15.2395531"><ele>287.0</ele><time>2026-05-05T10:41:48Z</time></trkpt><trkpt lat="40.4594731" lon="15.2396439"><ele>287.0</ele><time>2026-05-05T10:41:48.999Z</time></trkpt><trkpt lat="40.4594205" lon="15.2397268"><ele>287.0</ele><time>2026-05-05T10:41:49.998Z</time></trkpt><trkpt lat="40.4593589" lon="15.2397964"><ele>287.0</ele><time>2026-05-05T10:41:50.999Z</time></trkpt><trkpt lat="40.4592839" lon="15.2398485"><ele>287.0</ele><time>2026-05-05T10:41:51.999Z</time></trkpt><trkpt lat="40.4591986" lon="15.2398953"><ele>287.0</ele><time>2026-05-05T10:41:52.999Z</time></trkpt><trkpt lat="40.4591088" lon="15.2399435"><ele>287.0</ele><time>2026-05-05T10:41:53.999Z</time></trkpt><trkpt lat="40.4590244" lon="15.2400011"><ele>289.0</ele><time>2026-05-05T10:41:55Z</time></trkpt><trkpt lat="40.458944" lon="15.2400608"><ele>291.0</ele><time>2026-05-05T10:41:56Z</time></trkpt><trkpt lat="40.4588697" lon="15.2401237"><ele>293.0</ele><time>2026-05-05T10:41:57Z</time></trkpt><trkpt lat="40.4588041" lon="15.2401758"><ele>295.0</ele><time>2026-05-05T10:41:58Z</time></trkpt><trkpt lat="40.4587509" lon="15.2402349"><ele>297.0</ele><time>2026-05-05T10:41:59Z</time></trkpt><trkpt lat="40.4587058" lon="15.2403008"><ele>299.0</ele><time>2026-05-05T10:42:00Z</time></trkpt><trkpt lat="40.4586674" lon="15.2403846"><ele>299.0</ele><time>2026-05-05T10:42:01Z</time></trkpt><trkpt lat="40.4586219" lon="15.240456"><ele>299.0</ele><time>2026-05-05T10:42:02Z</time></trkpt><trkpt lat="40.4585567" lon="15.2405893"><ele>299.0</ele><time>2026-05-05T10:42:03.999Z</time></trkpt><trkpt lat="40.4585351" lon="15.2406716"><ele>299.0</ele><time>2026-05-05T10:42:05Z</time></trkpt><trkpt lat="40.4585166" lon="15.2407628"><ele>299.0</ele><time>2026-05-05T10:42:06Z</time></trkpt><trkpt lat="40.4584894" lon="15.2408577"><ele>299.0</ele><time>2026-05-05T10:42:07Z</time></trkpt><trkpt lat="40.4584539" lon="15.2409495"><ele>300.6666666666667</ele><time>2026-05-05T10:42:07.998Z</time></trkpt><trkpt lat="40.4584173" lon="15.2410435"><ele>302.33333333333337</ele><time>2026-05-05T10:42:08.999Z</time></trkpt><trkpt lat="40.4583757" lon="15.2411208"><ele>304.0</ele><time>2026-05-05T10:42:09.999Z</time></trkpt><trkpt lat="40.4583173" lon="15.241188"><ele>305.6666666666667</ele><time>2026-05-05T10:42:10.999Z</time></trkpt><trkpt lat="40.4582612" lon="15.2412446"><ele>307.3333333333333</ele><time>2026-05-05T10:42:12Z</time></trkpt><trkpt lat="40.4581996" lon="15.2413006"><ele>309.0</ele><time>2026-05-05T10:42:13Z</time></trkpt><trkpt lat="40.4581322" lon="15.2413489"><ele>309.0</ele><time>2026-05-05T10:42:14Z</time></trkpt><trkpt lat="40.4580681" lon="15.2413903"><ele>309.0</ele><time>2026-05-05T10:42:15Z</time></trkpt><trkpt lat="40.4580119" lon="15.2414408"><ele>309.0</ele><time>2026-05-05T10:42:15.999Z</time></trkpt><trkpt lat="40.4579574" lon="15.2415084"><ele>309.0</ele><time>2026-05-05T10:42:17Z</time></trkpt><trkpt lat="40.4579049" lon="15.2415813"><ele>309.0</ele><time>2026-05-05T10:42:18Z</time></trkpt><trkpt lat="40.4578163" lon="15.2416677"><ele>309.0</ele><time>2026-05-05T10:42:20Z</time></trkpt><trkpt lat="40.4577319" lon="15.2417067"><ele>310.0</ele><time>2026-05-05T10:42:21.999Z</time></trkpt><trkpt lat="40.4576216" lon="15.2417458"><ele>311.0</ele><time>2026-05-05T10:42:24Z</time></trkpt><trkpt lat="40.4575025" lon="15.2417934"><ele>312.0</ele><time>2026-05-05T10:42:26Z</time></trkpt><trkpt lat="40.457434" lon="15.2418085"><ele>313.0</ele><time>2026-05-05T10:42:26.999Z</time></trkpt><trkpt lat="40.4573632" lon="15.241831"><ele>314.0</ele><time>2026-05-05T10:42:28Z</time></trkpt><trkpt lat="40.4573028" lon="15.2418576"><ele>315.0</ele><time>2026-05-05T10:42:29Z</time></trkpt><trkpt lat="40.4572424" lon="15.2418811"><ele>315.0</ele><time>2026-05-05T10:42:30Z</time></trkpt><trkpt lat="40.4571778" lon="15.2419072"><ele>315.0</ele><time>2026-05-05T10:42:31Z</time></trkpt><trkpt lat="40.457115" lon="15.2419314"><ele>315.0</ele><time>2026-05-05T10:42:32Z</time></trkpt><trkpt lat="40.4570519" lon="15.2419557"><ele>315.0</ele><time>2026-05-05T10:42:33Z</time></trkpt><trkpt lat="40.4569908" lon="15.2419815"><ele>315.0</ele><time>2026-05-05T10:42:34Z</time></trkpt><trkpt lat="40.4568765" lon="15.2420262"><ele>315.0</ele><time>2026-05-05T10:42:36Z</time></trkpt><trkpt lat="40.4568044" lon="15.2420937"><ele>315.0</ele><time>2026-05-05T10:42:37.999Z</time></trkpt><trkpt lat="40.4567837" lon="15.2421901"><ele>315.0</ele><time>2026-05-05T10:42:40.999Z</time></trkpt><trkpt lat="40.4568191" lon="15.2420628"><ele>315.0</ele><time>2026-05-05T10:42:45.999Z</time></trkpt><trkpt lat="40.4569119" lon="15.2420124"><ele>315.0</ele><time>2026-05-05T10:42:47.999Z</time></trkpt><trkpt lat="40.4569764" lon="15.2419884"><ele>315.0</ele><time>2026-05-05T10:42:48.999Z</time></trkpt><trkpt lat="40.4570482" lon="15.2419629"><ele>315.0</ele><time>2026-05-05T10:42:49.999Z</time></trkpt><trkpt lat="40.4571231" lon="15.2419341"><ele>315.0</ele><time>2026-05-05T10:42:51Z</time></trkpt><trkpt lat="40.4571948" lon="15.2419055"><ele>315.0</ele><time>2026-05-05T10:42:52Z</time></trkpt><trkpt lat="40.4572687" lon="15.2418753"><ele>315.0</ele><time>2026-05-05T10:42:52.999Z</time></trkpt><trkpt lat="40.4573411" lon="15.2418455"><ele>315.0</ele><time>2026-05-05T10:42:54Z</time></trkpt><trkpt lat="40.4574132" lon="15.2418242"><ele>315.0</ele><time>2026-05-05T10:42:55Z</time></trkpt><trkpt lat="40.4574842" lon="15.241807"><ele>315.0</ele><time>2026-05-05T10:42:56Z</time></trkpt><trkpt lat="40.4575526" lon="15.2417803"><ele>315.0</ele><time>2026-05-05T10:42:57Z</time></trkpt><trkpt lat="40.4576162" lon="15.2417489"><ele>315.0</ele><time>2026-05-05T10:42:58Z</time></trkpt><trkpt lat="40.4576807" lon="15.2417175"><ele>315.0</ele><time>2026-05-05T10:42:59Z</time></trkpt><trkpt lat="40.4577473" lon="15.2416906"><ele>315.0</ele><time>2026-05-05T10:43:00Z</time></trkpt><trkpt lat="40.4578145" lon="15.2416603"><ele>315.0</ele><time>2026-05-05T10:43:01Z</time></trkpt><trkpt lat="40.4578748" lon="15.2416252"><ele>315.0</ele><time>2026-05-05T10:43:01.999Z</time></trkpt><trkpt lat="40.4579519" lon="15.241521"><ele>315.0</ele><time>2026-05-05T10:43:04Z</time></trkpt><trkpt lat="40.4580429" lon="15.2414172"><ele>314.14285714285717</ele><time>2026-05-05T10:43:05.999Z</time></trkpt><trkpt lat="40.4580974" lon="15.2413726"><ele>313.2857142857143</ele><time>2026-05-05T10:43:07Z</time></trkpt><trkpt lat="40.4581573" lon="15.2413302"><ele>312.42857142857144</ele><time>2026-05-05T10:43:07.999Z</time></trkpt><trkpt lat="40.4582168" lon="15.2412861"><ele>311.57142857142856</ele><time>2026-05-05T10:43:08.999Z</time></trkpt><trkpt lat="40.4582732" lon="15.2412286"><ele>310.7142857142857</ele><time>2026-05-05T10:43:09.999Z</time></trkpt><trkpt lat="40.4583279" lon="15.241175"><ele>309.8571428571429</ele><time>2026-05-05T10:43:10.999Z</time></trkpt><trkpt lat="40.458381" lon="15.2411059"><ele>309.0</ele><time>2026-05-05T10:43:11.999Z</time></trkpt><trkpt lat="40.458422" lon="15.2410311"><ele>309.00000000000006</ele><time>2026-05-05T10:43:12.999Z</time></trkpt><trkpt lat="40.4584539" lon="15.240946"><ele>309.0</ele><time>2026-05-05T10:43:13.999Z</time></trkpt><trkpt lat="40.4584844" lon="15.240857"><ele>309.0</ele><time>2026-05-05T10:43:15Z</time></trkpt><trkpt lat="40.4585102" lon="15.2407671"><ele>309.0</ele><time>2026-05-05T10:43:16Z</time></trkpt><trkpt lat="40.4585273" lon="15.2406756"><ele>309.0</ele><time>2026-05-05T10:43:16.999Z</time></trkpt><trkpt lat="40.4585495" lon="15.2405898"><ele>309.00000000000006</ele><time>2026-05-05T10:43:18Z</time></trkpt><trkpt lat="40.4585832" lon="15.2405131"><ele>309.0</ele><time>2026-05-05T10:43:19Z</time></trkpt><trkpt lat="40.4586245" lon="15.2404399"><ele>307.8571428571429</ele><time>2026-05-05T10:43:19.999Z</time></trkpt><trkpt lat="40.4586676" lon="15.2403699"><ele>306.7142857142857</ele><time>2026-05-05T10:43:21Z</time></trkpt><trkpt lat="40.4587122" lon="15.2402946"><ele>305.57142857142856</ele><time>2026-05-05T10:43:22Z</time></trkpt><trkpt lat="40.4587561" lon="15.2402226"><ele>304.42857142857144</ele><time>2026-05-05T10:43:23Z</time></trkpt><trkpt lat="40.4588181" lon="15.2401624"><ele>303.2857142857143</ele><time>2026-05-05T10:43:23.999Z</time></trkpt><trkpt lat="40.4588846" lon="15.2401224"><ele>302.14285714285717</ele><time>2026-05-05T10:43:25Z</time></trkpt><trkpt lat="40.4589572" lon="15.2400656"><ele>301.0</ele><time>2026-05-05T10:43:25.999Z</time></trkpt><trkpt lat="40.4590332" lon="15.240006"><ele>301.0</ele><time>2026-05-05T10:43:27Z</time></trkpt><trkpt lat="40.4591151" lon="15.2399511"><ele>301.0</ele><time>2026-05-05T10:43:28Z</time></trkpt><trkpt lat="40.4591922" lon="15.239906"><ele>301.0</ele><time>2026-05-05T10:43:28.998Z</time></trkpt><trkpt lat="40.4592655" lon="15.2398614"><ele>301.0</ele><time>2026-05-05T10:43:29.999Z</time></trkpt><trkpt lat="40.4593385" lon="15.2398192"><ele>301.0</ele><time>2026-05-05T10:43:31Z</time></trkpt><trkpt lat="40.4594047" lon="15.2397594"><ele>301.0</ele><time>2026-05-05T10:43:31.999Z</time></trkpt><trkpt lat="40.4594668" lon="15.2396768"><ele>298.2</ele><time>2026-05-05T10:43:32.999Z</time></trkpt><trkpt lat="40.4595318" lon="15.2395966"><ele>295.40000000000003</ele><time>2026-05-05T10:43:34Z</time></trkpt><trkpt lat="40.4595974" lon="15.239509"><ele>292.6</ele><time>2026-05-05T10:43:35Z</time></trkpt><trkpt lat="40.459657" lon="15.2394237"><ele>289.8</ele><time>2026-05-05T10:43:36Z</time></trkpt><trkpt lat="40.4597172" lon="15.2393294"><ele>287.0</ele><time>2026-05-05T10:43:37Z</time></trkpt><trkpt lat="40.4597904" lon="15.2392451"><ele>287.0</ele><time>2026-05-05T10:43:38Z</time></trkpt><trkpt lat="40.4598589" lon="15.2391568"><ele>287.0</ele><time>2026-05-05T10:43:39Z</time></trkpt><trkpt lat="40.4599322" lon="15.2390687"><ele>287.0</ele><time>2026-05-05T10:43:40Z</time></trkpt><trkpt lat="40.4599986" lon="15.2389762"><ele>287.0</ele><time>2026-05-05T10:43:41Z</time></trkpt><trkpt lat="40.4600685" lon="15.2388806"><ele>287.0</ele><time>2026-05-05T10:43:41.999Z</time></trkpt><trkpt lat="40.4601351" lon="15.2387799"><ele>285.4</ele><time>2026-05-05T10:43:43Z</time></trkpt><trkpt lat="40.4601985" lon="15.2386795"><ele>283.79999999999995</ele><time>2026-05-05T10:43:44Z</time></trkpt><trkpt lat="40.4602621" lon="15.2385833"><ele>282.2</ele><time>2026-05-05T10:43:45Z</time></trkpt><trkpt lat="40.4603301" lon="15.2384855"><ele>280.59999999999997</ele><time>2026-05-05T10:43:45.999Z</time></trkpt><trkpt lat="40.4603986" lon="15.2383972"><ele>279.0</ele><time>2026-05-05T10:43:47Z</time></trkpt><trkpt lat="40.4604705" lon="15.23831"><ele>279.0</ele><time>2026-05-05T10:43:48Z</time></trkpt><trkpt lat="40.4605409" lon="15.2382329"><ele>279.0</ele><time>2026-05-05T10:43:49Z</time></trkpt><trkpt lat="40.460609" lon="15.2381614"><ele>279.0</ele><time>2026-05-05T10:43:50Z</time></trkpt><trkpt lat="40.4606773" lon="15.2380907"><ele>279.0</ele><time>2026-05-05T10:43:51Z</time></trkpt><trkpt lat="40.4607461" lon="15.2380177"><ele>279.0</ele><time>2026-05-05T10:43:52Z</time></trkpt><trkpt lat="40.4608168" lon="15.2379489"><ele>279.0</ele><time>2026-05-05T10:43:53Z</time></trkpt><trkpt lat="40.460894" lon="15.2378871"><ele>277.59999999999997</ele><time>2026-05-05T10:43:53.999Z</time></trkpt><trkpt lat="40.4609723" lon="15.237821"><ele>276.2</ele><time>2026-05-05T10:43:54.999Z</time></trkpt><trkpt lat="40.4610533" lon="15.2377511"><ele>274.79999999999995</ele><time>2026-05-05T10:43:55.999Z</time></trkpt><trkpt lat="40.4611357" lon="15.2376753"><ele>273.4</ele><time>2026-05-05T10:43:56.999Z</time></trkpt><trkpt lat="40.4612162" lon="15.2375986"><ele>272.0</ele><time>2026-05-05T10:43:57.998Z</time></trkpt><trkpt lat="40.4612976" lon="15.2375247"><ele>271.1666666666667</ele><time>2026-05-05T10:43:59Z</time></trkpt><trkpt lat="40.4613776" lon="15.237457"><ele>270.33333333333337</ele><time>2026-05-05T10:44:00Z</time></trkpt><trkpt lat="40.4614548" lon="15.237393"><ele>269.5</ele><time>2026-05-05T10:44:00.999Z</time></trkpt><trkpt lat="40.4615119" lon="15.2373282"><ele>268.6666666666667</ele><time>2026-05-05T10:44:01.999Z</time></trkpt><trkpt lat="40.4615411" lon="15.2372385"><ele>267.8333333333333</ele><time>2026-05-05T10:44:03Z</time></trkpt><trkpt lat="40.4615317" lon="15.2371439"><ele>267.0</ele><time>2026-05-05T10:44:03.999Z</time></trkpt><trkpt lat="40.4615062" lon="15.2370502"><ele>266.0</ele><time>2026-05-05T10:44:05Z</time></trkpt><trkpt lat="40.4614772" lon="15.2369639"><ele>265.0</ele><time>2026-05-05T10:44:06Z</time></trkpt><trkpt lat="40.4614433" lon="15.2368862"><ele>264.0</ele><time>2026-05-05T10:44:06.999Z</time></trkpt><trkpt lat="40.4614015" lon="15.2368088"><ele>263.0</ele><time>2026-05-05T10:44:07.999Z</time></trkpt><trkpt lat="40.4613483" lon="15.2367322"><ele>262.0</ele><time>2026-05-05T10:44:09Z</time></trkpt><trkpt lat="40.4612942" lon="15.2366484"><ele>261.0</ele><time>2026-05-05T10:44:09.999Z</time></trkpt><trkpt lat="40.4612436" lon="15.2365502"><ele>259.1666666666667</ele><time>2026-05-05T10:44:11Z</time></trkpt><trkpt lat="40.4611986" lon="15.2364531"><ele>257.3333333333333</ele><time>2026-05-05T10:44:12Z</time></trkpt><trkpt lat="40.4611645" lon="15.2363508"><ele>255.5</ele><time>2026-05-05T10:44:12.998Z</time></trkpt><trkpt lat="40.4611253" lon="15.2362625"><ele>253.66666666666666</ele><time>2026-05-05T10:44:13.999Z</time></trkpt><trkpt lat="40.4610842" lon="15.2361927"><ele>251.83333333333331</ele><time>2026-05-05T10:44:14.998Z</time></trkpt><trkpt lat="40.4610077" lon="15.2360971"><ele>250.0</ele><time>2026-05-05T10:44:16.999Z</time></trkpt><trkpt lat="40.4610141" lon="15.2360039"><ele>249.99999999999997</ele><time>2026-05-05T10:44:18.997Z</time></trkpt><trkpt lat="40.4610926" lon="15.2359301"><ele>250.0</ele><time>2026-05-05T10:44:20.998Z</time></trkpt><trkpt lat="40.4611783" lon="15.2358635"><ele>250.0</ele><time>2026-05-05T10:44:22.999Z</time></trkpt><trkpt lat="40.4612447" lon="15.2357956"><ele>250.0</ele><time>2026-05-05T10:44:24.998Z</time></trkpt><trkpt lat="40.4613073" lon="15.2357381"><ele>249.99999999999997</ele><time>2026-05-05T10:44:26.999Z</time></trkpt><trkpt lat="40.4613678" lon="15.2356837"><ele>250.0</ele><time>2026-05-05T10:44:28.999Z</time></trkpt><trkpt lat="40.4614263" lon="15.2356323"><ele>249.99999999999997</ele><time>2026-05-05T10:44:30.999Z</time></trkpt><trkpt lat="40.4613537" lon="15.2356885"><ele>250.0</ele><time>2026-05-05T10:44:36.998Z</time></trkpt><trkpt lat="40.4612654" lon="15.2357791"><ele>250.0</ele><time>2026-05-05T10:44:38.999Z</time></trkpt><trkpt lat="40.461182" lon="15.235826"><ele>250.0</ele><time>2026-05-05T10:44:40.998Z</time></trkpt><trkpt lat="40.4611156" lon="15.235749"><ele>249.99999999999997</ele><time>2026-05-05T10:44:42.998Z</time></trkpt><trkpt lat="40.4610973" lon="15.2356661"><ele>250.0</ele><time>2026-05-05T10:44:43.999Z</time></trkpt><trkpt lat="40.4610795" lon="15.2355714"><ele>248.49999999999997</ele><time>2026-05-05T10:44:44.998Z</time></trkpt><trkpt lat="40.461053" lon="15.2354807"><ele>247.0</ele><time>2026-05-05T10:44:45.998Z</time></trkpt><trkpt lat="40.4610188" lon="15.2353874"><ele>245.5</ele><time>2026-05-05T10:44:46.999Z</time></trkpt><trkpt lat="40.4609777" lon="15.2352975"><ele>244.0</ele><time>2026-05-05T10:44:47.999Z</time></trkpt><trkpt lat="40.4609302" lon="15.235213"><ele>242.49999999999997</ele><time>2026-05-05T10:44:48.998Z</time></trkpt><trkpt lat="40.4608806" lon="15.2351279"><ele>241.0</ele><time>2026-05-05T10:44:49.999Z</time></trkpt><trkpt lat="40.4608295" lon="15.2350395"><ele>240.99999999999997</ele><time>2026-05-05T10:44:50.999Z</time></trkpt><trkpt lat="40.4607802" lon="15.2349481"><ele>241.0</ele><time>2026-05-05T10:44:51.998Z</time></trkpt><trkpt lat="40.4607294" lon="15.2348548"><ele>241.0</ele><time>2026-05-05T10:44:52.998Z</time></trkpt><trkpt lat="40.46068" lon="15.2347626"><ele>241.0</ele><time>2026-05-05T10:44:53.998Z</time></trkpt><trkpt lat="40.4606306" lon="15.2346705"><ele>240.99999999999997</ele><time>2026-05-05T10:44:54.998Z</time></trkpt><trkpt lat="40.4605808" lon="15.2345813"><ele>241.0</ele><time>2026-05-05T10:44:55.999Z</time></trkpt><trkpt lat="40.4605268" lon="15.2344915"><ele>239.66666666666666</ele><time>2026-05-05T10:44:56.999Z</time></trkpt><trkpt lat="40.4604749" lon="15.2344044"><ele>238.33333333333331</ele><time>2026-05-05T10:44:57.998Z</time></trkpt><trkpt lat="40.4604236" lon="15.2343184"><ele>237.0</ele><time>2026-05-05T10:44:58.999Z</time></trkpt><trkpt lat="40.4603761" lon="15.234231"><ele>235.66666666666669</ele><time>2026-05-05T10:44:59.998Z</time></trkpt><trkpt lat="40.460335" lon="15.2341396"><ele>234.33333333333334</ele><time>2026-05-05T10:45:00.999Z</time></trkpt><trkpt lat="40.4603106" lon="15.2340444"><ele>233.0</ele><time>2026-05-05T10:45:01.999Z</time></trkpt><trkpt lat="40.4603015" lon="15.2339431"><ele>231.83333333333334</ele><time>2026-05-05T10:45:02.999Z</time></trkpt><trkpt lat="40.4602956" lon="15.2338425"><ele>230.66666666666669</ele><time>2026-05-05T10:45:03.998Z</time></trkpt><trkpt lat="40.4602853" lon="15.2337435"><ele>229.5</ele><time>2026-05-05T10:45:04.999Z</time></trkpt><trkpt lat="40.4602819" lon="15.2336484"><ele>228.33333333333331</ele><time>2026-05-05T10:45:05.999Z</time></trkpt><trkpt lat="40.4602811" lon="15.2335558"><ele>227.16666666666666</ele><time>2026-05-05T10:45:06.999Z</time></trkpt><trkpt lat="40.4603084" lon="15.2334233"><ele>226.0</ele><time>2026-05-05T10:45:08.999Z</time></trkpt><trkpt lat="40.4602672" lon="15.2334954"><ele>225.99999999999997</ele><time>2026-05-05T10:45:14.997Z</time></trkpt><trkpt lat="40.4602771" lon="15.2335811"><ele>226.0</ele><time>2026-05-05T10:45:15.998Z</time></trkpt><trkpt lat="40.4602821" lon="15.2336798"><ele>226.0</ele><time>2026-05-05T10:45:16.999Z</time></trkpt><trkpt lat="40.4602899" lon="15.2337873"><ele>226.0</ele><time>2026-05-05T10:45:17.997Z</time></trkpt><trkpt lat="40.460301" lon="15.2339"><ele>225.99999999999997</ele><time>2026-05-05T10:45:18.998Z</time></trkpt><trkpt lat="40.4603123" lon="15.2340053"><ele>226.0</ele><time>2026-05-05T10:45:19.997Z</time></trkpt><trkpt lat="40.4603305" lon="15.2341074"><ele>226.8</ele><time>2026-05-05T10:45:20.998Z</time></trkpt><trkpt lat="40.4603664" lon="15.234208"><ele>227.60000000000002</ele><time>2026-05-05T10:45:21.998Z</time></trkpt><trkpt lat="40.4604176" lon="15.2343015"><ele>228.4</ele><time>2026-05-05T10:45:22.998Z</time></trkpt><trkpt lat="40.4604768" lon="15.2344006"><ele>229.2</ele><time>2026-05-05T10:45:23.998Z</time></trkpt><trkpt lat="40.460536" lon="15.2345056"><ele>230.0</ele><time>2026-05-05T10:45:24.999Z</time></trkpt><trkpt lat="40.4605971" lon="15.2346186"><ele>230.6</ele><time>2026-05-05T10:45:25.998Z</time></trkpt><trkpt lat="40.4606592" lon="15.2347305"><ele>231.2</ele><time>2026-05-05T10:45:26.998Z</time></trkpt><trkpt lat="40.4607216" lon="15.2348439"><ele>231.8</ele><time>2026-05-05T10:45:27.998Z</time></trkpt><trkpt lat="40.460785" lon="15.2349598"><ele>232.4</ele><time>2026-05-05T10:45:28.999Z</time></trkpt><trkpt lat="40.4608508" lon="15.2350757"><ele>233.0</ele><time>2026-05-05T10:45:29.997Z</time></trkpt><trkpt lat="40.4609159" lon="15.2351925"><ele>234.60000000000002</ele><time>2026-05-05T10:45:30.999Z</time></trkpt><trkpt lat="40.4609765" lon="15.2353034"><ele>236.20000000000002</ele><time>2026-05-05T10:45:31.998Z</time></trkpt><trkpt lat="40.4610255" lon="15.2354214"><ele>237.8</ele><time>2026-05-05T10:45:32.998Z</time></trkpt><trkpt lat="40.4610622" lon="15.2355467"><ele>239.4</ele><time>2026-05-05T10:45:33.999Z</time></trkpt><trkpt lat="40.4610907" lon="15.2356553"><ele>241.0</ele><time>2026-05-05T10:45:34.998Z</time></trkpt><trkpt lat="40.4611148" lon="15.2357425"><ele>242.8</ele><time>2026-05-05T10:45:35.999Z</time></trkpt><trkpt lat="40.4611366" lon="15.235858"><ele>244.60000000000002</ele><time>2026-05-05T10:45:37.998Z</time></trkpt><trkpt lat="40.4610754" lon="15.2359595"><ele>246.4</ele><time>2026-05-05T10:45:39.999Z</time></trkpt><trkpt lat="40.4610062" lon="15.2360567"><ele>248.2</ele><time>2026-05-05T10:45:41.998Z</time></trkpt><trkpt lat="40.4610673" lon="15.2361772"><ele>250.0</ele><time>2026-05-05T10:45:43.999Z</time></trkpt><trkpt lat="40.4611174" lon="15.2362477"><ele>249.99999999999997</ele><time>2026-05-05T10:45:44.999Z</time></trkpt><trkpt lat="40.4611529" lon="15.2363446"><ele>250.0</ele><time>2026-05-05T10:45:45.998Z</time></trkpt><trkpt lat="40.4611922" lon="15.2364478"><ele>250.0</ele><time>2026-05-05T10:45:46.998Z</time></trkpt><trkpt lat="40.4612404" lon="15.236551"><ele>250.0</ele><time>2026-05-05T10:45:47.999Z</time></trkpt><trkpt lat="40.4612941" lon="15.2366503"><ele>249.99999999999997</ele><time>2026-05-05T10:45:48.999Z</time></trkpt><trkpt lat="40.46135" lon="15.2367447"><ele>250.0</ele><time>2026-05-05T10:45:49.999Z</time></trkpt><trkpt lat="40.4614024" lon="15.2368369"><ele>251.83333333333331</ele><time>2026-05-05T10:45:50.998Z</time></trkpt><trkpt lat="40.4614482" lon="15.2369283"><ele>253.66666666666666</ele><time>2026-05-05T10:45:51.999Z</time></trkpt><trkpt lat="40.4614872" lon="15.2370226"><ele>255.5</ele><time>2026-05-05T10:45:52.999Z</time></trkpt><trkpt lat="40.461515" lon="15.2371042"><ele>257.3333333333333</ele><time>2026-05-05T10:45:53.999Z</time></trkpt><trkpt lat="40.4615375" lon="15.2372552"><ele>259.1666666666667</ele><time>2026-05-05T10:45:55.999Z</time></trkpt><trkpt lat="40.4615001" lon="15.2373232"><ele>261.0</ele><time>2026-05-05T10:45:57.998Z</time></trkpt><trkpt lat="40.4614342" lon="15.2373696"><ele>261.0</ele><time>2026-05-05T10:46:00.999Z</time></trkpt><trkpt lat="40.4615389" lon="15.2373197"><ele>261.0</ele><time>2026-05-05T10:46:04.999Z</time></trkpt><trkpt lat="40.4616065" lon="15.2373014"><ele>261.0</ele><time>2026-05-05T10:46:05.998Z</time></trkpt><trkpt lat="40.4616789" lon="15.2373022"><ele>261.0</ele><time>2026-05-05T10:46:06.999Z</time></trkpt><trkpt lat="40.4617575" lon="15.2373327"><ele>261.0</ele><time>2026-05-05T10:46:07.998Z</time></trkpt><trkpt lat="40.4618329" lon="15.2373751"><ele>261.0</ele><time>2026-05-05T10:46:08.999Z</time></trkpt><trkpt lat="40.4619037" lon="15.2374215"><ele>261.0</ele><time>2026-05-05T10:46:09.998Z</time></trkpt><trkpt lat="40.4619771" lon="15.2374698"><ele>261.0</ele><time>2026-05-05T10:46:10.999Z</time></trkpt><trkpt lat="40.4620406" lon="15.2375215"><ele>261.0</ele><time>2026-05-05T10:46:11.999Z</time></trkpt><trkpt lat="40.4620923" lon="15.2375767"><ele>261.0</ele><time>2026-05-05T10:46:12.999Z</time></trkpt><trkpt lat="40.4621404" lon="15.2376395"><ele>261.0</ele><time>2026-05-05T10:46:13.999Z</time></trkpt><trkpt lat="40.4621969" lon="15.2376939"><ele>261.0</ele><time>2026-05-05T10:46:14.998Z</time></trkpt><trkpt lat="40.4622519" lon="15.2377512"><ele>261.0</ele><time>2026-05-05T10:46:15.998Z</time></trkpt><trkpt lat="40.4623037" lon="15.2378183"><ele>261.0</ele><time>2026-05-05T10:46:16.999Z</time></trkpt><trkpt lat="40.4623507" lon="15.237891"><ele>261.0</ele><time>2026-05-05T10:46:17.999Z</time></trkpt><trkpt lat="40.4623876" lon="15.2379702"><ele>261.0</ele><time>2026-05-05T10:46:18.999Z</time></trkpt><trkpt lat="40.4624219" lon="15.238054"><ele>261.0</ele><time>2026-05-05T10:46:19.999Z</time></trkpt><trkpt lat="40.4624654" lon="15.2381194"><ele>261.0</ele><time>2026-05-05T10:46:20.997Z</time></trkpt><trkpt lat="40.4625736" lon="15.2381706"><ele>261.0</ele><time>2026-05-05T10:46:22.999Z</time></trkpt><trkpt lat="40.4626906" lon="15.238211"><ele>262.0</ele><time>2026-05-05T10:46:24.998Z</time></trkpt><trkpt lat="40.4627494" lon="15.2382421"><ele>263.0</ele><time>2026-05-05T10:46:25.998Z</time></trkpt><trkpt lat="40.4628064" lon="15.2382888"><ele>264.0</ele><time>2026-05-05T10:46:26.999Z</time></trkpt><trkpt lat="40.462909" lon="15.2383849"><ele>265.0</ele><time>2026-05-05T10:46:28.999Z</time></trkpt><trkpt lat="40.4630075" lon="15.2384774"><ele>266.0</ele><time>2026-05-05T10:46:30.998Z</time></trkpt><trkpt lat="40.4631002" lon="15.2385768"><ele>265.0</ele><time>2026-05-05T10:46:32.998Z</time></trkpt><trkpt lat="40.4631918" lon="15.2386742"><ele>264.0</ele><time>2026-05-05T10:46:34.999Z</time></trkpt><trkpt lat="40.4632715" lon="15.2387768"><ele>263.0</ele><time>2026-05-05T10:46:36.999Z</time></trkpt><trkpt lat="40.4633051" lon="15.2388924"><ele>262.0</ele><time>2026-05-05T10:46:38.998Z</time></trkpt><trkpt lat="40.4632573" lon="15.2389846"><ele>261.0</ele><time>2026-05-05T10:46:40.998Z</time></trkpt><trkpt lat="40.4632043" lon="15.2390347"><ele>261.0</ele><time>2026-05-05T10:46:41.998Z</time></trkpt><trkpt lat="40.4631463" lon="15.2390933"><ele>261.0</ele><time>2026-05-05T10:46:42.999Z</time></trkpt><trkpt lat="40.4630963" lon="15.2391577"><ele>261.0</ele><time>2026-05-05T10:46:43.997Z</time></trkpt><trkpt lat="40.4630438" lon="15.239211"><ele>261.0</ele><time>2026-05-05T10:46:44.998Z</time></trkpt><trkpt lat="40.4629512" lon="15.2392706"><ele>261.0</ele><time>2026-05-05T10:46:46.997Z</time></trkpt><trkpt lat="40.4628807" lon="15.2393199"><ele>261.0</ele><time>2026-05-05T10:46:48.999Z</time></trkpt><trkpt lat="40.4627936" lon="15.2393718"><ele>261.0</ele><time>2026-05-05T10:46:50.998Z</time></trkpt><trkpt lat="40.4627123" lon="15.2394274"><ele>261.0</ele><time>2026-05-05T10:46:52.999Z</time></trkpt><trkpt lat="40.4627818" lon="15.2394529"><ele>261.0</ele><time>2026-05-05T10:47:04.999Z</time></trkpt><trkpt lat="40.462851" lon="15.2393819"><ele>261.0</ele><time>2026-05-05T10:47:06.998Z</time></trkpt><trkpt lat="40.4629191" lon="15.2393347"><ele>261.0</ele><time>2026-05-05T10:47:08.998Z</time></trkpt><trkpt lat="40.4629686" lon="15.2394043"><ele>261.0</ele><time>2026-05-05T10:47:12.999Z</time></trkpt><trkpt lat="40.4629757" lon="15.2394998"><ele>261.0</ele><time>2026-05-05T10:47:14.999Z</time></trkpt><trkpt lat="40.4629527" lon="15.2395839"><ele>261.0</ele><time>2026-05-05T10:47:19.997Z</time></trkpt><trkpt lat="40.4629022" lon="15.2396565"><ele>261.0</ele><time>2026-05-05T10:47:21.999Z</time></trkpt><trkpt lat="40.4628321" lon="15.2397637"><ele>261.0</ele><time>2026-05-05T10:47:23.999Z</time></trkpt><trkpt lat="40.4627624" lon="15.2398596"><ele>261.0</ele><time>2026-05-05T10:47:25.998Z</time></trkpt><trkpt lat="40.4627226" lon="15.2399447"><ele>261.0</ele><time>2026-05-05T10:47:27.998Z</time></trkpt><trkpt lat="40.4628185" lon="15.2400195"><ele>262.5</ele><time>2026-05-05T10:47:30.999Z</time></trkpt><trkpt lat="40.4628575" lon="15.2401117"><ele>264.0</ele><time>2026-05-05T10:47:33.998Z</time></trkpt><trkpt lat="40.462932" lon="15.2401532"><ele>265.5</ele><time>2026-05-05T10:47:36.998Z</time></trkpt><trkpt lat="40.4629534" lon="15.2402431"><ele>267.0</ele><time>2026-05-05T10:47:39.998Z</time></trkpt><trkpt lat="40.4629463" lon="15.2403266"><ele>268.5</ele><time>2026-05-05T10:47:43.998Z</time></trkpt><trkpt lat="40.4630245" lon="15.240395"><ele>270.0</ele><time>2026-05-05T10:47:46.999Z</time></trkpt><trkpt lat="40.4630903" lon="15.2404621"><ele>270.0</ele><time>2026-05-05T10:47:48.999Z</time></trkpt><trkpt lat="40.4631565" lon="15.2405335"><ele>270.0</ele><time>2026-05-05T10:47:50.998Z</time></trkpt><trkpt lat="40.4632181" lon="15.2406423"><ele>270.0</ele><time>2026-05-05T10:47:52.998Z</time></trkpt><trkpt lat="40.463283" lon="15.2407421"><ele>270.0</ele><time>2026-05-05T10:47:54.999Z</time></trkpt><trkpt lat="40.4633497" lon="15.2408384"><ele>270.0</ele><time>2026-05-05T10:47:56.998Z</time></trkpt><trkpt lat="40.4633839" lon="15.2409339"><ele>272.0</ele><time>2026-05-05T10:47:58.999Z</time></trkpt><trkpt lat="40.4633763" lon="15.2410514"><ele>274.0</ele><time>2026-05-05T10:48:00.999Z</time></trkpt><trkpt lat="40.4633495" lon="15.2411905"><ele>276.0</ele><time>2026-05-05T10:48:02.997Z</time></trkpt><trkpt lat="40.4633284" lon="15.2413141"><ele>278.0</ele><time>2026-05-05T10:48:04.999Z</time></trkpt><trkpt lat="40.4633107" lon="15.2414438"><ele>280.0</ele><time>2026-05-05T10:48:06.998Z</time></trkpt><trkpt lat="40.4632856" lon="15.2415703"><ele>282.4</ele><time>2026-05-05T10:48:08.999Z</time></trkpt><trkpt lat="40.4632609" lon="15.2417073"><ele>284.8</ele><time>2026-05-05T10:48:10.999Z</time></trkpt><trkpt lat="40.4632318" lon="15.2418551"><ele>287.2</ele><time>2026-05-05T10:48:12.998Z</time></trkpt><trkpt lat="40.4631902" lon="15.2420063"><ele>289.6</ele><time>2026-05-05T10:48:14.998Z</time></trkpt><trkpt lat="40.4631525" lon="15.2421159"><ele>292.0</ele><time>2026-05-05T10:48:16.999Z</time></trkpt><trkpt lat="40.4631195" lon="15.2422248"><ele>293.6</ele><time>2026-05-05T10:48:18.998Z</time></trkpt><trkpt lat="40.463083" lon="15.2423343"><ele>295.2</ele><time>2026-05-05T10:48:20.998Z</time></trkpt><trkpt lat="40.4630428" lon="15.2424362"><ele>296.8</ele><time>2026-05-05T10:48:22.999Z</time></trkpt><trkpt lat="40.4630142" lon="15.2425445"><ele>298.4</ele><time>2026-05-05T10:48:24.998Z</time></trkpt><trkpt lat="40.462983" lon="15.2426634"><ele>300.0</ele><time>2026-05-05T10:48:26.999Z</time></trkpt><trkpt lat="40.4629444" lon="15.2427827"><ele>300.8</ele><time>2026-05-05T10:48:28.999Z</time></trkpt><trkpt lat="40.4628874" lon="15.2428358"><ele>301.6</ele><time>2026-05-05T10:48:30.999Z</time></trkpt><trkpt lat="40.4628033" lon="15.2428329"><ele>302.4</ele><time>2026-05-05T10:48:32.999Z</time></trkpt><trkpt lat="40.4627093" lon="15.2427434"><ele>303.2</ele><time>2026-05-05T10:48:34.999Z</time></trkpt><trkpt lat="40.4626243" lon="15.2426647"><ele>304.0</ele><time>2026-05-05T10:48:36.999Z</time></trkpt><trkpt lat="40.46252" lon="15.2425957"><ele>304.0</ele><time>2026-05-05T10:48:38.998Z</time></trkpt><trkpt lat="40.462424" lon="15.2425714"><ele>304.0</ele><time>2026-05-05T10:48:40.998Z</time></trkpt><trkpt lat="40.4623554" lon="15.2425702"><ele>304.0</ele><time>2026-05-05T10:48:42.999Z</time></trkpt><trkpt lat="40.4622848" lon="15.2425683"><ele>304.0</ele><time>2026-05-05T10:48:44.998Z</time></trkpt><trkpt lat="40.4621944" lon="15.2425952"><ele>304.0</ele><time>2026-05-05T10:48:46.999Z</time></trkpt><trkpt lat="40.4620748" lon="15.2426103"><ele>307.4</ele><time>2026-05-05T10:48:48.998Z</time></trkpt><trkpt lat="40.4620031" lon="15.2426131"><ele>310.79999999999995</ele><time>2026-05-05T10:48:49.999Z</time></trkpt><trkpt lat="40.4618937" lon="15.2426074"><ele>314.20000000000005</ele><time>2026-05-05T10:48:51.998Z</time></trkpt><trkpt lat="40.4618014" lon="15.242573"><ele>317.6</ele><time>2026-05-05T10:48:53.999Z</time></trkpt><trkpt lat="40.4616842" lon="15.2425674"><ele>321.0</ele><time>2026-05-05T10:48:55.997Z</time></trkpt><trkpt lat="40.4615679" lon="15.2425712"><ele>321.0</ele><time>2026-05-05T10:48:57.999Z</time></trkpt><trkpt lat="40.4614643" lon="15.2425996"><ele>321.0</ele><time>2026-05-05T10:48:59.999Z</time></trkpt><trkpt lat="40.4613474" lon="15.2426765"><ele>321.0</ele><time>2026-05-05T10:49:01.999Z</time></trkpt><trkpt lat="40.4612817" lon="15.2427027"><ele>321.0</ele><time>2026-05-05T10:49:02.999Z</time></trkpt><trkpt lat="40.4612106" lon="15.2427376"><ele>321.0</ele><time>2026-05-05T10:49:03.999Z</time></trkpt><trkpt lat="40.461142" lon="15.2427737"><ele>323.1666666666667</ele><time>2026-05-05T10:49:04.999Z</time></trkpt><trkpt lat="40.4610716" lon="15.242818"><ele>325.3333333333333</ele><time>2026-05-05T10:49:05.998Z</time></trkpt><trkpt lat="40.4609989" lon="15.2428651"><ele>327.5</ele><time>2026-05-05T10:49:06.999Z</time></trkpt><trkpt lat="40.4609324" lon="15.2429082"><ele>329.66666666666663</ele><time>2026-05-05T10:49:07.999Z</time></trkpt><trkpt lat="40.4608221" lon="15.2429453"><ele>331.8333333333333</ele><time>2026-05-05T10:49:09.998Z</time></trkpt><trkpt lat="40.4607595" lon="15.2429189"><ele>334.0</ele><time>2026-05-05T10:49:10.999Z</time></trkpt><trkpt lat="40.4607046" lon="15.2428696"><ele>334.0</ele><time>2026-05-05T10:49:11.999Z</time></trkpt><trkpt lat="40.4606011" lon="15.2427754"><ele>334.0</ele><time>2026-05-05T10:49:13.999Z</time></trkpt><trkpt lat="40.4605237" lon="15.242785"><ele>334.0</ele><time>2026-05-05T10:49:15.998Z</time></trkpt><trkpt lat="40.4605403" lon="15.2428673"><ele>334.0</ele><time>2026-05-05T10:49:18.998Z</time></trkpt><trkpt lat="40.4605666" lon="15.2429768"><ele>334.0</ele><time>2026-05-05T10:49:20.999Z</time></trkpt><trkpt lat="40.4605213" lon="15.2431286"><ele>335.66666666666663</ele><time>2026-05-05T10:49:22.998Z</time></trkpt><trkpt lat="40.4604897" lon="15.2432108"><ele>337.3333333333333</ele><time>2026-05-05T10:49:23.998Z</time></trkpt><trkpt lat="40.4604491" lon="15.2432907"><ele>339.0</ele><time>2026-05-05T10:49:24.998Z</time></trkpt><trkpt lat="40.4604029" lon="15.2433699"><ele>340.6666666666667</ele><time>2026-05-05T10:49:25.999Z</time></trkpt><trkpt lat="40.4603539" lon="15.2434463"><ele>342.33333333333337</ele><time>2026-05-05T10:49:26.999Z</time></trkpt><trkpt lat="40.4603011" lon="15.2435521"><ele>344.0</ele><time>2026-05-05T10:49:27.998Z</time></trkpt><trkpt lat="40.4602614" lon="15.243659"><ele>346.33333333333337</ele><time>2026-05-05T10:49:28.998Z</time></trkpt><trkpt lat="40.4602267" lon="15.24377"><ele>348.6666666666667</ele><time>2026-05-05T10:49:29.999Z</time></trkpt><trkpt lat="40.4601854" lon="15.2438708"><ele>351.0</ele><time>2026-05-05T10:49:30.999Z</time></trkpt><trkpt lat="40.460162" lon="15.2439606"><ele>353.3333333333333</ele><time>2026-05-05T10:49:31.999Z</time></trkpt><trkpt lat="40.4601364" lon="15.2440542"><ele>355.66666666666663</ele><time>2026-05-05T10:49:32.998Z</time></trkpt><trkpt lat="40.4601055" lon="15.2441473"><ele>358.0</ele><time>2026-05-05T10:49:33.999Z</time></trkpt><trkpt lat="40.4600675" lon="15.2442359"><ele>358.5</ele><time>2026-05-05T10:49:34.999Z</time></trkpt><trkpt lat="40.4600173" lon="15.2443266"><ele>359.0</ele><time>2026-05-05T10:49:35.998Z</time></trkpt><trkpt lat="40.4599657" lon="15.2444125"><ele>359.5</ele><time>2026-05-05T10:49:36.999Z</time></trkpt><trkpt lat="40.4599203" lon="15.2444921"><ele>360.0</ele><time>2026-05-05T10:49:37.999Z</time></trkpt><trkpt lat="40.4598767" lon="15.2445753"><ele>360.5</ele><time>2026-05-05T10:49:38.998Z</time></trkpt><trkpt lat="40.4598376" lon="15.2446608"><ele>361.0</ele><time>2026-05-05T10:49:39.999Z</time></trkpt><trkpt lat="40.4598046" lon="15.2447538"><ele>362.0</ele><time>2026-05-05T10:49:40.998Z</time></trkpt><trkpt lat="40.4597732" lon="15.2448431"><ele>363.0</ele><time>2026-05-05T10:49:41.999Z</time></trkpt><trkpt lat="40.4597449" lon="15.244932"><ele>364.0</ele><time>2026-05-05T10:49:42.998Z</time></trkpt><trkpt lat="40.4597149" lon="15.245008"><ele>365.0</ele><time>2026-05-05T10:49:43.999Z</time></trkpt><trkpt lat="40.4596456" lon="15.245143"><ele>366.0</ele><time>2026-05-05T10:49:45.998Z</time></trkpt><trkpt lat="40.4595615" lon="15.2452278"><ele>367.0</ele><time>2026-05-05T10:49:47.998Z</time></trkpt><trkpt lat="40.4595588" lon="15.2453134"><ele>367.0</ele><time>2026-05-05T10:49:49.999Z</time></trkpt><trkpt lat="40.4595875" lon="15.2454292"><ele>367.0</ele><time>2026-05-05T10:49:51.999Z</time></trkpt><trkpt lat="40.4596296" lon="15.2454963"><ele>367.0</ele><time>2026-05-05T10:49:52.998Z</time></trkpt><trkpt lat="40.4597119" lon="15.2456316"><ele>367.0</ele><time>2026-05-05T10:49:54.998Z</time></trkpt><trkpt lat="40.4597544" lon="15.2457118"><ele>367.0</ele><time>2026-05-05T10:49:55.999Z</time></trkpt><trkpt lat="40.4598011" lon="15.2457992"><ele>367.0</ele><time>2026-05-05T10:49:56.999Z</time></trkpt><trkpt lat="40.459845" lon="15.2458818"><ele>369.5</ele><time>2026-05-05T10:49:57.997Z</time></trkpt><trkpt lat="40.4598935" lon="15.2459708"><ele>372.0</ele><time>2026-05-05T10:49:58.999Z</time></trkpt><trkpt lat="40.4599387" lon="15.2460763"><ele>374.5</ele><time>2026-05-05T10:49:59.999Z</time></trkpt><trkpt lat="40.4599608" lon="15.2461799"><ele>377.0</ele><time>2026-05-05T10:50:00.999Z</time></trkpt><trkpt lat="40.4599698" lon="15.2462816"><ele>379.5</ele><time>2026-05-05T10:50:01.998Z</time></trkpt><trkpt lat="40.45997" lon="15.2463838"><ele>382.0</ele><time>2026-05-05T10:50:02.999Z</time></trkpt><trkpt lat="40.4599821" lon="15.2464889"><ele>383.5714285714286</ele><time>2026-05-05T10:50:03.999Z</time></trkpt><trkpt lat="40.4599936" lon="15.2465866"><ele>385.1428571428571</ele><time>2026-05-05T10:50:04.998Z</time></trkpt><trkpt lat="40.4600096" lon="15.2466795"><ele>386.7142857142857</ele><time>2026-05-05T10:50:05.999Z</time></trkpt><trkpt lat="40.4600523" lon="15.2467584"><ele>388.28571428571433</ele><time>2026-05-05T10:50:06.998Z</time></trkpt><trkpt lat="40.4600879" lon="15.2468349"><ele>389.8571428571429</ele><time>2026-05-05T10:50:07.998Z</time></trkpt><trkpt lat="40.4601361" lon="15.2469135"><ele>391.42857142857144</ele><time>2026-05-05T10:50:08.999Z</time></trkpt><trkpt lat="40.460196" lon="15.2469865"><ele>393.0</ele><time>2026-05-05T10:50:09.999Z</time></trkpt><trkpt lat="40.4602649" lon="15.2470527"><ele>393.0</ele><time>2026-05-05T10:50:10.999Z</time></trkpt><trkpt lat="40.460331" lon="15.2471291"><ele>393.0</ele><time>2026-05-05T10:50:11.998Z</time></trkpt><trkpt lat="40.4604055" lon="15.2472092"><ele>393.0</ele><time>2026-05-05T10:50:12.999Z</time></trkpt><trkpt lat="40.4604745" lon="15.2472818"><ele>393.0</ele><time>2026-05-05T10:50:13.998Z</time></trkpt><trkpt lat="40.4605325" lon="15.2473652"><ele>393.0</ele><time>2026-05-05T10:50:14.997Z</time></trkpt><trkpt lat="40.4605779" lon="15.2474646"><ele>393.0</ele><time>2026-05-05T10:50:15.999Z</time></trkpt><trkpt lat="40.4606206" lon="15.2475607"><ele>392.6666666666667</ele><time>2026-05-05T10:50:16.999Z</time></trkpt><trkpt lat="40.4606554" lon="15.2476524"><ele>392.33333333333337</ele><time>2026-05-05T10:50:17.998Z</time></trkpt><trkpt lat="40.4606965" lon="15.2477414"><ele>392.0</ele><time>2026-05-05T10:50:18.999Z</time></trkpt><trkpt lat="40.4607117" lon="15.2478413"><ele>391.6666666666667</ele><time>2026-05-05T10:50:19.999Z</time></trkpt><trkpt lat="40.4607187" lon="15.2479471"><ele>391.33333333333337</ele><time>2026-05-05T10:50:20.998Z</time></trkpt><trkpt lat="40.4607217" lon="15.2480443"><ele>391.0</ele><time>2026-05-05T10:50:21.998Z</time></trkpt><trkpt lat="40.4607183" lon="15.2481401"><ele>392.4</ele><time>2026-05-05T10:50:22.999Z</time></trkpt><trkpt lat="40.4607129" lon="15.2482262"><ele>393.8</ele><time>2026-05-05T10:50:23.999Z</time></trkpt><trkpt lat="40.4607102" lon="15.2483794"><ele>395.2</ele><time>2026-05-05T10:50:25.999Z</time></trkpt><trkpt lat="40.460731" lon="15.2485293"><ele>396.59999999999997</ele><time>2026-05-05T10:50:27.999Z</time></trkpt><trkpt lat="40.4607496" lon="15.2486879"><ele>398.0</ele><time>2026-05-05T10:50:29.998Z</time></trkpt><trkpt lat="40.4607582" lon="15.2487776"><ele>397.99999999999994</ele><time>2026-05-05T10:50:30.999Z</time></trkpt><trkpt lat="40.4607823" lon="15.248871"><ele>398.0</ele><time>2026-05-05T10:50:31.999Z</time></trkpt><trkpt lat="40.4608142" lon="15.2489719"><ele>398.0</ele><time>2026-05-05T10:50:32.997Z</time></trkpt><trkpt lat="40.4608453" lon="15.2490809"><ele>398.0</ele><time>2026-05-05T10:50:33.999Z</time></trkpt><trkpt lat="40.4608681" lon="15.2491884"><ele>397.99999999999994</ele><time>2026-05-05T10:50:34.997Z</time></trkpt><trkpt lat="40.4608785" lon="15.2492937"><ele>398.0</ele><time>2026-05-05T10:50:35.999Z</time></trkpt><trkpt lat="40.4608804" lon="15.2494"><ele>398.66666666666663</ele><time>2026-05-05T10:50:36.998Z</time></trkpt><trkpt lat="40.4608835" lon="15.2495093"><ele>399.3333333333333</ele><time>2026-05-05T10:50:37.999Z</time></trkpt><trkpt lat="40.460883" lon="15.2496238"><ele>400.0</ele><time>2026-05-05T10:50:38.999Z</time></trkpt><trkpt lat="40.4608918" lon="15.2497206"><ele>400.66666666666663</ele><time>2026-05-05T10:50:39.998Z</time></trkpt><trkpt lat="40.4609128" lon="15.2498182"><ele>401.3333333333333</ele><time>2026-05-05T10:50:40.999Z</time></trkpt><trkpt lat="40.4609413" lon="15.2499203"><ele>402.0</ele><time>2026-05-05T10:50:41.999Z</time></trkpt><trkpt lat="40.4609664" lon="15.2500111"><ele>403.4285714285714</ele><time>2026-05-05T10:50:42.999Z</time></trkpt><trkpt lat="40.4609982" lon="15.2500885"><ele>404.8571428571429</ele><time>2026-05-05T10:50:43.997Z</time></trkpt><trkpt lat="40.4610405" lon="15.2501682"><ele>406.2857142857143</ele><time>2026-05-05T10:50:44.999Z</time></trkpt><trkpt lat="40.4610781" lon="15.2502462"><ele>407.71428571428567</ele><time>2026-05-05T10:50:45.999Z</time></trkpt><trkpt lat="40.4611046" lon="15.2503318"><ele>409.1428571428571</ele><time>2026-05-05T10:50:46.998Z</time></trkpt><trkpt lat="40.4611213" lon="15.250424"><ele>410.57142857142856</ele><time>2026-05-05T10:50:47.999Z</time></trkpt><trkpt lat="40.4611387" lon="15.2505297"><ele>412.0</ele><time>2026-05-05T10:50:48.998Z</time></trkpt><trkpt lat="40.4611451" lon="15.2506382"><ele>413.83333333333337</ele><time>2026-05-05T10:50:49.997Z</time></trkpt><trkpt lat="40.4611529" lon="15.2507494"><ele>415.6666666666667</ele><time>2026-05-05T10:50:50.998Z</time></trkpt><trkpt lat="40.4611715" lon="15.2508642"><ele>417.5</ele><time>2026-05-05T10:50:51.999Z</time></trkpt><trkpt lat="40.4611879" lon="15.2509765"><ele>419.33333333333337</ele><time>2026-05-05T10:50:52.998Z</time></trkpt><trkpt lat="40.461207" lon="15.2510927"><ele>421.1666666666667</ele><time>2026-05-05T10:50:53.999Z</time></trkpt><trkpt lat="40.4612309" lon="15.2511898"><ele>423.0</ele><time>2026-05-05T10:50:54.997Z</time></trkpt><trkpt lat="40.4612681" lon="15.2512906"><ele>423.0</ele><time>2026-05-05T10:50:55.998Z</time></trkpt><trkpt lat="40.4612991" lon="15.2513925"><ele>423.0</ele><time>2026-05-05T10:50:56.999Z</time></trkpt><trkpt lat="40.4613307" lon="15.2514942"><ele>423.0</ele><time>2026-05-05T10:50:57.998Z</time></trkpt><trkpt lat="40.4613544" lon="15.2516053"><ele>423.0</ele><time>2026-05-05T10:50:58.999Z</time></trkpt><trkpt lat="40.4613697" lon="15.2517162"><ele>423.0</ele><time>2026-05-05T10:50:59.999Z</time></trkpt><trkpt lat="40.4613849" lon="15.2518313"><ele>423.0</ele><time>2026-05-05T10:51:00.998Z</time></trkpt><trkpt lat="40.4614024" lon="15.2519556"><ele>423.0</ele><time>2026-05-05T10:51:01.999Z</time></trkpt><trkpt lat="40.4614318" lon="15.2520839"><ele>423.0</ele><time>2026-05-05T10:51:02.999Z</time></trkpt><trkpt lat="40.4614585" lon="15.2522229"><ele>423.0</ele><time>2026-05-05T10:51:03.997Z</time></trkpt><trkpt lat="40.4614901" lon="15.2523622"><ele>423.0</ele><time>2026-05-05T10:51:04.998Z</time></trkpt><trkpt lat="40.4615198" lon="15.2525122"><ele>423.0</ele><time>2026-05-05T10:51:05.999Z</time></trkpt><trkpt lat="40.4615462" lon="15.2526489"><ele>424.2</ele><time>2026-05-05T10:51:06.999Z</time></trkpt><trkpt lat="40.461575" lon="15.2527854"><ele>425.4</ele><time>2026-05-05T10:51:07.999Z</time></trkpt><trkpt lat="40.4615973" lon="15.2529215"><ele>426.59999999999997</ele><time>2026-05-05T10:51:08.999Z</time></trkpt><trkpt lat="40.4616119" lon="15.253054"><ele>427.79999999999995</ele><time>2026-05-05T10:51:09.999Z</time></trkpt><trkpt lat="40.4616235" lon="15.2531726"><ele>429.0</ele><time>2026-05-05T10:51:10.999Z</time></trkpt><trkpt lat="40.4616286" lon="15.2532875"><ele>429.6666666666667</ele><time>2026-05-05T10:51:11.997Z</time></trkpt><trkpt lat="40.4616229" lon="15.2533854"><ele>430.33333333333337</ele><time>2026-05-05T10:51:12.999Z</time></trkpt><trkpt lat="40.4616044" lon="15.2534723"><ele>431.0</ele><time>2026-05-05T10:51:13.999Z</time></trkpt><trkpt lat="40.4615471" lon="15.2535454"><ele>431.6666666666667</ele><time>2026-05-05T10:51:15.999Z</time></trkpt><trkpt lat="40.4614832" lon="15.2534872"><ele>432.33333333333337</ele><time>2026-05-05T10:51:18.997Z</time></trkpt><trkpt lat="40.4614798" lon="15.2533024"><ele>433.0</ele><time>2026-05-05T10:51:20.998Z</time></trkpt><trkpt lat="40.4615051" lon="15.2531428"><ele>432.2</ele><time>2026-05-05T10:51:21.999Z</time></trkpt><trkpt lat="40.4615158" lon="15.2529565"><ele>431.4</ele><time>2026-05-05T10:51:22.999Z</time></trkpt><trkpt lat="40.461505" lon="15.2528177"><ele>430.59999999999997</ele><time>2026-05-05T10:51:23.998Z</time></trkpt><trkpt lat="40.4614838" lon="15.2526932"><ele>429.79999999999995</ele><time>2026-05-05T10:51:24.998Z</time></trkpt><trkpt lat="40.4614568" lon="15.2525954"><ele>429.0</ele><time>2026-05-05T10:51:25.998Z</time></trkpt><trkpt lat="40.4613577" lon="15.2524999"><ele>429.0</ele><time>2026-05-05T10:51:27.998Z</time></trkpt><trkpt lat="40.4613127" lon="15.2523998"><ele>429.0</ele><time>2026-05-05T10:51:29.998Z</time></trkpt><trkpt lat="40.4613801" lon="15.2522944"><ele>429.0</ele><time>2026-05-05T10:51:31.999Z</time></trkpt><trkpt lat="40.4613556" lon="15.2521336"><ele>429.0</ele><time>2026-05-05T10:51:33.999Z</time></trkpt><trkpt lat="40.4613212" lon="15.2520297"><ele>429.0</ele><time>2026-05-05T10:51:34.999Z</time></trkpt><trkpt lat="40.4612968" lon="15.2519132"><ele>430.0</ele><time>2026-05-05T10:51:35.999Z</time></trkpt><trkpt lat="40.4612765" lon="15.2518125"><ele>431.0</ele><time>2026-05-05T10:51:36.998Z</time></trkpt><trkpt lat="40.4612746" lon="15.2517084"><ele>432.0</ele><time>2026-05-05T10:51:37.999Z</time></trkpt><trkpt lat="40.4612726" lon="15.2516119"><ele>433.0</ele><time>2026-05-05T10:51:38.999Z</time></trkpt><trkpt lat="40.4612552" lon="15.2515245"><ele>434.0</ele><time>2026-05-05T10:51:39.998Z</time></trkpt><trkpt lat="40.4612128" lon="15.2514264"><ele>435.0</ele><time>2026-05-05T10:51:40.999Z</time></trkpt><trkpt lat="40.4611583" lon="15.2513151"><ele>433.0</ele><time>2026-05-05T10:51:41.998Z</time></trkpt><trkpt lat="40.4611195" lon="15.2511947"><ele>431.0</ele><time>2026-05-05T10:51:42.999Z</time></trkpt><trkpt lat="40.461087" lon="15.2510733"><ele>429.0</ele><time>2026-05-05T10:51:43.998Z</time></trkpt><trkpt lat="40.4610549" lon="15.2509545"><ele>427.0</ele><time>2026-05-05T10:51:44.998Z</time></trkpt><trkpt lat="40.4610384" lon="15.2508535"><ele>425.0</ele><time>2026-05-05T10:51:45.998Z</time></trkpt><trkpt lat="40.4610218" lon="15.2507564"><ele>423.0</ele><time>2026-05-05T10:51:46.999Z</time></trkpt><trkpt lat="40.4610008" lon="15.2506241"><ele>421.1666666666667</ele><time>2026-05-05T10:51:48.999Z</time></trkpt><trkpt lat="40.4609227" lon="15.2505941"><ele>419.33333333333337</ele><time>2026-05-05T10:51:50.997Z</time></trkpt><trkpt lat="40.4609201" lon="15.2505085"><ele>417.5</ele><time>2026-05-05T10:51:52.998Z</time></trkpt><trkpt lat="40.4609898" lon="15.2504318"><ele>415.6666666666667</ele><time>2026-05-05T10:51:54.999Z</time></trkpt><trkpt lat="40.4609732" lon="15.2503397"><ele>413.83333333333337</ele><time>2026-05-05T10:51:56.997Z</time></trkpt><trkpt lat="40.460903" lon="15.25032"><ele>412.0</ele><time>2026-05-05T10:51:58.999Z</time></trkpt><trkpt lat="40.4608436" lon="15.2504072"><ele>412.00000000000006</ele><time>2026-05-05T10:52:00.998Z</time></trkpt><trkpt lat="40.4608398" lon="15.2505013"><ele>412.0</ele><time>2026-05-05T10:52:01.995Z</time></trkpt><trkpt lat="40.460782" lon="15.2505625"><ele>412.0</ele><time>2026-05-05T10:52:03.998Z</time></trkpt><trkpt lat="40.4607401" lon="15.2504763"><ele>412.0</ele><time>2026-05-05T10:52:05.999Z</time></trkpt><trkpt lat="40.4606712" lon="15.2504714"><ele>412.00000000000006</ele><time>2026-05-05T10:52:07.998Z</time></trkpt><trkpt lat="40.4606855" lon="15.250594"><ele>412.0</ele><time>2026-05-05T10:52:09.997Z</time></trkpt><trkpt lat="40.4607127" lon="15.2506806"><ele>414.20000000000005</ele><time>2026-05-05T10:52:10.998Z</time></trkpt><trkpt lat="40.4607337" lon="15.2508018"><ele>416.4</ele><time>2026-05-05T10:52:12.998Z</time></trkpt><trkpt lat="40.4608477" lon="15.2508371"><ele>418.6</ele><time>2026-05-05T10:52:14.998Z</time></trkpt><trkpt lat="40.4609283" lon="15.250884"><ele>420.79999999999995</ele><time>2026-05-05T10:52:15.997Z</time></trkpt><trkpt lat="40.4609922" lon="15.2509782"><ele>423.0</ele><time>2026-05-05T10:52:16.998Z</time></trkpt><trkpt lat="40.4610435" lon="15.2510916"><ele>423.0</ele><time>2026-05-05T10:52:17.999Z</time></trkpt><trkpt lat="40.4610854" lon="15.2512334"><ele>423.0</ele><time>2026-05-05T10:52:18.999Z</time></trkpt><trkpt lat="40.4611227" lon="15.2513808"><ele>423.0</ele><time>2026-05-05T10:52:19.998Z</time></trkpt><trkpt lat="40.461143" lon="15.2514985"><ele>423.0</ele><time>2026-05-05T10:52:20.998Z</time></trkpt><trkpt lat="40.461157" lon="15.2515936"><ele>423.0</ele><time>2026-05-05T10:52:21.998Z</time></trkpt><trkpt lat="40.4611304" lon="15.2517154"><ele>425.0</ele><time>2026-05-05T10:52:23.999Z</time></trkpt><trkpt lat="40.4610751" lon="15.251763"><ele>427.0</ele><time>2026-05-05T10:52:24.998Z</time></trkpt><trkpt lat="40.461001" lon="15.2518001"><ele>429.0</ele><time>2026-05-05T10:52:25.999Z</time></trkpt><trkpt lat="40.4609187" lon="15.2518564"><ele>431.0</ele><time>2026-05-05T10:52:26.999Z</time></trkpt><trkpt lat="40.4608291" lon="15.2519218"><ele>433.0</ele><time>2026-05-05T10:52:27.999Z</time></trkpt><trkpt lat="40.4607347" lon="15.2519845"><ele>435.0</ele><time>2026-05-05T10:52:28.999Z</time></trkpt><trkpt lat="40.4606706" lon="15.2520309"><ele>435.0</ele><time>2026-05-05T10:52:29.999Z</time></trkpt><trkpt lat="40.4606209" lon="15.2521273"><ele>435.0</ele><time>2026-05-05T10:52:31.999Z</time></trkpt><trkpt lat="40.460675" lon="15.2522552"><ele>435.0</ele><time>2026-05-05T10:52:33.999Z</time></trkpt><trkpt lat="40.4606989" lon="15.2523349"><ele>435.0</ele><time>2026-05-05T10:52:34.999Z</time></trkpt><trkpt lat="40.4607156" lon="15.2524226"><ele>435.0</ele><time>2026-05-05T10:52:35.998Z</time></trkpt><trkpt lat="40.4607344" lon="15.2525036"><ele>435.0</ele><time>2026-05-05T10:52:36.999Z</time></trkpt><trkpt lat="40.4607853" lon="15.252579"><ele>435.00000000000006</ele><time>2026-05-05T10:52:38.999Z</time></trkpt><trkpt lat="40.4608542" lon="15.2525294"><ele>435.0</ele><time>2026-05-05T10:52:40.999Z</time></trkpt><trkpt lat="40.4609068" lon="15.2524777"><ele>435.0</ele><time>2026-05-05T10:52:41.999Z</time></trkpt><trkpt lat="40.4609648" lon="15.252437"><ele>435.0</ele><time>2026-05-05T10:52:42.999Z</time></trkpt><trkpt lat="40.4610388" lon="15.2523888"><ele>435.0</ele><time>2026-05-05T10:52:43.999Z</time></trkpt><trkpt lat="40.4611058" lon="15.2523317"><ele>435.00000000000006</ele><time>2026-05-05T10:52:44.998Z</time></trkpt><trkpt lat="40.4611653" lon="15.2522845"><ele>435.0</ele><time>2026-05-05T10:52:45.998Z</time></trkpt><trkpt lat="40.4612343" lon="15.2522729"><ele>435.8333333333333</ele><time>2026-05-05T10:52:47.998Z</time></trkpt><trkpt lat="40.4612127" lon="15.2523807"><ele>436.66666666666663</ele><time>2026-05-05T10:52:50.998Z</time></trkpt><trkpt lat="40.4611887" lon="15.2524798"><ele>437.5</ele><time>2026-05-05T10:52:52.998Z</time></trkpt><trkpt lat="40.46125" lon="15.2525692"><ele>438.3333333333333</ele><time>2026-05-05T10:52:54.999Z</time></trkpt><trkpt lat="40.4613112" lon="15.2525987"><ele>439.16666666666663</ele><time>2026-05-05T10:52:55.999Z</time></trkpt><trkpt lat="40.461403" lon="15.252689"><ele>440.0</ele><time>2026-05-05T10:52:57.998Z</time></trkpt><trkpt lat="40.4614348" lon="15.2527698"><ele>438.16666666666663</ele><time>2026-05-05T10:52:58.998Z</time></trkpt><trkpt lat="40.4614511" lon="15.2528763"><ele>436.3333333333333</ele><time>2026-05-05T10:52:59.999Z</time></trkpt><trkpt lat="40.4614491" lon="15.2529801"><ele>434.5</ele><time>2026-05-05T10:53:00.999Z</time></trkpt><trkpt lat="40.4613889" lon="15.2530469"><ele>432.66666666666663</ele><time>2026-05-05T10:53:02.998Z</time></trkpt><trkpt lat="40.4613287" lon="15.2529367"><ele>430.8333333333333</ele><time>2026-05-05T10:53:04.998Z</time></trkpt><trkpt lat="40.4613289" lon="15.2528475"><ele>429.0</ele><time>2026-05-05T10:53:05.998Z</time></trkpt><trkpt lat="40.4613224" lon="15.2527604"><ele>431.2</ele><time>2026-05-05T10:53:06.997Z</time></trkpt><trkpt lat="40.4612196" lon="15.2526505"><ele>433.4</ele><time>2026-05-05T10:53:08.999Z</time></trkpt><trkpt lat="40.4611281" lon="15.2526301"><ele>435.6</ele><time>2026-05-05T10:53:09.998Z</time></trkpt><trkpt lat="40.4610182" lon="15.2526311"><ele>437.8</ele><time>2026-05-05T10:53:11Z</time></trkpt><trkpt lat="40.4609176" lon="15.2526625"><ele>440.0</ele><time>2026-05-05T10:53:11.999Z</time></trkpt><trkpt lat="40.4608482" lon="15.2527103"><ele>439.99999999999994</ele><time>2026-05-05T10:53:12.999Z</time></trkpt><trkpt lat="40.4608377" lon="15.2528038"><ele>440.0</ele><time>2026-05-05T10:53:14.997Z</time></trkpt><trkpt lat="40.4609847" lon="15.2527729"><ele>440.0</ele><time>2026-05-05T10:53:16.999Z</time></trkpt><trkpt lat="40.4610627" lon="15.2527388"><ele>440.0</ele><time>2026-05-05T10:53:17.998Z</time></trkpt><trkpt lat="40.4611288" lon="15.2527492"><ele>439.99999999999994</ele><time>2026-05-05T10:53:18.998Z</time></trkpt><trkpt lat="40.461184" lon="15.2527933"><ele>440.0</ele><time>2026-05-05T10:53:19.998Z</time></trkpt><trkpt lat="40.4612471" lon="15.2529117"><ele>439.99999999999994</ele><time>2026-05-05T10:53:21.999Z</time></trkpt><trkpt lat="40.461189" lon="15.2529841"><ele>440.0</ele><time>2026-05-05T10:53:23.998Z</time></trkpt><trkpt lat="40.4610705" lon="15.2529354"><ele>440.0</ele><time>2026-05-05T10:53:25.998Z</time></trkpt><trkpt lat="40.4609911" lon="15.2529061"><ele>440.0</ele><time>2026-05-05T10:53:26.998Z</time></trkpt><trkpt lat="40.4609281" lon="15.2529079"><ele>439.99999999999994</ele><time>2026-05-05T10:53:27.999Z</time></trkpt><trkpt lat="40.4608997" lon="15.2530043"><ele>440.0</ele><time>2026-05-05T10:53:29.999Z</time></trkpt><trkpt lat="40.4610371" lon="15.2530523"><ele>439.99999999999994</ele><time>2026-05-05T10:53:31.999Z</time></trkpt><trkpt lat="40.4611424" lon="15.2530551"><ele>440.0</ele><time>2026-05-05T10:53:32.998Z</time></trkpt><trkpt lat="40.4612302" lon="15.2530705"><ele>440.0</ele><time>2026-05-05T10:53:33.999Z</time></trkpt><trkpt lat="40.4613003" lon="15.2530907"><ele>440.0</ele><time>2026-05-05T10:53:34.997Z</time></trkpt><trkpt lat="40.4613592" lon="15.2531251"><ele>439.99999999999994</ele><time>2026-05-05T10:53:35.999Z</time></trkpt><trkpt lat="40.4614475" lon="15.2531936"><ele>440.0</ele><time>2026-05-05T10:53:37.999Z</time></trkpt><trkpt lat="40.4614849" lon="15.2533308"><ele>438.8333333333333</ele><time>2026-05-05T10:53:39.999Z</time></trkpt><trkpt lat="40.4614873" lon="15.2534163"><ele>437.66666666666663</ele><time>2026-05-05T10:53:40.999Z</time></trkpt><trkpt lat="40.4615003" lon="15.2535274"><ele>436.5</ele><time>2026-05-05T10:53:42.999Z</time></trkpt><trkpt lat="40.4615407" lon="15.2536215"><ele>435.33333333333337</ele><time>2026-05-05T10:53:45.999Z</time></trkpt><trkpt lat="40.4614734" lon="15.2536796"><ele>434.1666666666667</ele><time>2026-05-05T10:53:47.999Z</time></trkpt><trkpt lat="40.4613612" lon="15.2536956"><ele>433.0</ele><time>2026-05-05T10:53:49.998Z</time></trkpt><trkpt lat="40.4613049" lon="15.253733"><ele>435.83333333333337</ele><time>2026-05-05T10:53:50.999Z</time></trkpt><trkpt lat="40.4612461" lon="15.2537838"><ele>438.6666666666667</ele><time>2026-05-05T10:53:51.999Z</time></trkpt><trkpt lat="40.4611802" lon="15.2538266"><ele>441.5</ele><time>2026-05-05T10:53:52.998Z</time></trkpt><trkpt lat="40.4611105" lon="15.2538606"><ele>444.33333333333337</ele><time>2026-05-05T10:53:53.999Z</time></trkpt><trkpt lat="40.4610407" lon="15.2538819"><ele>447.1666666666667</ele><time>2026-05-05T10:53:54.999Z</time></trkpt><trkpt lat="40.4609299" lon="15.253856"><ele>450.0</ele><time>2026-05-05T10:53:56.999Z</time></trkpt><trkpt lat="40.4608777" lon="15.2538073"><ele>450.0</ele><time>2026-05-05T10:53:57.999Z</time></trkpt><trkpt lat="40.4607966" lon="15.2537582"><ele>450.0</ele><time>2026-05-05T10:53:59.998Z</time></trkpt><trkpt lat="40.4607477" lon="15.2538214"><ele>450.0</ele><time>2026-05-05T10:54:01.998Z</time></trkpt><trkpt lat="40.4607244" lon="15.2539549"><ele>450.0</ele><time>2026-05-05T10:54:03.997Z</time></trkpt><trkpt lat="40.4606317" lon="15.2540533"><ele>450.0</ele><time>2026-05-05T10:54:05.999Z</time></trkpt><trkpt lat="40.4605605" lon="15.2540912"><ele>450.0</ele><time>2026-05-05T10:54:06.999Z</time></trkpt><trkpt lat="40.4604864" lon="15.254126"><ele>450.0</ele><time>2026-05-05T10:54:07.999Z</time></trkpt><trkpt lat="40.4603993" lon="15.2541696"><ele>450.0</ele><time>2026-05-05T10:54:08.999Z</time></trkpt><trkpt lat="40.46031" lon="15.2542207"><ele>450.0</ele><time>2026-05-05T10:54:09.998Z</time></trkpt><trkpt lat="40.4602375" lon="15.2542736"><ele>450.0</ele><time>2026-05-05T10:54:10.997Z</time></trkpt><trkpt lat="40.4601711" lon="15.2543456"><ele>450.0</ele><time>2026-05-05T10:54:11.999Z</time></trkpt><trkpt lat="40.4601082" lon="15.2544283"><ele>455.5</ele><time>2026-05-05T10:54:12.998Z</time></trkpt><trkpt lat="40.4600436" lon="15.2544947"><ele>461.0</ele><time>2026-05-05T10:54:13.998Z</time></trkpt><trkpt lat="40.4599736" lon="15.2545315"><ele>466.5</ele><time>2026-05-05T10:54:14.999Z</time></trkpt><trkpt lat="40.4598967" lon="15.2545597"><ele>472.0</ele><time>2026-05-05T10:54:15.999Z</time></trkpt><trkpt lat="40.4598241" lon="15.2545706"><ele>477.5</ele><time>2026-05-05T10:54:16.999Z</time></trkpt><trkpt lat="40.4597366" lon="15.2545644"><ele>483.0</ele><time>2026-05-05T10:54:17.999Z</time></trkpt><trkpt lat="40.4596531" lon="15.2545404"><ele>487.0</ele><time>2026-05-05T10:54:18.999Z</time></trkpt><trkpt lat="40.4595805" lon="15.2545296"><ele>490.99999999999994</ele><time>2026-05-05T10:54:19.999Z</time></trkpt><trkpt lat="40.4594577" lon="15.2545536"><ele>494.99999999999994</ele><time>2026-05-05T10:54:21.999Z</time></trkpt><trkpt lat="40.45935" lon="15.2546303"><ele>499.0</ele><time>2026-05-05T10:54:23.999Z</time></trkpt><trkpt lat="40.4592899" lon="15.2546857"><ele>503.0</ele><time>2026-05-05T10:54:24.998Z</time></trkpt><trkpt lat="40.4592295" lon="15.2547466"><ele>502.99999999999994</ele><time>2026-05-05T10:54:25.999Z</time></trkpt><trkpt lat="40.4591685" lon="15.2547953"><ele>503.0</ele><time>2026-05-05T10:54:26.998Z</time></trkpt><trkpt lat="40.4591036" lon="15.2548183"><ele>503.0</ele><time>2026-05-05T10:54:27.998Z</time></trkpt><trkpt lat="40.4590012" lon="15.2547546"><ele>503.0</ele><time>2026-05-05T10:54:29.999Z</time></trkpt><trkpt lat="40.4589745" lon="15.2546785"><ele>502.99999999999994</ele><time>2026-05-05T10:54:30.998Z</time></trkpt><trkpt lat="40.4589695" lon="15.2545919"><ele>503.0</ele><time>2026-05-05T10:54:31.998Z</time></trkpt><trkpt lat="40.4589836" lon="15.2545044"><ele>502.99999999999994</ele><time>2026-05-05T10:54:32.999Z</time></trkpt><trkpt lat="40.4590047" lon="15.25441"><ele>503.0</ele><time>2026-05-05T10:54:33.998Z</time></trkpt><trkpt lat="40.4590302" lon="15.2543176"><ele>503.0</ele><time>2026-05-05T10:54:34.999Z</time></trkpt><trkpt lat="40.4590605" lon="15.2542229"><ele>503.0</ele><time>2026-05-05T10:54:35.999Z</time></trkpt><trkpt lat="40.4590933" lon="15.2541233"><ele>502.99999999999994</ele><time>2026-05-05T10:54:36.998Z</time></trkpt><trkpt lat="40.4591377" lon="15.2540334"><ele>503.0</ele><time>2026-05-05T10:54:37.998Z</time></trkpt><trkpt lat="40.4591934" lon="15.2539449"><ele>501.16666666666663</ele><time>2026-05-05T10:54:38.999Z</time></trkpt><trkpt lat="40.4592626" lon="15.253863"><ele>499.3333333333333</ele><time>2026-05-05T10:54:39.999Z</time></trkpt><trkpt lat="40.4593482" lon="15.253793"><ele>497.5</ele><time>2026-05-05T10:54:40.999Z</time></trkpt><trkpt lat="40.4594262" lon="15.2537544"><ele>495.66666666666663</ele><time>2026-05-05T10:54:41.999Z</time></trkpt><trkpt lat="40.4594969" lon="15.2537284"><ele>493.8333333333333</ele><time>2026-05-05T10:54:42.998Z</time></trkpt><trkpt lat="40.459558" lon="15.2537077"><ele>492.0</ele><time>2026-05-05T10:54:43.999Z</time></trkpt><trkpt lat="40.4596599" lon="15.2536485"><ele>492.0</ele><time>2026-05-05T10:54:45.998Z</time></trkpt><trkpt lat="40.4596904" lon="15.2535329"><ele>492.0</ele><time>2026-05-05T10:54:47.999Z</time></trkpt><trkpt lat="40.4596141" lon="15.25348"><ele>492.0</ele><time>2026-05-05T10:54:49.999Z</time></trkpt><trkpt lat="40.4595532" lon="15.2534576"><ele>492.0</ele><time>2026-05-05T10:54:50.998Z</time></trkpt><trkpt lat="40.4594896" lon="15.2534263"><ele>492.0</ele><time>2026-05-05T10:54:51.998Z</time></trkpt><trkpt lat="40.4594206" lon="15.2533922"><ele>492.0</ele><time>2026-05-05T10:54:52.998Z</time></trkpt><trkpt lat="40.4593507" lon="15.2533538"><ele>496.5</ele><time>2026-05-05T10:54:53.998Z</time></trkpt><trkpt lat="40.4592863" lon="15.2532972"><ele>501.0</ele><time>2026-05-05T10:54:54.998Z</time></trkpt><trkpt lat="40.4592237" lon="15.2532351"><ele>505.5</ele><time>2026-05-05T10:54:55.999Z</time></trkpt><trkpt lat="40.4591543" lon="15.2531842"><ele>510.0</ele><time>2026-05-05T10:54:56.998Z</time></trkpt><trkpt lat="40.4590801" lon="15.2531413"><ele>514.5</ele><time>2026-05-05T10:54:57.999Z</time></trkpt><trkpt lat="40.4590057" lon="15.2531032"><ele>519.0</ele><time>2026-05-05T10:54:58.999Z</time></trkpt><trkpt lat="40.4589294" lon="15.2530814"><ele>519.1666666666666</ele><time>2026-05-05T10:54:59.999Z</time></trkpt><trkpt lat="40.4588569" lon="15.2530847"><ele>519.3333333333334</ele><time>2026-05-05T10:55:00.999Z</time></trkpt><trkpt lat="40.4587918" lon="15.2531137"><ele>519.5</ele><time>2026-05-05T10:55:01.999Z</time></trkpt><trkpt lat="40.4587007" lon="15.2531679"><ele>519.6666666666667</ele><time>2026-05-05T10:55:03.999Z</time></trkpt><trkpt lat="40.4587395" lon="15.2530566"><ele>519.8333333333334</ele><time>2026-05-05T10:55:06.998Z</time></trkpt><trkpt lat="40.4587999" lon="15.2530048"><ele>520.0</ele><time>2026-05-05T10:55:07.999Z</time></trkpt><trkpt lat="40.458854" lon="15.2529572"><ele>520.0</ele><time>2026-05-05T10:55:08.998Z</time></trkpt><trkpt lat="40.4589425" lon="15.2528779"><ele>520.0</ele><time>2026-05-05T10:55:10.999Z</time></trkpt><trkpt lat="40.4590089" lon="15.2528016"><ele>520.0</ele><time>2026-05-05T10:55:12.999Z</time></trkpt><trkpt lat="40.458995" lon="15.2527107"><ele>520.0</ele><time>2026-05-05T10:55:15.999Z</time></trkpt></trkseg></trk></gpx>